
<gpx xmlns="http://www.topografix.com/GPX/1/1" xmlns:gpxx="http://www.garmin.com/xmlschemas/GpxExtensions/v3" xmlns:xsi="http://www.w3.org/2001/XMLSchema-instance" version="1.1" creator="Adze - https://getadze.com/" xsi:schemaLocation="http://www.topografix.com/GPX/1/1 http://www.topografix.com/GPX/1/1/gpx.xsd http://www.garmin.com/xmlschemas/GpxExtensions/v3 http://www.garmin.com/xmlschemas/GpxExtensionsv3.xsd">
    <metadata>
        <name>Untitled Document</name>
        <link href="http://e-ivanov.ru/projects/strava-export-gpx/"></link>
        <time>2018-10-03T02:00:01.797Z</time>
    </metadata>
    <trk>
        <name>September 2018 - Saturday</name>
        <extensions>
            <gpxx:TrackExtension>
                <gpxx:DisplayColor>DarkMagenta</gpxx:DisplayColor>
            </gpxx:TrackExtension>
        </extensions>
        <trkseg>
            <trkpt lon="99.339642" lat="14.021730">
                <ele>108.400000</ele>
                <time>2018-09-29T07:05:00Z</time>
            </trkpt>
            <trkpt lon="99.339642" lat="14.021730">
                <ele>145.200000</ele>
                <time>2018-09-29T07:05:01Z</time>
            </trkpt>
            <trkpt lon="99.339642" lat="14.021730">
                <ele>153.400000</ele>
                <time>2018-09-29T07:05:02Z</time>
            </trkpt>
            <trkpt lon="99.339642" lat="14.021730">
                <ele>157.600000</ele>
                <time>2018-09-29T07:05:03Z</time>
            </trkpt>
            <trkpt lon="99.339642" lat="14.021730">
                <ele>159.800000</ele>
                <time>2018-09-29T07:05:04Z</time>
            </trkpt>
            <trkpt lon="99.339642" lat="14.021730">
                <ele>161.000000</ele>
                <time>2018-09-29T07:05:05Z</time>
            </trkpt>
            <trkpt lon="99.339642" lat="14.021730">
                <ele>162.000000</ele>
                <time>2018-09-29T07:05:08Z</time>
            </trkpt>
            <trkpt lon="99.339642" lat="14.021730">
                <ele>161.800000</ele>
                <time>2018-09-29T07:05:20Z</time>
            </trkpt>
            <trkpt lon="99.339642" lat="14.021730">
                <ele>161.600000</ele>
                <time>2018-09-29T07:05:32Z</time>
            </trkpt>
            <trkpt lon="99.339642" lat="14.021730">
                <ele>162.600000</ele>
                <time>2018-09-29T07:05:39Z</time>
            </trkpt>
            <trkpt lon="99.339642" lat="14.021730">
                <ele>163.200000</ele>
                <time>2018-09-29T07:05:43Z</time>
            </trkpt>
            <trkpt lon="99.339642" lat="14.021730">
                <ele>164.400000</ele>
                <time>2018-09-29T07:05:52Z</time>
            </trkpt>
            <trkpt lon="99.339642" lat="14.021730">
                <ele>165.400000</ele>
                <time>2018-09-29T07:06:03Z</time>
            </trkpt>
            <trkpt lon="99.339642" lat="14.021730">
                <ele>166.200000</ele>
                <time>2018-09-29T07:06:16Z</time>
            </trkpt>
            <trkpt lon="99.339642" lat="14.021730">
                <ele>165.600000</ele>
                <time>2018-09-29T07:06:27Z</time>
            </trkpt>
            <trkpt lon="99.339642" lat="14.021730">
                <ele>164.800000</ele>
                <time>2018-09-29T07:06:36Z</time>
            </trkpt>
            <trkpt lon="99.339642" lat="14.021730">
                <ele>164.200000</ele>
                <time>2018-09-29T07:06:39Z</time>
            </trkpt>
            <trkpt lon="99.339642" lat="14.021730">
                <ele>163.000000</ele>
                <time>2018-09-29T07:06:44Z</time>
            </trkpt>
            <trkpt lon="99.339642" lat="14.021730">
                <ele>161.800000</ele>
                <time>2018-09-29T07:06:49Z</time>
            </trkpt>
            <trkpt lon="99.339642" lat="14.021730">
                <ele>160.600000</ele>
                <time>2018-09-29T07:06:55Z</time>
            </trkpt>
            <trkpt lon="99.339642" lat="14.021730">
                <ele>164.200000</ele>
                <time>2018-09-29T07:07:02Z</time>
            </trkpt>
            <trkpt lon="99.339642" lat="14.021730">
                <ele>164.000000</ele>
                <time>2018-09-29T07:07:03Z</time>
            </trkpt>
            <trkpt lon="99.339611" lat="14.021581">
                <ele>164.000000</ele>
                <time>2018-09-29T07:07:04Z</time>
            </trkpt>
            <trkpt lon="99.339578" lat="14.021416">
                <ele>163.600000</ele>
                <time>2018-09-29T07:07:06Z</time>
            </trkpt>
            <trkpt lon="99.339483" lat="14.020801">
                <ele>163.600000</ele>
                <time>2018-09-29T07:07:15Z</time>
            </trkpt>
            <trkpt lon="99.339396" lat="14.020207">
                <ele>164.000000</ele>
                <time>2018-09-29T07:07:24Z</time>
            </trkpt>
            <trkpt lon="99.339298" lat="14.019583">
                <ele>164.000000</ele>
                <time>2018-09-29T07:07:34Z</time>
            </trkpt>
            <trkpt lon="99.339295" lat="14.019560">
                <ele>164.000000</ele>
                <time>2018-09-29T07:07:35Z</time>
            </trkpt>
            <trkpt lon="99.339313" lat="14.019551">
                <ele>164.000000</ele>
                <time>2018-09-29T07:07:40Z</time>
            </trkpt>
            <trkpt lon="99.339310" lat="14.019574">
                <ele>164.600000</ele>
                <time>2018-09-29T07:07:43Z</time>
            </trkpt>
            <trkpt lon="99.339682" lat="14.020042">
                <ele>164.800000</ele>
                <time>2018-09-29T07:08:44Z</time>
            </trkpt>
            <trkpt lon="99.339757" lat="14.020035">
                <ele>165.000000</ele>
                <time>2018-09-29T07:08:48Z</time>
            </trkpt>
            <trkpt lon="99.340265" lat="14.020010">
                <ele>163.400000</ele>
                <time>2018-09-29T07:09:10Z</time>
            </trkpt>
            <trkpt lon="99.340216" lat="14.019915">
                <ele>163.000000</ele>
                <time>2018-09-29T07:09:15Z</time>
            </trkpt>
            <trkpt lon="99.340169" lat="14.019710">
                <ele>162.600000</ele>
                <time>2018-09-29T07:09:22Z</time>
            </trkpt>
            <trkpt lon="99.340135" lat="14.019697">
                <ele>162.600000</ele>
                <time>2018-09-29T07:09:23Z</time>
            </trkpt>
            <trkpt lon="99.340053" lat="14.019705">
                <ele>162.400000</ele>
                <time>2018-09-29T07:09:25Z</time>
            </trkpt>
            <trkpt lon="99.339977" lat="14.019731">
                <ele>162.400000</ele>
                <time>2018-09-29T07:09:27Z</time>
            </trkpt>
            <trkpt lon="99.339487" lat="14.019534">
                <ele>163.200000</ele>
                <time>2018-09-29T07:09:41Z</time>
            </trkpt>
            <trkpt lon="99.339447" lat="14.019516">
                <ele>163.400000</ele>
                <time>2018-09-29T07:09:42Z</time>
            </trkpt>
            <trkpt lon="99.339092" lat="14.019401">
                <ele>164.400000</ele>
                <time>2018-09-29T07:09:51Z</time>
            </trkpt>
            <trkpt lon="99.338718" lat="14.019192">
                <ele>166.000000</ele>
                <time>2018-09-29T07:10:02Z</time>
            </trkpt>
            <trkpt lon="99.338358" lat="14.019134">
                <ele>167.400000</ele>
                <time>2018-09-29T07:10:11Z</time>
            </trkpt>
            <trkpt lon="99.338252" lat="14.019089">
                <ele>167.800000</ele>
                <time>2018-09-29T07:10:14Z</time>
            </trkpt>
            <trkpt lon="99.337924" lat="14.018955">
                <ele>169.000000</ele>
                <time>2018-09-29T07:10:27Z</time>
            </trkpt>
            <trkpt lon="99.337520" lat="14.018791">
                <ele>170.600000</ele>
                <time>2018-09-29T07:10:43Z</time>
            </trkpt>
            <trkpt lon="99.337441" lat="14.018762">
                <ele>171.800000</ele>
                <time>2018-09-29T07:10:46Z</time>
            </trkpt>
            <trkpt lon="99.337228" lat="14.018668">
                <ele>173.200000</ele>
                <time>2018-09-29T07:10:54Z</time>
            </trkpt>
            <trkpt lon="99.337022" lat="14.018483">
                <ele>174.800000</ele>
                <time>2018-09-29T07:11:04Z</time>
            </trkpt>
            <trkpt lon="99.336825" lat="14.018336">
                <ele>176.200000</ele>
                <time>2018-09-29T07:11:13Z</time>
            </trkpt>
            <trkpt lon="99.336702" lat="14.018155">
                <ele>177.400000</ele>
                <time>2018-09-29T07:11:21Z</time>
            </trkpt>
            <trkpt lon="99.336588" lat="14.017908">
                <ele>178.800000</ele>
                <time>2018-09-29T07:11:31Z</time>
            </trkpt>
            <trkpt lon="99.336327" lat="14.017659">
                <ele>180.400000</ele>
                <time>2018-09-29T07:11:44Z</time>
            </trkpt>
            <trkpt lon="99.336119" lat="14.017469">
                <ele>181.800000</ele>
                <time>2018-09-29T07:11:54Z</time>
            </trkpt>
            <trkpt lon="99.336122" lat="14.017377">
                <ele>181.800000</ele>
                <time>2018-09-29T07:11:58Z</time>
            </trkpt>
            <trkpt lon="99.336149" lat="14.017164">
                <ele>181.800000</ele>
                <time>2018-09-29T07:12:05Z</time>
            </trkpt>
            <trkpt lon="99.336137" lat="14.017065">
                <ele>181.800000</ele>
                <time>2018-09-29T07:12:07Z</time>
            </trkpt>
            <trkpt lon="99.336183" lat="14.016830">
                <ele>180.000000</ele>
                <time>2018-09-29T07:12:12Z</time>
            </trkpt>
            <trkpt lon="99.336194" lat="14.016801">
                <ele>179.600000</ele>
                <time>2018-09-29T07:12:13Z</time>
            </trkpt>
            <trkpt lon="99.336219" lat="14.016742">
                <ele>179.000000</ele>
                <time>2018-09-29T07:12:15Z</time>
            </trkpt>
            <trkpt lon="99.336263" lat="14.016687">
                <ele>178.800000</ele>
                <time>2018-09-29T07:12:17Z</time>
            </trkpt>
            <trkpt lon="99.336365" lat="14.016591">
                <ele>178.200000</ele>
                <time>2018-09-29T07:12:20Z</time>
            </trkpt>
            <trkpt lon="99.336413" lat="14.016499">
                <ele>177.800000</ele>
                <time>2018-09-29T07:12:22Z</time>
            </trkpt>
            <trkpt lon="99.336371" lat="14.016289">
                <ele>177.400000</ele>
                <time>2018-09-29T07:12:26Z</time>
            </trkpt>
            <trkpt lon="99.336282" lat="14.016077">
                <ele>177.200000</ele>
                <time>2018-09-29T07:12:30Z</time>
            </trkpt>
            <trkpt lon="99.336185" lat="14.015809">
                <ele>176.600000</ele>
                <time>2018-09-29T07:12:37Z</time>
            </trkpt>
            <trkpt lon="99.336175" lat="14.015770">
                <ele>176.400000</ele>
                <time>2018-09-29T07:12:38Z</time>
            </trkpt>
            <trkpt lon="99.336133" lat="14.015597">
                <ele>176.400000</ele>
                <time>2018-09-29T07:12:43Z</time>
            </trkpt>
            <trkpt lon="99.336035" lat="14.015365">
                <ele>177.800000</ele>
                <time>2018-09-29T07:12:53Z</time>
            </trkpt>
            <trkpt lon="99.336035" lat="14.015341">
                <ele>178.200000</ele>
                <time>2018-09-29T07:12:54Z</time>
            </trkpt>
            <trkpt lon="99.336101" lat="14.015287">
                <ele>179.200000</ele>
                <time>2018-09-29T07:12:57Z</time>
            </trkpt>
            <trkpt lon="99.336186" lat="14.015270">
                <ele>179.800000</ele>
                <time>2018-09-29T07:12:59Z</time>
            </trkpt>
            <trkpt lon="99.336240" lat="14.015264">
                <ele>179.800000</ele>
                <time>2018-09-29T07:13:00Z</time>
            </trkpt>
            <trkpt lon="99.336583" lat="14.015255">
                <ele>179.800000</ele>
                <time>2018-09-29T07:13:05Z</time>
            </trkpt>
            <trkpt lon="99.336734" lat="14.015259">
                <ele>179.600000</ele>
                <time>2018-09-29T07:13:07Z</time>
            </trkpt>
            <trkpt lon="99.336918" lat="14.015177">
                <ele>178.400000</ele>
                <time>2018-09-29T07:13:10Z</time>
            </trkpt>
            <trkpt lon="99.336966" lat="14.015128">
                <ele>177.600000</ele>
                <time>2018-09-29T07:13:11Z</time>
            </trkpt>
            <trkpt lon="99.337015" lat="14.015080">
                <ele>176.600000</ele>
                <time>2018-09-29T07:13:12Z</time>
            </trkpt>
            <trkpt lon="99.337120" lat="14.014991">
                <ele>175.400000</ele>
                <time>2018-09-29T07:13:14Z</time>
            </trkpt>
            <trkpt lon="99.337173" lat="14.014948">
                <ele>174.000000</ele>
                <time>2018-09-29T07:13:15Z</time>
            </trkpt>
            <trkpt lon="99.337229" lat="14.014911">
                <ele>173.600000</ele>
                <time>2018-09-29T07:13:16Z</time>
            </trkpt>
            <trkpt lon="99.337344" lat="14.014868">
                <ele>172.600000</ele>
                <time>2018-09-29T07:13:18Z</time>
            </trkpt>
            <trkpt lon="99.337465" lat="14.014864">
                <ele>171.800000</ele>
                <time>2018-09-29T07:13:20Z</time>
            </trkpt>
            <trkpt lon="99.337525" lat="14.014861">
                <ele>171.800000</ele>
                <time>2018-09-29T07:13:21Z</time>
            </trkpt>
            <trkpt lon="99.337580" lat="14.014845">
                <ele>171.200000</ele>
                <time>2018-09-29T07:13:22Z</time>
            </trkpt>
            <trkpt lon="99.337705" lat="14.014753">
                <ele>170.600000</ele>
                <time>2018-09-29T07:13:25Z</time>
            </trkpt>
            <trkpt lon="99.337861" lat="14.014615">
                <ele>169.600000</ele>
                <time>2018-09-29T07:13:29Z</time>
            </trkpt>
            <trkpt lon="99.337901" lat="14.014570">
                <ele>169.400000</ele>
                <time>2018-09-29T07:13:30Z</time>
            </trkpt>
            <trkpt lon="99.338031" lat="14.014438">
                <ele>168.600000</ele>
                <time>2018-09-29T07:13:33Z</time>
            </trkpt>
            <trkpt lon="99.338162" lat="14.014297">
                <ele>167.800000</ele>
                <time>2018-09-29T07:13:36Z</time>
            </trkpt>
            <trkpt lon="99.338192" lat="14.014245">
                <ele>167.600000</ele>
                <time>2018-09-29T07:13:37Z</time>
            </trkpt>
            <trkpt lon="99.338231" lat="14.014150">
                <ele>166.800000</ele>
                <time>2018-09-29T07:13:39Z</time>
            </trkpt>
            <trkpt lon="99.338225" lat="14.014112">
                <ele>166.400000</ele>
                <time>2018-09-29T07:13:40Z</time>
            </trkpt>
            <trkpt lon="99.338203" lat="14.014004">
                <ele>165.600000</ele>
                <time>2018-09-29T07:13:44Z</time>
            </trkpt>
            <trkpt lon="99.338342" lat="14.013806">
                <ele>165.200000</ele>
                <time>2018-09-29T07:13:55Z</time>
            </trkpt>
            <trkpt lon="99.338359" lat="14.013756">
                <ele>165.200000</ele>
                <time>2018-09-29T07:13:57Z</time>
            </trkpt>
            <trkpt lon="99.338428" lat="14.013678">
                <ele>164.600000</ele>
                <time>2018-09-29T07:14:09Z</time>
            </trkpt>
            <trkpt lon="99.338593" lat="14.013643">
                <ele>164.400000</ele>
                <time>2018-09-29T07:14:15Z</time>
            </trkpt>
            <trkpt lon="99.338658" lat="14.013676">
                <ele>164.000000</ele>
                <time>2018-09-29T07:14:21Z</time>
            </trkpt>
            <trkpt lon="99.338661" lat="14.013700">
                <ele>163.800000</ele>
                <time>2018-09-29T07:14:22Z</time>
            </trkpt>
            <trkpt lon="99.338717" lat="14.013772">
                <ele>163.400000</ele>
                <time>2018-09-29T07:14:25Z</time>
            </trkpt>
            <trkpt lon="99.338920" lat="14.013742">
                <ele>163.400000</ele>
                <time>2018-09-29T07:14:30Z</time>
            </trkpt>
            <trkpt lon="99.339100" lat="14.013666">
                <ele>163.400000</ele>
                <time>2018-09-29T07:14:34Z</time>
            </trkpt>
            <trkpt lon="99.339267" lat="14.013621">
                <ele>163.000000</ele>
                <time>2018-09-29T07:14:37Z</time>
            </trkpt>
            <trkpt lon="99.339531" lat="14.013600">
                <ele>162.000000</ele>
                <time>2018-09-29T07:14:41Z</time>
            </trkpt>
            <trkpt lon="99.339579" lat="14.013589">
                <ele>162.000000</ele>
                <time>2018-09-29T07:14:42Z</time>
            </trkpt>
            <trkpt lon="99.339643" lat="14.013506">
                <ele>161.000000</ele>
                <time>2018-09-29T07:14:46Z</time>
            </trkpt>
            <trkpt lon="99.339645" lat="14.013495">
                <ele>160.800000</ele>
                <time>2018-09-29T07:14:47Z</time>
            </trkpt>
            <trkpt lon="99.339647" lat="14.013466">
                <ele>160.600000</ele>
                <time>2018-09-29T07:15:00Z</time>
            </trkpt>
            <trkpt lon="99.339649" lat="14.013281">
                <ele>160.600000</ele>
                <time>2018-09-29T07:15:07Z</time>
            </trkpt>
            <trkpt lon="99.339651" lat="14.013243">
                <ele>160.600000</ele>
                <time>2018-09-29T07:15:08Z</time>
            </trkpt>
            <trkpt lon="99.339676" lat="14.012852">
                <ele>159.800000</ele>
                <time>2018-09-29T07:15:16Z</time>
            </trkpt>
            <trkpt lon="99.339709" lat="14.012454">
                <ele>158.800000</ele>
                <time>2018-09-29T07:15:22Z</time>
            </trkpt>
            <trkpt lon="99.339732" lat="14.012165">
                <ele>157.800000</ele>
                <time>2018-09-29T07:15:26Z</time>
            </trkpt>
            <trkpt lon="99.339763" lat="14.011876">
                <ele>156.800000</ele>
                <time>2018-09-29T07:15:30Z</time>
            </trkpt>
            <trkpt lon="99.339787" lat="14.011570">
                <ele>155.800000</ele>
                <time>2018-09-29T07:15:34Z</time>
            </trkpt>
            <trkpt lon="99.339817" lat="14.011168">
                <ele>155.000000</ele>
                <time>2018-09-29T07:15:39Z</time>
            </trkpt>
            <trkpt lon="99.339833" lat="14.011013">
                <ele>154.000000</ele>
                <time>2018-09-29T07:15:41Z</time>
            </trkpt>
            <trkpt lon="99.339858" lat="14.010705">
                <ele>153.000000</ele>
                <time>2018-09-29T07:15:45Z</time>
            </trkpt>
            <trkpt lon="99.339895" lat="14.010436">
                <ele>152.200000</ele>
                <time>2018-09-29T07:15:49Z</time>
            </trkpt>
            <trkpt lon="99.339970" lat="14.010364">
                <ele>152.000000</ele>
                <time>2018-09-29T07:15:51Z</time>
            </trkpt>
            <trkpt lon="99.340161" lat="14.010353">
                <ele>151.600000</ele>
                <time>2018-09-29T07:15:54Z</time>
            </trkpt>
            <trkpt lon="99.340607" lat="14.010396">
                <ele>151.000000</ele>
                <time>2018-09-29T07:16:00Z</time>
            </trkpt>
            <trkpt lon="99.340814" lat="14.010428">
                <ele>150.200000</ele>
                <time>2018-09-29T07:16:03Z</time>
            </trkpt>
            <trkpt lon="99.340864" lat="14.010414">
                <ele>149.800000</ele>
                <time>2018-09-29T07:16:04Z</time>
            </trkpt>
            <trkpt lon="99.340899" lat="14.010198">
                <ele>149.000000</ele>
                <time>2018-09-29T07:16:08Z</time>
            </trkpt>
            <trkpt lon="99.340890" lat="14.010129">
                <ele>149.000000</ele>
                <time>2018-09-29T07:16:09Z</time>
            </trkpt>
            <trkpt lon="99.340861" lat="14.009910">
                <ele>148.600000</ele>
                <time>2018-09-29T07:16:12Z</time>
            </trkpt>
            <trkpt lon="99.340939" lat="14.009519">
                <ele>148.000000</ele>
                <time>2018-09-29T07:16:17Z</time>
            </trkpt>
            <trkpt lon="99.341104" lat="14.009347">
                <ele>147.200000</ele>
                <time>2018-09-29T07:16:20Z</time>
            </trkpt>
            <trkpt lon="99.341168" lat="14.009310">
                <ele>146.800000</ele>
                <time>2018-09-29T07:16:21Z</time>
            </trkpt>
            <trkpt lon="99.341230" lat="14.009271">
                <ele>146.200000</ele>
                <time>2018-09-29T07:16:22Z</time>
            </trkpt>
            <trkpt lon="99.341285" lat="14.009227">
                <ele>146.000000</ele>
                <time>2018-09-29T07:16:23Z</time>
            </trkpt>
            <trkpt lon="99.341580" lat="14.008940">
                <ele>145.200000</ele>
                <time>2018-09-29T07:16:29Z</time>
            </trkpt>
            <trkpt lon="99.342014" lat="14.008549">
                <ele>144.800000</ele>
                <time>2018-09-29T07:16:38Z</time>
            </trkpt>
            <trkpt lon="99.342063" lat="14.008515">
                <ele>145.000000</ele>
                <time>2018-09-29T07:16:39Z</time>
            </trkpt>
            <trkpt lon="99.342582" lat="14.008216">
                <ele>145.200000</ele>
                <time>2018-09-29T07:16:49Z</time>
            </trkpt>
            <trkpt lon="99.342992" lat="14.007963">
                <ele>145.200000</ele>
                <time>2018-09-29T07:16:58Z</time>
            </trkpt>
            <trkpt lon="99.343454" lat="14.007686">
                <ele>145.000000</ele>
                <time>2018-09-29T07:17:12Z</time>
            </trkpt>
            <trkpt lon="99.343665" lat="14.007474">
                <ele>144.400000</ele>
                <time>2018-09-29T07:17:19Z</time>
            </trkpt>
            <trkpt lon="99.343575" lat="14.007342">
                <ele>143.600000</ele>
                <time>2018-09-29T07:17:23Z</time>
            </trkpt>
            <trkpt lon="99.343519" lat="14.007258">
                <ele>143.600000</ele>
                <time>2018-09-29T07:17:25Z</time>
            </trkpt>
            <trkpt lon="99.343387" lat="14.007045">
                <ele>142.800000</ele>
                <time>2018-09-29T07:17:30Z</time>
            </trkpt>
            <trkpt lon="99.343241" lat="14.006763">
                <ele>142.000000</ele>
                <time>2018-09-29T07:17:36Z</time>
            </trkpt>
            <trkpt lon="99.343113" lat="14.006425">
                <ele>141.400000</ele>
                <time>2018-09-29T07:17:42Z</time>
            </trkpt>
            <trkpt lon="99.342989" lat="14.006227">
                <ele>141.200000</ele>
                <time>2018-09-29T07:17:46Z</time>
            </trkpt>
            <trkpt lon="99.342780" lat="14.005876">
                <ele>141.200000</ele>
                <time>2018-09-29T07:17:53Z</time>
            </trkpt>
            <trkpt lon="99.342643" lat="14.005363">
                <ele>141.200000</ele>
                <time>2018-09-29T07:18:01Z</time>
            </trkpt>
            <trkpt lon="99.342597" lat="14.005122">
                <ele>140.400000</ele>
                <time>2018-09-29T07:18:05Z</time>
            </trkpt>
            <trkpt lon="99.342602" lat="14.005095">
                <ele>140.200000</ele>
                <time>2018-09-29T07:18:06Z</time>
            </trkpt>
            <trkpt lon="99.342776" lat="14.005077">
                <ele>139.800000</ele>
                <time>2018-09-29T07:18:12Z</time>
            </trkpt>
            <trkpt lon="99.342900" lat="14.005024">
                <ele>139.800000</ele>
                <time>2018-09-29T07:18:15Z</time>
            </trkpt>
            <trkpt lon="99.343355" lat="14.004838">
                <ele>139.000000</ele>
                <time>2018-09-29T07:18:24Z</time>
            </trkpt>
            <trkpt lon="99.343516" lat="14.004769">
                <ele>138.400000</ele>
                <time>2018-09-29T07:18:27Z</time>
            </trkpt>
            <trkpt lon="99.343679" lat="14.004702">
                <ele>138.200000</ele>
                <time>2018-09-29T07:18:30Z</time>
            </trkpt>
            <trkpt lon="99.343885" lat="14.004609">
                <ele>137.600000</ele>
                <time>2018-09-29T07:18:34Z</time>
            </trkpt>
            <trkpt lon="99.344173" lat="14.004499">
                <ele>137.600000</ele>
                <time>2018-09-29T07:18:40Z</time>
            </trkpt>
            <trkpt lon="99.344665" lat="14.004542">
                <ele>137.600000</ele>
                <time>2018-09-29T07:18:52Z</time>
            </trkpt>
            <trkpt lon="99.345206" lat="14.004611">
                <ele>138.600000</ele>
                <time>2018-09-29T07:19:04Z</time>
            </trkpt>
            <trkpt lon="99.345256" lat="14.004607">
                <ele>138.600000</ele>
                <time>2018-09-29T07:19:05Z</time>
            </trkpt>
            <trkpt lon="99.345434" lat="14.004561">
                <ele>138.600000</ele>
                <time>2018-09-29T07:19:09Z</time>
            </trkpt>
            <trkpt lon="99.345519" lat="14.004534">
                <ele>138.600000</ele>
                <time>2018-09-29T07:19:11Z</time>
            </trkpt>
            <trkpt lon="99.345670" lat="14.004481">
                <ele>138.400000</ele>
                <time>2018-09-29T07:19:15Z</time>
            </trkpt>
            <trkpt lon="99.346158" lat="14.004428">
                <ele>140.200000</ele>
                <time>2018-09-29T07:19:27Z</time>
            </trkpt>
            <trkpt lon="99.346374" lat="14.004435">
                <ele>140.800000</ele>
                <time>2018-09-29T07:19:32Z</time>
            </trkpt>
            <trkpt lon="99.346541" lat="14.004422">
                <ele>140.800000</ele>
                <time>2018-09-29T07:19:36Z</time>
            </trkpt>
            <trkpt lon="99.346766" lat="14.004267">
                <ele>141.000000</ele>
                <time>2018-09-29T07:19:43Z</time>
            </trkpt>
            <trkpt lon="99.346871" lat="14.004143">
                <ele>141.000000</ele>
                <time>2018-09-29T07:19:47Z</time>
            </trkpt>
            <trkpt lon="99.347325" lat="14.003832">
                <ele>141.200000</ele>
                <time>2018-09-29T07:20:01Z</time>
            </trkpt>
            <trkpt lon="99.347850" lat="14.003787">
                <ele>141.600000</ele>
                <time>2018-09-29T07:20:17Z</time>
            </trkpt>
            <trkpt lon="99.347875" lat="14.003774">
                <ele>141.800000</ele>
                <time>2018-09-29T07:20:18Z</time>
            </trkpt>
            <trkpt lon="99.347991" lat="14.003851">
                <ele>141.800000</ele>
                <time>2018-09-29T07:20:23Z</time>
            </trkpt>
            <trkpt lon="99.348289" lat="14.004094">
                <ele>142.200000</ele>
                <time>2018-09-29T07:20:34Z</time>
            </trkpt>
            <trkpt lon="99.348434" lat="14.003946">
                <ele>142.200000</ele>
                <time>2018-09-29T07:20:40Z</time>
            </trkpt>
            <trkpt lon="99.348840" lat="14.003568">
                <ele>142.200000</ele>
                <time>2018-09-29T07:20:53Z</time>
            </trkpt>
            <trkpt lon="99.349132" lat="14.003428">
                <ele>142.600000</ele>
                <time>2018-09-29T07:21:01Z</time>
            </trkpt>
            <trkpt lon="99.349228" lat="14.003337">
                <ele>143.200000</ele>
                <time>2018-09-29T07:21:04Z</time>
            </trkpt>
            <trkpt lon="99.349346" lat="14.003207">
                <ele>144.000000</ele>
                <time>2018-09-29T07:21:08Z</time>
            </trkpt>
            <trkpt lon="99.349654" lat="14.002763">
                <ele>145.000000</ele>
                <time>2018-09-29T07:21:22Z</time>
            </trkpt>
            <trkpt lon="99.349937" lat="14.002300">
                <ele>146.200000</ele>
                <time>2018-09-29T07:21:35Z</time>
            </trkpt>
            <trkpt lon="99.350075" lat="14.002070">
                <ele>146.400000</ele>
                <time>2018-09-29T07:21:41Z</time>
            </trkpt>
            <trkpt lon="99.350367" lat="14.001575">
                <ele>146.600000</ele>
                <time>2018-09-29T07:21:54Z</time>
            </trkpt>
            <trkpt lon="99.350709" lat="14.001094">
                <ele>146.200000</ele>
                <time>2018-09-29T07:22:04Z</time>
            </trkpt>
            <trkpt lon="99.350788" lat="14.000989">
                <ele>145.800000</ele>
                <time>2018-09-29T07:22:06Z</time>
            </trkpt>
            <trkpt lon="99.350942" lat="14.000765">
                <ele>145.000000</ele>
                <time>2018-09-29T07:22:10Z</time>
            </trkpt>
            <trkpt lon="99.351067" lat="14.000541">
                <ele>144.000000</ele>
                <time>2018-09-29T07:22:14Z</time>
            </trkpt>
            <trkpt lon="99.351361" lat="14.000024">
                <ele>143.400000</ele>
                <time>2018-09-29T07:22:24Z</time>
            </trkpt>
            <trkpt lon="99.351722" lat="13.999605">
                <ele>144.000000</ele>
                <time>2018-09-29T07:22:34Z</time>
            </trkpt>
            <trkpt lon="99.351758" lat="13.999566">
                <ele>144.200000</ele>
                <time>2018-09-29T07:22:35Z</time>
            </trkpt>
            <trkpt lon="99.351743" lat="13.999336">
                <ele>144.600000</ele>
                <time>2018-09-29T07:22:41Z</time>
            </trkpt>
            <trkpt lon="99.351585" lat="13.999219">
                <ele>144.800000</ele>
                <time>2018-09-29T07:22:46Z</time>
            </trkpt>
            <trkpt lon="99.351063" lat="13.999007">
                <ele>144.800000</ele>
                <time>2018-09-29T07:22:58Z</time>
            </trkpt>
            <trkpt lon="99.350516" lat="13.998822">
                <ele>145.200000</ele>
                <time>2018-09-29T07:23:11Z</time>
            </trkpt>
            <trkpt lon="99.349965" lat="13.998651">
                <ele>144.600000</ele>
                <time>2018-09-29T07:23:23Z</time>
            </trkpt>
            <trkpt lon="99.349851" lat="13.998605">
                <ele>144.600000</ele>
                <time>2018-09-29T07:23:27Z</time>
            </trkpt>
            <trkpt lon="99.349864" lat="13.998449">
                <ele>145.600000</ele>
                <time>2018-09-29T07:23:33Z</time>
            </trkpt>
            <trkpt lon="99.350190" lat="13.998023">
                <ele>146.800000</ele>
                <time>2018-09-29T07:23:51Z</time>
            </trkpt>
            <trkpt lon="99.350554" lat="13.998033">
                <ele>147.600000</ele>
                <time>2018-09-29T07:24:03Z</time>
            </trkpt>
            <trkpt lon="99.350708" lat="13.997804">
                <ele>149.000000</ele>
                <time>2018-09-29T07:24:14Z</time>
            </trkpt>
            <trkpt lon="99.351005" lat="13.997412">
                <ele>150.800000</ele>
                <time>2018-09-29T07:24:35Z</time>
            </trkpt>
            <trkpt lon="99.351109" lat="13.997292">
                <ele>152.000000</ele>
                <time>2018-09-29T07:24:43Z</time>
            </trkpt>
            <trkpt lon="99.351161" lat="13.997190">
                <ele>153.000000</ele>
                <time>2018-09-29T07:24:49Z</time>
            </trkpt>
            <trkpt lon="99.351227" lat="13.997076">
                <ele>154.200000</ele>
                <time>2018-09-29T07:24:57Z</time>
            </trkpt>
            <trkpt lon="99.351243" lat="13.997064">
                <ele>154.200000</ele>
                <time>2018-09-29T07:24:59Z</time>
            </trkpt>
            <trkpt lon="99.351255" lat="13.997041">
                <ele>154.800000</ele>
                <time>2018-09-29T07:25:04Z</time>
            </trkpt>
            <trkpt lon="99.351247" lat="13.997029">
                <ele>155.000000</ele>
                <time>2018-09-29T07:25:07Z</time>
            </trkpt>
            <trkpt lon="99.350916" lat="13.996751">
                <ele>155.800000</ele>
                <time>2018-09-29T07:25:40Z</time>
            </trkpt>
            <trkpt lon="99.350812" lat="13.996538">
                <ele>157.000000</ele>
                <time>2018-09-29T07:25:55Z</time>
            </trkpt>
            <trkpt lon="99.350779" lat="13.996453">
                <ele>158.000000</ele>
                <time>2018-09-29T07:26:01Z</time>
            </trkpt>
            <trkpt lon="99.350756" lat="13.996376">
                <ele>158.200000</ele>
                <time>2018-09-29T07:26:06Z</time>
            </trkpt>
            <trkpt lon="99.350728" lat="13.996124">
                <ele>159.800000</ele>
                <time>2018-09-29T07:26:22Z</time>
            </trkpt>
            <trkpt lon="99.350763" lat="13.995993">
                <ele>161.400000</ele>
                <time>2018-09-29T07:26:32Z</time>
            </trkpt>
            <trkpt lon="99.350802" lat="13.995913">
                <ele>162.400000</ele>
                <time>2018-09-29T07:26:39Z</time>
            </trkpt>
            <trkpt lon="99.350798" lat="13.995899">
                <ele>162.600000</ele>
                <time>2018-09-29T07:26:40Z</time>
            </trkpt>
            <trkpt lon="99.350788" lat="13.995845">
                <ele>163.200000</ele>
                <time>2018-09-29T07:26:44Z</time>
            </trkpt>
            <trkpt lon="99.350765" lat="13.995765">
                <ele>163.800000</ele>
                <time>2018-09-29T07:26:51Z</time>
            </trkpt>
            <trkpt lon="99.350774" lat="13.995591">
                <ele>165.200000</ele>
                <time>2018-09-29T07:27:05Z</time>
            </trkpt>
            <trkpt lon="99.350853" lat="13.995470">
                <ele>166.400000</ele>
                <time>2018-09-29T07:27:16Z</time>
            </trkpt>
            <trkpt lon="99.350880" lat="13.995421">
                <ele>167.400000</ele>
                <time>2018-09-29T07:27:21Z</time>
            </trkpt>
            <trkpt lon="99.350879" lat="13.995358">
                <ele>167.600000</ele>
                <time>2018-09-29T07:27:26Z</time>
            </trkpt>
            <trkpt lon="99.350880" lat="13.995347">
                <ele>167.800000</ele>
                <time>2018-09-29T07:27:27Z</time>
            </trkpt>
            <trkpt lon="99.350923" lat="13.995225">
                <ele>168.600000</ele>
                <time>2018-09-29T07:27:38Z</time>
            </trkpt>
            <trkpt lon="99.350929" lat="13.995174">
                <ele>169.200000</ele>
                <time>2018-09-29T07:27:43Z</time>
            </trkpt>
            <trkpt lon="99.350937" lat="13.995163">
                <ele>169.400000</ele>
                <time>2018-09-29T07:27:44Z</time>
            </trkpt>
            <trkpt lon="99.350956" lat="13.995120">
                <ele>169.800000</ele>
                <time>2018-09-29T07:27:48Z</time>
            </trkpt>
            <trkpt lon="99.350985" lat="13.995043">
                <ele>170.600000</ele>
                <time>2018-09-29T07:27:56Z</time>
            </trkpt>
            <trkpt lon="99.351054" lat="13.994899">
                <ele>172.000000</ele>
                <time>2018-09-29T07:28:11Z</time>
            </trkpt>
            <trkpt lon="99.351103" lat="13.994748">
                <ele>173.400000</ele>
                <time>2018-09-29T07:28:26Z</time>
            </trkpt>
            <trkpt lon="99.351128" lat="13.994708">
                <ele>174.000000</ele>
                <time>2018-09-29T07:28:30Z</time>
            </trkpt>
            <trkpt lon="99.351135" lat="13.994660">
                <ele>174.600000</ele>
                <time>2018-09-29T07:28:35Z</time>
            </trkpt>
            <trkpt lon="99.351133" lat="13.994656">
                <ele>174.800000</ele>
                <time>2018-09-29T07:28:36Z</time>
            </trkpt>
            <trkpt lon="99.351161" lat="13.994579">
                <ele>177.000000</ele>
                <time>2018-09-29T07:28:56Z</time>
            </trkpt>
            <trkpt lon="99.351163" lat="13.994562">
                <ele>177.200000</ele>
                <time>2018-09-29T07:28:59Z</time>
            </trkpt>
            <trkpt lon="99.351164" lat="13.994552">
                <ele>177.200000</ele>
                <time>2018-09-29T07:29:00Z</time>
            </trkpt>
            <trkpt lon="99.351165" lat="13.994532">
                <ele>177.600000</ele>
                <time>2018-09-29T07:29:03Z</time>
            </trkpt>
            <trkpt lon="99.351164" lat="13.994528">
                <ele>177.800000</ele>
                <time>2018-09-29T07:29:04Z</time>
            </trkpt>
            <trkpt lon="99.351164" lat="13.994523">
                <ele>178.000000</ele>
                <time>2018-09-29T07:29:05Z</time>
            </trkpt>
            <trkpt lon="99.351165" lat="13.994512">
                <ele>178.200000</ele>
                <time>2018-09-29T07:29:08Z</time>
            </trkpt>
            <trkpt lon="99.351166" lat="13.994506">
                <ele>178.400000</ele>
                <time>2018-09-29T07:29:09Z</time>
            </trkpt>
            <trkpt lon="99.351170" lat="13.994495">
                <ele>178.600000</ele>
                <time>2018-09-29T07:29:11Z</time>
            </trkpt>
            <trkpt lon="99.351171" lat="13.994491">
                <ele>179.000000</ele>
                <time>2018-09-29T07:29:12Z</time>
            </trkpt>
            <trkpt lon="99.351174" lat="13.994474">
                <ele>179.600000</ele>
                <time>2018-09-29T07:29:15Z</time>
            </trkpt>
            <trkpt lon="99.351186" lat="13.994465">
                <ele>180.000000</ele>
                <time>2018-09-29T07:29:19Z</time>
            </trkpt>
            <trkpt lon="99.351182" lat="13.994417">
                <ele>180.800000</ele>
                <time>2018-09-29T07:29:26Z</time>
            </trkpt>
            <trkpt lon="99.351185" lat="13.994403">
                <ele>180.800000</ele>
                <time>2018-09-29T07:29:28Z</time>
            </trkpt>
            <trkpt lon="99.351189" lat="13.994389">
                <ele>180.800000</ele>
                <time>2018-09-29T07:29:30Z</time>
            </trkpt>
            <trkpt lon="99.351215" lat="13.994302">
                <ele>181.600000</ele>
                <time>2018-09-29T07:29:41Z</time>
            </trkpt>
            <trkpt lon="99.351231" lat="13.994248">
                <ele>182.400000</ele>
                <time>2018-09-29T07:29:52Z</time>
            </trkpt>
            <trkpt lon="99.351277" lat="13.994128">
                <ele>183.400000</ele>
                <time>2018-09-29T07:30:05Z</time>
            </trkpt>
            <trkpt lon="99.351291" lat="13.994116">
                <ele>183.800000</ele>
                <time>2018-09-29T07:30:07Z</time>
            </trkpt>
            <trkpt lon="99.351322" lat="13.994103">
                <ele>184.200000</ele>
                <time>2018-09-29T07:30:10Z</time>
            </trkpt>
            <trkpt lon="99.351331" lat="13.994100">
                <ele>184.200000</ele>
                <time>2018-09-29T07:30:11Z</time>
            </trkpt>
            <trkpt lon="99.351350" lat="13.994094">
                <ele>184.600000</ele>
                <time>2018-09-29T07:30:13Z</time>
            </trkpt>
            <trkpt lon="99.351371" lat="13.994085">
                <ele>184.800000</ele>
                <time>2018-09-29T07:30:15Z</time>
            </trkpt>
            <trkpt lon="99.351382" lat="13.994083">
                <ele>185.200000</ele>
                <time>2018-09-29T07:30:16Z</time>
            </trkpt>
            <trkpt lon="99.351409" lat="13.994078">
                <ele>185.600000</ele>
                <time>2018-09-29T07:30:19Z</time>
            </trkpt>
            <trkpt lon="99.351431" lat="13.994080">
                <ele>186.000000</ele>
                <time>2018-09-29T07:30:21Z</time>
            </trkpt>
            <trkpt lon="99.351486" lat="13.994076">
                <ele>186.800000</ele>
                <time>2018-09-29T07:30:26Z</time>
            </trkpt>
            <trkpt lon="99.351534" lat="13.994068">
                <ele>187.000000</ele>
                <time>2018-09-29T07:30:30Z</time>
            </trkpt>
            <trkpt lon="99.351587" lat="13.994069">
                <ele>187.400000</ele>
                <time>2018-09-29T07:30:34Z</time>
            </trkpt>
            <trkpt lon="99.351836" lat="13.994031">
                <ele>187.400000</ele>
                <time>2018-09-29T07:30:46Z</time>
            </trkpt>
            <trkpt lon="99.352016" lat="13.993905">
                <ele>186.200000</ele>
                <time>2018-09-29T07:30:55Z</time>
            </trkpt>
            <trkpt lon="99.352305" lat="13.993726">
                <ele>187.600000</ele>
                <time>2018-09-29T07:31:15Z</time>
            </trkpt>
            <trkpt lon="99.352522" lat="13.993611">
                <ele>188.800000</ele>
                <time>2018-09-29T07:31:30Z</time>
            </trkpt>
            <trkpt lon="99.352648" lat="13.993568">
                <ele>189.800000</ele>
                <time>2018-09-29T07:31:39Z</time>
            </trkpt>
            <trkpt lon="99.352705" lat="13.993570">
                <ele>190.200000</ele>
                <time>2018-09-29T07:31:42Z</time>
            </trkpt>
            <trkpt lon="99.352778" lat="13.993553">
                <ele>190.600000</ele>
                <time>2018-09-29T07:31:46Z</time>
            </trkpt>
            <trkpt lon="99.352946" lat="13.993540">
                <ele>190.800000</ele>
                <time>2018-09-29T07:31:54Z</time>
            </trkpt>
            <trkpt lon="99.352987" lat="13.993546">
                <ele>190.600000</ele>
                <time>2018-09-29T07:31:56Z</time>
            </trkpt>
            <trkpt lon="99.353143" lat="13.993557">
                <ele>190.400000</ele>
                <time>2018-09-29T07:32:04Z</time>
            </trkpt>
            <trkpt lon="99.353270" lat="13.993622">
                <ele>190.400000</ele>
                <time>2018-09-29T07:32:09Z</time>
            </trkpt>
            <trkpt lon="99.353329" lat="13.993687">
                <ele>190.600000</ele>
                <time>2018-09-29T07:32:11Z</time>
            </trkpt>
            <trkpt lon="99.353391" lat="13.993864">
                <ele>190.400000</ele>
                <time>2018-09-29T07:32:14Z</time>
            </trkpt>
            <trkpt lon="99.353465" lat="13.994122">
                <ele>189.600000</ele>
                <time>2018-09-29T07:32:18Z</time>
            </trkpt>
            <trkpt lon="99.353496" lat="13.994231">
                <ele>188.400000</ele>
                <time>2018-09-29T07:32:20Z</time>
            </trkpt>
            <trkpt lon="99.353510" lat="13.994281">
                <ele>187.400000</ele>
                <time>2018-09-29T07:32:21Z</time>
            </trkpt>
            <trkpt lon="99.353522" lat="13.994320">
                <ele>186.200000</ele>
                <time>2018-09-29T07:32:22Z</time>
            </trkpt>
            <trkpt lon="99.353538" lat="13.994361">
                <ele>185.200000</ele>
                <time>2018-09-29T07:32:23Z</time>
            </trkpt>
            <trkpt lon="99.353564" lat="13.994387">
                <ele>183.800000</ele>
                <time>2018-09-29T07:32:24Z</time>
            </trkpt>
            <trkpt lon="99.353591" lat="13.994419">
                <ele>182.800000</ele>
                <time>2018-09-29T07:32:25Z</time>
            </trkpt>
            <trkpt lon="99.353616" lat="13.994451">
                <ele>180.600000</ele>
                <time>2018-09-29T07:32:26Z</time>
            </trkpt>
            <trkpt lon="99.353648" lat="13.994515">
                <ele>179.600000</ele>
                <time>2018-09-29T07:32:28Z</time>
            </trkpt>
            <trkpt lon="99.353666" lat="13.994585">
                <ele>178.600000</ele>
                <time>2018-09-29T07:32:30Z</time>
            </trkpt>
            <trkpt lon="99.353679" lat="13.994646">
                <ele>177.600000</ele>
                <time>2018-09-29T07:32:32Z</time>
            </trkpt>
            <trkpt lon="99.353733" lat="13.994669">
                <ele>176.200000</ele>
                <time>2018-09-29T07:32:34Z</time>
            </trkpt>
            <trkpt lon="99.353846" lat="13.994689">
                <ele>175.000000</ele>
                <time>2018-09-29T07:32:37Z</time>
            </trkpt>
            <trkpt lon="99.353979" lat="13.994714">
                <ele>174.000000</ele>
                <time>2018-09-29T07:32:40Z</time>
            </trkpt>
            <trkpt lon="99.354145" lat="13.994734">
                <ele>173.000000</ele>
                <time>2018-09-29T07:32:44Z</time>
            </trkpt>
            <trkpt lon="99.354188" lat="13.994689">
                <ele>172.000000</ele>
                <time>2018-09-29T07:32:46Z</time>
            </trkpt>
            <trkpt lon="99.354215" lat="13.994617">
                <ele>171.000000</ele>
                <time>2018-09-29T07:32:49Z</time>
            </trkpt>
            <trkpt lon="99.354286" lat="13.994558">
                <ele>169.800000</ele>
                <time>2018-09-29T07:32:52Z</time>
            </trkpt>
            <trkpt lon="99.354373" lat="13.994521">
                <ele>169.400000</ele>
                <time>2018-09-29T07:32:55Z</time>
            </trkpt>
            <trkpt lon="99.354883" lat="13.994373">
                <ele>171.000000</ele>
                <time>2018-09-29T07:33:20Z</time>
            </trkpt>
            <trkpt lon="99.354932" lat="13.994363">
                <ele>171.200000</ele>
                <time>2018-09-29T07:33:23Z</time>
            </trkpt>
            <trkpt lon="99.355231" lat="13.994327">
                <ele>172.600000</ele>
                <time>2018-09-29T07:33:39Z</time>
            </trkpt>
            <trkpt lon="99.355572" lat="13.994333">
                <ele>173.800000</ele>
                <time>2018-09-29T07:33:59Z</time>
            </trkpt>
            <trkpt lon="99.355736" lat="13.994330">
                <ele>175.000000</ele>
                <time>2018-09-29T07:34:09Z</time>
            </trkpt>
            <trkpt lon="99.355892" lat="13.994325">
                <ele>176.400000</ele>
                <time>2018-09-29T07:34:18Z</time>
            </trkpt>
            <trkpt lon="99.356392" lat="13.994152">
                <ele>176.800000</ele>
                <time>2018-09-29T07:34:39Z</time>
            </trkpt>
            <trkpt lon="99.356433" lat="13.994144">
                <ele>176.800000</ele>
                <time>2018-09-29T07:34:40Z</time>
            </trkpt>
            <trkpt lon="99.356759" lat="13.994133">
                <ele>176.200000</ele>
                <time>2018-09-29T07:34:47Z</time>
            </trkpt>
            <trkpt lon="99.356899" lat="13.994105">
                <ele>175.600000</ele>
                <time>2018-09-29T07:34:50Z</time>
            </trkpt>
            <trkpt lon="99.357071" lat="13.994079">
                <ele>175.400000</ele>
                <time>2018-09-29T07:34:54Z</time>
            </trkpt>
            <trkpt lon="99.357506" lat="13.994012">
                <ele>175.200000</ele>
                <time>2018-09-29T07:35:04Z</time>
            </trkpt>
            <trkpt lon="99.357648" lat="13.993948">
                <ele>175.000000</ele>
                <time>2018-09-29T07:35:07Z</time>
            </trkpt>
            <trkpt lon="99.357785" lat="13.993853">
                <ele>175.000000</ele>
                <time>2018-09-29T07:35:10Z</time>
            </trkpt>
            <trkpt lon="99.357827" lat="13.993815">
                <ele>174.800000</ele>
                <time>2018-09-29T07:35:11Z</time>
            </trkpt>
            <trkpt lon="99.357908" lat="13.993739">
                <ele>174.600000</ele>
                <time>2018-09-29T07:35:13Z</time>
            </trkpt>
            <trkpt lon="99.358027" lat="13.993613">
                <ele>174.200000</ele>
                <time>2018-09-29T07:35:17Z</time>
            </trkpt>
            <trkpt lon="99.358323" lat="13.993410">
                <ele>176.200000</ele>
                <time>2018-09-29T07:35:32Z</time>
            </trkpt>
            <trkpt lon="99.358497" lat="13.993324">
                <ele>177.600000</ele>
                <time>2018-09-29T07:35:42Z</time>
            </trkpt>
            <trkpt lon="99.358595" lat="13.993276">
                <ele>178.600000</ele>
                <time>2018-09-29T07:35:48Z</time>
            </trkpt>
            <trkpt lon="99.359118" lat="13.993152">
                <ele>179.800000</ele>
                <time>2018-09-29T07:36:06Z</time>
            </trkpt>
            <trkpt lon="99.359268" lat="13.993138">
                <ele>180.200000</ele>
                <time>2018-09-29T07:36:11Z</time>
            </trkpt>
            <trkpt lon="99.359754" lat="13.992908">
                <ele>181.200000</ele>
                <time>2018-09-29T07:36:32Z</time>
            </trkpt>
            <trkpt lon="99.360091" lat="13.992707">
                <ele>181.400000</ele>
                <time>2018-09-29T07:36:50Z</time>
            </trkpt>
            <trkpt lon="99.360162" lat="13.992666">
                <ele>182.000000</ele>
                <time>2018-09-29T07:36:55Z</time>
            </trkpt>
            <trkpt lon="99.360371" lat="13.992542">
                <ele>183.200000</ele>
                <time>2018-09-29T07:37:12Z</time>
            </trkpt>
            <trkpt lon="99.360510" lat="13.992466">
                <ele>184.400000</ele>
                <time>2018-09-29T07:37:23Z</time>
            </trkpt>
            <trkpt lon="99.360665" lat="13.992382">
                <ele>185.800000</ele>
                <time>2018-09-29T07:37:36Z</time>
            </trkpt>
            <trkpt lon="99.360817" lat="13.992305">
                <ele>187.000000</ele>
                <time>2018-09-29T07:37:50Z</time>
            </trkpt>
            <trkpt lon="99.360924" lat="13.992257">
                <ele>188.200000</ele>
                <time>2018-09-29T07:37:59Z</time>
            </trkpt>
            <trkpt lon="99.361025" lat="13.992208">
                <ele>188.800000</ele>
                <time>2018-09-29T07:38:08Z</time>
            </trkpt>
            <trkpt lon="99.361104" lat="13.992168">
                <ele>189.400000</ele>
                <time>2018-09-29T07:38:15Z</time>
            </trkpt>
            <trkpt lon="99.361530" lat="13.991944">
                <ele>190.800000</ele>
                <time>2018-09-29T07:38:39Z</time>
            </trkpt>
            <trkpt lon="99.362020" lat="13.991684">
                <ele>191.000000</ele>
                <time>2018-09-29T07:38:59Z</time>
            </trkpt>
            <trkpt lon="99.362445" lat="13.991382">
                <ele>191.800000</ele>
                <time>2018-09-29T07:39:21Z</time>
            </trkpt>
            <trkpt lon="99.362585" lat="13.991302">
                <ele>192.400000</ele>
                <time>2018-09-29T07:39:31Z</time>
            </trkpt>
            <trkpt lon="99.362760" lat="13.991227">
                <ele>193.600000</ele>
                <time>2018-09-29T07:39:44Z</time>
            </trkpt>
            <trkpt lon="99.363222" lat="13.991353">
                <ele>195.000000</ele>
                <time>2018-09-29T07:40:07Z</time>
            </trkpt>
            <trkpt lon="99.363413" lat="13.991367">
                <ele>195.200000</ele>
                <time>2018-09-29T07:40:13Z</time>
            </trkpt>
            <trkpt lon="99.363642" lat="13.991399">
                <ele>194.600000</ele>
                <time>2018-09-29T07:40:20Z</time>
            </trkpt>
            <trkpt lon="99.363653" lat="13.991398">
                <ele>194.200000</ele>
                <time>2018-09-29T07:40:27Z</time>
            </trkpt>
            <trkpt lon="99.363670" lat="13.991399">
                <ele>194.200000</ele>
                <time>2018-09-29T07:40:29Z</time>
            </trkpt>
            <trkpt lon="99.363839" lat="13.991403">
                <ele>196.400000</ele>
                <time>2018-09-29T07:40:56Z</time>
            </trkpt>
            <trkpt lon="99.363847" lat="13.991409">
                <ele>196.600000</ele>
                <time>2018-09-29T07:40:57Z</time>
            </trkpt>
            <trkpt lon="99.363976" lat="13.991475">
                <ele>197.600000</ele>
                <time>2018-09-29T07:41:14Z</time>
            </trkpt>
            <trkpt lon="99.363986" lat="13.991483">
                <ele>197.800000</ele>
                <time>2018-09-29T07:41:15Z</time>
            </trkpt>
            <trkpt lon="99.364020" lat="13.991508">
                <ele>197.800000</ele>
                <time>2018-09-29T07:41:19Z</time>
            </trkpt>
            <trkpt lon="99.364029" lat="13.991514">
                <ele>198.200000</ele>
                <time>2018-09-29T07:41:21Z</time>
            </trkpt>
            <trkpt lon="99.364035" lat="13.991517">
                <ele>198.200000</ele>
                <time>2018-09-29T07:41:22Z</time>
            </trkpt>
            <trkpt lon="99.364219" lat="13.991565">
                <ele>200.000000</ele>
                <time>2018-09-29T07:41:48Z</time>
            </trkpt>
            <trkpt lon="99.364213" lat="13.991594">
                <ele>200.000000</ele>
                <time>2018-09-29T07:41:51Z</time>
            </trkpt>
            <trkpt lon="99.364200" lat="13.991690">
                <ele>200.200000</ele>
                <time>2018-09-29T07:41:56Z</time>
            </trkpt>
            <trkpt lon="99.364201" lat="13.991737">
                <ele>200.000000</ele>
                <time>2018-09-29T07:41:59Z</time>
            </trkpt>
            <trkpt lon="99.364221" lat="13.991746">
                <ele>200.000000</ele>
                <time>2018-09-29T07:42:01Z</time>
            </trkpt>
            <trkpt lon="99.364230" lat="13.991744">
                <ele>200.000000</ele>
                <time>2018-09-29T07:42:02Z</time>
            </trkpt>
            <trkpt lon="99.364370" lat="13.991642">
                <ele>201.200000</ele>
                <time>2018-09-29T07:42:20Z</time>
            </trkpt>
            <trkpt lon="99.364422" lat="13.991621">
                <ele>202.400000</ele>
                <time>2018-09-29T07:42:26Z</time>
            </trkpt>
            <trkpt lon="99.364463" lat="13.991610">
                <ele>203.200000</ele>
                <time>2018-09-29T07:42:30Z</time>
            </trkpt>
            <trkpt lon="99.364482" lat="13.991602">
                <ele>203.600000</ele>
                <time>2018-09-29T07:42:32Z</time>
            </trkpt>
            <trkpt lon="99.364502" lat="13.991595">
                <ele>203.800000</ele>
                <time>2018-09-29T07:42:34Z</time>
            </trkpt>
            <trkpt lon="99.364530" lat="13.991587">
                <ele>204.000000</ele>
                <time>2018-09-29T07:42:36Z</time>
            </trkpt>
            <trkpt lon="99.364576" lat="13.991567">
                <ele>204.800000</ele>
                <time>2018-09-29T07:42:41Z</time>
            </trkpt>
            <trkpt lon="99.364627" lat="13.991528">
                <ele>205.800000</ele>
                <time>2018-09-29T07:42:49Z</time>
            </trkpt>
            <trkpt lon="99.364664" lat="13.991506">
                <ele>206.400000</ele>
                <time>2018-09-29T07:42:54Z</time>
            </trkpt>
            <trkpt lon="99.364669" lat="13.991501">
                <ele>206.600000</ele>
                <time>2018-09-29T07:42:55Z</time>
            </trkpt>
            <trkpt lon="99.364723" lat="13.991473">
                <ele>207.000000</ele>
                <time>2018-09-29T07:43:02Z</time>
            </trkpt>
            <trkpt lon="99.364830" lat="13.991391">
                <ele>208.200000</ele>
                <time>2018-09-29T07:43:16Z</time>
            </trkpt>
            <trkpt lon="99.364858" lat="13.991364">
                <ele>208.600000</ele>
                <time>2018-09-29T07:43:20Z</time>
            </trkpt>
            <trkpt lon="99.364885" lat="13.991300">
                <ele>209.600000</ele>
                <time>2018-09-29T07:43:27Z</time>
            </trkpt>
            <trkpt lon="99.364963" lat="13.991190">
                <ele>210.400000</ele>
                <time>2018-09-29T07:43:42Z</time>
            </trkpt>
            <trkpt lon="99.364987" lat="13.991181">
                <ele>210.800000</ele>
                <time>2018-09-29T07:43:44Z</time>
            </trkpt>
            <trkpt lon="99.365010" lat="13.991176">
                <ele>211.000000</ele>
                <time>2018-09-29T07:43:46Z</time>
            </trkpt>
            <trkpt lon="99.365058" lat="13.991147">
                <ele>211.400000</ele>
                <time>2018-09-29T07:43:52Z</time>
            </trkpt>
            <trkpt lon="99.365077" lat="13.991140">
                <ele>211.600000</ele>
                <time>2018-09-29T07:43:54Z</time>
            </trkpt>
            <trkpt lon="99.365144" lat="13.991117">
                <ele>212.000000</ele>
                <time>2018-09-29T07:44:01Z</time>
            </trkpt>
            <trkpt lon="99.365173" lat="13.991109">
                <ele>212.000000</ele>
                <time>2018-09-29T07:44:04Z</time>
            </trkpt>
            <trkpt lon="99.365261" lat="13.991088">
                <ele>213.000000</ele>
                <time>2018-09-29T07:44:14Z</time>
            </trkpt>
            <trkpt lon="99.365274" lat="13.991083">
                <ele>213.000000</ele>
                <time>2018-09-29T07:44:16Z</time>
            </trkpt>
            <trkpt lon="99.365307" lat="13.991076">
                <ele>213.400000</ele>
                <time>2018-09-29T07:44:20Z</time>
            </trkpt>
            <trkpt lon="99.365316" lat="13.991074">
                <ele>213.400000</ele>
                <time>2018-09-29T07:44:21Z</time>
            </trkpt>
            <trkpt lon="99.365323" lat="13.991072">
                <ele>213.600000</ele>
                <time>2018-09-29T07:44:22Z</time>
            </trkpt>
            <trkpt lon="99.365338" lat="13.991073">
                <ele>213.800000</ele>
                <time>2018-09-29T07:44:24Z</time>
            </trkpt>
            <trkpt lon="99.366103" lat="13.990994">
                <ele>222.600000</ele>
                <time>2018-09-29T07:45:45Z</time>
            </trkpt>
            <trkpt lon="99.366264" lat="13.991362">
                <ele>221.400000</ele>
                <time>2018-09-29T07:46:01Z</time>
            </trkpt>
            <trkpt lon="99.366259" lat="13.991413">
                <ele>220.800000</ele>
                <time>2018-09-29T07:46:02Z</time>
            </trkpt>
            <trkpt lon="99.366246" lat="13.991476">
                <ele>220.400000</ele>
                <time>2018-09-29T07:46:03Z</time>
            </trkpt>
            <trkpt lon="99.366199" lat="13.991674">
                <ele>218.800000</ele>
                <time>2018-09-29T07:46:06Z</time>
            </trkpt>
            <trkpt lon="99.366193" lat="13.991735">
                <ele>218.200000</ele>
                <time>2018-09-29T07:46:07Z</time>
            </trkpt>
            <trkpt lon="99.366192" lat="13.991783">
                <ele>217.400000</ele>
                <time>2018-09-29T07:46:08Z</time>
            </trkpt>
            <trkpt lon="99.366230" lat="13.991848">
                <ele>216.200000</ele>
                <time>2018-09-29T07:46:10Z</time>
            </trkpt>
            <trkpt lon="99.366257" lat="13.991862">
                <ele>215.000000</ele>
                <time>2018-09-29T07:46:11Z</time>
            </trkpt>
            <trkpt lon="99.366281" lat="13.991870">
                <ele>214.000000</ele>
                <time>2018-09-29T07:46:12Z</time>
            </trkpt>
            <trkpt lon="99.366300" lat="13.991877">
                <ele>213.200000</ele>
                <time>2018-09-29T07:46:13Z</time>
            </trkpt>
            <trkpt lon="99.366319" lat="13.991883">
                <ele>212.600000</ele>
                <time>2018-09-29T07:46:14Z</time>
            </trkpt>
            <trkpt lon="99.366646" lat="13.991975">
                <ele>212.800000</ele>
                <time>2018-09-29T07:46:32Z</time>
            </trkpt>
            <trkpt lon="99.366731" lat="13.992198">
                <ele>212.400000</ele>
                <time>2018-09-29T07:46:40Z</time>
            </trkpt>
            <trkpt lon="99.366727" lat="13.992240">
                <ele>212.200000</ele>
                <time>2018-09-29T07:46:41Z</time>
            </trkpt>
            <trkpt lon="99.366715" lat="13.992330">
                <ele>211.200000</ele>
                <time>2018-09-29T07:46:43Z</time>
            </trkpt>
            <trkpt lon="99.366696" lat="13.992463">
                <ele>209.800000</ele>
                <time>2018-09-29T07:46:46Z</time>
            </trkpt>
            <trkpt lon="99.366685" lat="13.992557">
                <ele>208.200000</ele>
                <time>2018-09-29T07:46:48Z</time>
            </trkpt>
            <trkpt lon="99.366678" lat="13.992614">
                <ele>207.400000</ele>
                <time>2018-09-29T07:46:49Z</time>
            </trkpt>
            <trkpt lon="99.366673" lat="13.992673">
                <ele>206.800000</ele>
                <time>2018-09-29T07:46:50Z</time>
            </trkpt>
            <trkpt lon="99.366662" lat="13.992797">
                <ele>205.000000</ele>
                <time>2018-09-29T07:46:52Z</time>
            </trkpt>
            <trkpt lon="99.366653" lat="13.992911">
                <ele>203.200000</ele>
                <time>2018-09-29T07:46:54Z</time>
            </trkpt>
            <trkpt lon="99.366628" lat="13.993037">
                <ele>201.800000</ele>
                <time>2018-09-29T07:46:56Z</time>
            </trkpt>
            <trkpt lon="99.366617" lat="13.993103">
                <ele>200.800000</ele>
                <time>2018-09-29T07:46:57Z</time>
            </trkpt>
            <trkpt lon="99.366609" lat="13.993246">
                <ele>199.000000</ele>
                <time>2018-09-29T07:46:59Z</time>
            </trkpt>
            <trkpt lon="99.366602" lat="13.993410">
                <ele>197.400000</ele>
                <time>2018-09-29T07:47:01Z</time>
            </trkpt>
            <trkpt lon="99.366596" lat="13.993587">
                <ele>195.800000</ele>
                <time>2018-09-29T07:47:03Z</time>
            </trkpt>
            <trkpt lon="99.366596" lat="13.993677">
                <ele>194.600000</ele>
                <time>2018-09-29T07:47:04Z</time>
            </trkpt>
            <trkpt lon="99.366598" lat="13.993765">
                <ele>193.200000</ele>
                <time>2018-09-29T07:47:05Z</time>
            </trkpt>
            <trkpt lon="99.366600" lat="13.993843">
                <ele>192.200000</ele>
                <time>2018-09-29T07:47:06Z</time>
            </trkpt>
            <trkpt lon="99.366598" lat="13.993969">
                <ele>190.000000</ele>
                <time>2018-09-29T07:47:08Z</time>
            </trkpt>
            <trkpt lon="99.366600" lat="13.994009">
                <ele>188.800000</ele>
                <time>2018-09-29T07:47:09Z</time>
            </trkpt>
            <trkpt lon="99.366605" lat="13.994045">
                <ele>187.600000</ele>
                <time>2018-09-29T07:47:10Z</time>
            </trkpt>
            <trkpt lon="99.366605" lat="13.994084">
                <ele>187.000000</ele>
                <time>2018-09-29T07:47:11Z</time>
            </trkpt>
            <trkpt lon="99.366601" lat="13.994127">
                <ele>186.400000</ele>
                <time>2018-09-29T07:47:12Z</time>
            </trkpt>
            <trkpt lon="99.366562" lat="13.994381">
                <ele>185.400000</ele>
                <time>2018-09-29T07:47:17Z</time>
            </trkpt>
            <trkpt lon="99.366536" lat="13.994672">
                <ele>184.200000</ele>
                <time>2018-09-29T07:47:22Z</time>
            </trkpt>
            <trkpt lon="99.366541" lat="13.994922">
                <ele>183.200000</ele>
                <time>2018-09-29T07:47:26Z</time>
            </trkpt>
            <trkpt lon="99.366572" lat="13.995042">
                <ele>182.800000</ele>
                <time>2018-09-29T07:47:29Z</time>
            </trkpt>
            <trkpt lon="99.366606" lat="13.995059">
                <ele>182.400000</ele>
                <time>2018-09-29T07:47:30Z</time>
            </trkpt>
            <trkpt lon="99.366716" lat="13.995060">
                <ele>181.200000</ele>
                <time>2018-09-29T07:47:33Z</time>
            </trkpt>
            <trkpt lon="99.367163" lat="13.995004">
                <ele>181.200000</ele>
                <time>2018-09-29T07:47:47Z</time>
            </trkpt>
            <trkpt lon="99.367644" lat="13.994931">
                <ele>182.400000</ele>
                <time>2018-09-29T07:48:03Z</time>
            </trkpt>
            <trkpt lon="99.368211" lat="13.994849">
                <ele>182.800000</ele>
                <time>2018-09-29T07:48:17Z</time>
            </trkpt>
            <trkpt lon="99.368513" lat="13.994816">
                <ele>182.800000</ele>
                <time>2018-09-29T07:48:25Z</time>
            </trkpt>
            <trkpt lon="99.368547" lat="13.994826">
                <ele>182.800000</ele>
                <time>2018-09-29T07:48:26Z</time>
            </trkpt>
            <trkpt lon="99.368620" lat="13.995006">
                <ele>182.800000</ele>
                <time>2018-09-29T07:48:31Z</time>
            </trkpt>
            <trkpt lon="99.368651" lat="13.995480">
                <ele>181.600000</ele>
                <time>2018-09-29T07:48:40Z</time>
            </trkpt>
            <trkpt lon="99.368666" lat="13.995585">
                <ele>181.000000</ele>
                <time>2018-09-29T07:48:42Z</time>
            </trkpt>
            <trkpt lon="99.368733" lat="13.995640">
                <ele>180.600000</ele>
                <time>2018-09-29T07:48:44Z</time>
            </trkpt>
            <trkpt lon="99.368880" lat="13.995627">
                <ele>179.800000</ele>
                <time>2018-09-29T07:48:47Z</time>
            </trkpt>
            <trkpt lon="99.369150" lat="13.995580">
                <ele>179.400000</ele>
                <time>2018-09-29T07:48:52Z</time>
            </trkpt>
            <trkpt lon="99.369310" lat="13.995559">
                <ele>179.400000</ele>
                <time>2018-09-29T07:48:55Z</time>
            </trkpt>
            <trkpt lon="99.369931" lat="13.995485">
                <ele>178.600000</ele>
                <time>2018-09-29T07:49:05Z</time>
            </trkpt>
            <trkpt lon="99.370005" lat="13.995612">
                <ele>177.400000</ele>
                <time>2018-09-29T07:49:08Z</time>
            </trkpt>
            <trkpt lon="99.370027" lat="13.995662">
                <ele>177.200000</ele>
                <time>2018-09-29T07:49:09Z</time>
            </trkpt>
            <trkpt lon="99.370204" lat="13.995932">
                <ele>176.400000</ele>
                <time>2018-09-29T07:49:15Z</time>
            </trkpt>
            <trkpt lon="99.370610" lat="13.996236">
                <ele>176.000000</ele>
                <time>2018-09-29T07:49:25Z</time>
            </trkpt>
            <trkpt lon="99.370820" lat="13.996175">
                <ele>176.200000</ele>
                <time>2018-09-29T07:49:31Z</time>
            </trkpt>
            <trkpt lon="99.371048" lat="13.996038">
                <ele>177.800000</ele>
                <time>2018-09-29T07:49:39Z</time>
            </trkpt>
            <trkpt lon="99.371213" lat="13.995950">
                <ele>178.800000</ele>
                <time>2018-09-29T07:49:45Z</time>
            </trkpt>
            <trkpt lon="99.371447" lat="13.995808">
                <ele>180.000000</ele>
                <time>2018-09-29T07:49:54Z</time>
            </trkpt>
            <trkpt lon="99.371674" lat="13.995662">
                <ele>181.000000</ele>
                <time>2018-09-29T07:50:04Z</time>
            </trkpt>
            <trkpt lon="99.371983" lat="13.995483">
                <ele>182.000000</ele>
                <time>2018-09-29T07:50:18Z</time>
            </trkpt>
            <trkpt lon="99.372438" lat="13.995247">
                <ele>183.200000</ele>
                <time>2018-09-29T07:50:38Z</time>
            </trkpt>
            <trkpt lon="99.372805" lat="13.995060">
                <ele>184.400000</ele>
                <time>2018-09-29T07:50:54Z</time>
            </trkpt>
            <trkpt lon="99.373000" lat="13.994955">
                <ele>185.600000</ele>
                <time>2018-09-29T07:51:06Z</time>
            </trkpt>
            <trkpt lon="99.373153" lat="13.994876">
                <ele>186.800000</ele>
                <time>2018-09-29T07:51:18Z</time>
            </trkpt>
            <trkpt lon="99.373309" lat="13.994789">
                <ele>187.800000</ele>
                <time>2018-09-29T07:51:30Z</time>
            </trkpt>
            <trkpt lon="99.373431" lat="13.994679">
                <ele>189.000000</ele>
                <time>2018-09-29T07:51:41Z</time>
            </trkpt>
            <trkpt lon="99.373572" lat="13.994543">
                <ele>190.000000</ele>
                <time>2018-09-29T07:51:54Z</time>
            </trkpt>
            <trkpt lon="99.373622" lat="13.994417">
                <ele>191.200000</ele>
                <time>2018-09-29T07:52:04Z</time>
            </trkpt>
            <trkpt lon="99.373644" lat="13.994284">
                <ele>192.400000</ele>
                <time>2018-09-29T07:52:13Z</time>
            </trkpt>
            <trkpt lon="99.373659" lat="13.994167">
                <ele>193.600000</ele>
                <time>2018-09-29T07:52:21Z</time>
            </trkpt>
            <trkpt lon="99.373703" lat="13.993999">
                <ele>194.600000</ele>
                <time>2018-09-29T07:52:33Z</time>
            </trkpt>
            <trkpt lon="99.373817" lat="13.993899">
                <ele>195.800000</ele>
                <time>2018-09-29T07:52:44Z</time>
            </trkpt>
            <trkpt lon="99.373862" lat="13.993873">
                <ele>196.200000</ele>
                <time>2018-09-29T07:52:48Z</time>
            </trkpt>
            <trkpt lon="99.373944" lat="13.993829">
                <ele>197.000000</ele>
                <time>2018-09-29T07:52:54Z</time>
            </trkpt>
            <trkpt lon="99.374038" lat="13.993774">
                <ele>198.200000</ele>
                <time>2018-09-29T07:53:02Z</time>
            </trkpt>
            <trkpt lon="99.374129" lat="13.993732">
                <ele>199.400000</ele>
                <time>2018-09-29T07:53:09Z</time>
            </trkpt>
            <trkpt lon="99.374178" lat="13.993723">
                <ele>199.800000</ele>
                <time>2018-09-29T07:53:13Z</time>
            </trkpt>
            <trkpt lon="99.374188" lat="13.993720">
                <ele>200.000000</ele>
                <time>2018-09-29T07:53:14Z</time>
            </trkpt>
            <trkpt lon="99.374198" lat="13.993717">
                <ele>200.000000</ele>
                <time>2018-09-29T07:53:15Z</time>
            </trkpt>
            <trkpt lon="99.374207" lat="13.993717">
                <ele>200.400000</ele>
                <time>2018-09-29T07:53:16Z</time>
            </trkpt>
            <trkpt lon="99.374218" lat="13.993719">
                <ele>200.400000</ele>
                <time>2018-09-29T07:53:17Z</time>
            </trkpt>
            <trkpt lon="99.374242" lat="13.993725">
                <ele>200.600000</ele>
                <time>2018-09-29T07:53:19Z</time>
            </trkpt>
            <trkpt lon="99.374262" lat="13.993732">
                <ele>200.800000</ele>
                <time>2018-09-29T07:53:21Z</time>
            </trkpt>
            <trkpt lon="99.374282" lat="13.993737">
                <ele>200.800000</ele>
                <time>2018-09-29T07:53:23Z</time>
            </trkpt>
            <trkpt lon="99.374482" lat="13.993831">
                <ele>201.600000</ele>
                <time>2018-09-29T07:53:37Z</time>
            </trkpt>
            <trkpt lon="99.374497" lat="13.993836">
                <ele>201.800000</ele>
                <time>2018-09-29T07:53:38Z</time>
            </trkpt>
            <trkpt lon="99.374567" lat="13.993860">
                <ele>201.800000</ele>
                <time>2018-09-29T07:53:42Z</time>
            </trkpt>
            <trkpt lon="99.375102" lat="13.994035">
                <ele>202.200000</ele>
                <time>2018-09-29T07:54:07Z</time>
            </trkpt>
            <trkpt lon="99.375401" lat="13.994146">
                <ele>203.000000</ele>
                <time>2018-09-29T07:54:22Z</time>
            </trkpt>
            <trkpt lon="99.375416" lat="13.994154">
                <ele>203.000000</ele>
                <time>2018-09-29T07:54:23Z</time>
            </trkpt>
            <trkpt lon="99.375650" lat="13.994272">
                <ele>204.200000</ele>
                <time>2018-09-29T07:54:36Z</time>
            </trkpt>
            <trkpt lon="99.375788" lat="13.994323">
                <ele>205.200000</ele>
                <time>2018-09-29T07:54:43Z</time>
            </trkpt>
            <trkpt lon="99.376038" lat="13.994502">
                <ele>206.000000</ele>
                <time>2018-09-29T07:54:55Z</time>
            </trkpt>
            <trkpt lon="99.375867" lat="13.994709">
                <ele>206.000000</ele>
                <time>2018-09-29T07:55:00Z</time>
            </trkpt>
            <trkpt lon="99.375574" lat="13.995014">
                <ele>203.800000</ele>
                <time>2018-09-29T07:55:06Z</time>
            </trkpt>
            <trkpt lon="99.375461" lat="13.995109">
                <ele>202.600000</ele>
                <time>2018-09-29T07:55:08Z</time>
            </trkpt>
            <trkpt lon="99.375335" lat="13.995176">
                <ele>201.200000</ele>
                <time>2018-09-29T07:55:10Z</time>
            </trkpt>
            <trkpt lon="99.375267" lat="13.995203">
                <ele>200.600000</ele>
                <time>2018-09-29T07:55:11Z</time>
            </trkpt>
            <trkpt lon="99.375202" lat="13.995227">
                <ele>200.000000</ele>
                <time>2018-09-29T07:55:12Z</time>
            </trkpt>
            <trkpt lon="99.375073" lat="13.995275">
                <ele>198.400000</ele>
                <time>2018-09-29T07:55:14Z</time>
            </trkpt>
            <trkpt lon="99.374948" lat="13.995330">
                <ele>197.400000</ele>
                <time>2018-09-29T07:55:16Z</time>
            </trkpt>
            <trkpt lon="99.374895" lat="13.995365">
                <ele>197.000000</ele>
                <time>2018-09-29T07:55:17Z</time>
            </trkpt>
            <trkpt lon="99.374810" lat="13.995457">
                <ele>196.000000</ele>
                <time>2018-09-29T07:55:19Z</time>
            </trkpt>
            <trkpt lon="99.374749" lat="13.995560">
                <ele>195.200000</ele>
                <time>2018-09-29T07:55:21Z</time>
            </trkpt>
            <trkpt lon="99.374719" lat="13.995612">
                <ele>194.800000</ele>
                <time>2018-09-29T07:55:22Z</time>
            </trkpt>
            <trkpt lon="99.374608" lat="13.995763">
                <ele>193.400000</ele>
                <time>2018-09-29T07:55:25Z</time>
            </trkpt>
            <trkpt lon="99.374510" lat="13.995860">
                <ele>192.000000</ele>
                <time>2018-09-29T07:55:28Z</time>
            </trkpt>
            <trkpt lon="99.374493" lat="13.995882">
                <ele>191.600000</ele>
                <time>2018-09-29T07:55:29Z</time>
            </trkpt>
            <trkpt lon="99.374492" lat="13.995949">
                <ele>190.800000</ele>
                <time>2018-09-29T07:55:31Z</time>
            </trkpt>
            <trkpt lon="99.374538" lat="13.996059">
                <ele>189.800000</ele>
                <time>2018-09-29T07:55:34Z</time>
            </trkpt>
            <trkpt lon="99.374606" lat="13.996150">
                <ele>189.200000</ele>
                <time>2018-09-29T07:55:38Z</time>
            </trkpt>
            <trkpt lon="99.374939" lat="13.996491">
                <ele>190.800000</ele>
                <time>2018-09-29T07:56:00Z</time>
            </trkpt>
            <trkpt lon="99.375155" lat="13.996910">
                <ele>191.800000</ele>
                <time>2018-09-29T07:56:14Z</time>
            </trkpt>
            <trkpt lon="99.375256" lat="13.997437">
                <ele>191.600000</ele>
                <time>2018-09-29T07:56:24Z</time>
            </trkpt>
            <trkpt lon="99.375256" lat="13.997665">
                <ele>191.000000</ele>
                <time>2018-09-29T07:56:28Z</time>
            </trkpt>
            <trkpt lon="99.375196" lat="13.997886">
                <ele>189.800000</ele>
                <time>2018-09-29T07:56:32Z</time>
            </trkpt>
            <trkpt lon="99.375124" lat="13.998370">
                <ele>189.000000</ele>
                <time>2018-09-29T07:56:39Z</time>
            </trkpt>
            <trkpt lon="99.375102" lat="13.998518">
                <ele>187.800000</ele>
                <time>2018-09-29T07:56:41Z</time>
            </trkpt>
            <trkpt lon="99.375064" lat="13.998654">
                <ele>186.600000</ele>
                <time>2018-09-29T07:56:43Z</time>
            </trkpt>
            <trkpt lon="99.375005" lat="13.998858">
                <ele>185.200000</ele>
                <time>2018-09-29T07:56:46Z</time>
            </trkpt>
            <trkpt lon="99.374917" lat="13.999146">
                <ele>184.200000</ele>
                <time>2018-09-29T07:56:50Z</time>
            </trkpt>
            <trkpt lon="99.374713" lat="13.999646">
                <ele>182.800000</ele>
                <time>2018-09-29T07:56:57Z</time>
            </trkpt>
            <trkpt lon="99.374605" lat="13.999832">
                <ele>182.400000</ele>
                <time>2018-09-29T07:57:00Z</time>
            </trkpt>
            <trkpt lon="99.374699" lat="13.999955">
                <ele>182.200000</ele>
                <time>2018-09-29T07:57:09Z</time>
            </trkpt>
            <trkpt lon="99.374770" lat="14.000002">
                <ele>182.000000</ele>
                <time>2018-09-29T07:57:11Z</time>
            </trkpt>
            <trkpt lon="99.374842" lat="14.000100">
                <ele>181.800000</ele>
                <time>2018-09-29T07:57:14Z</time>
            </trkpt>
            <trkpt lon="99.374858" lat="14.000128">
                <ele>181.800000</ele>
                <time>2018-09-29T07:57:15Z</time>
            </trkpt>
            <trkpt lon="99.375120" lat="14.000607">
                <ele>181.800000</ele>
                <time>2018-09-29T07:57:32Z</time>
            </trkpt>
            <trkpt lon="99.375233" lat="14.000763">
                <ele>182.200000</ele>
                <time>2018-09-29T07:57:38Z</time>
            </trkpt>
            <trkpt lon="99.375484" lat="14.000709">
                <ele>183.000000</ele>
                <time>2018-09-29T07:57:48Z</time>
            </trkpt>
            <trkpt lon="99.375677" lat="14.000668">
                <ele>184.000000</ele>
                <time>2018-09-29T07:57:57Z</time>
            </trkpt>
            <trkpt lon="99.375872" lat="14.000638">
                <ele>185.200000</ele>
                <time>2018-09-29T07:58:05Z</time>
            </trkpt>
            <trkpt lon="99.376371" lat="14.000539">
                <ele>186.400000</ele>
                <time>2018-09-29T07:58:22Z</time>
            </trkpt>
            <trkpt lon="99.376644" lat="14.000477">
                <ele>187.400000</ele>
                <time>2018-09-29T07:58:31Z</time>
            </trkpt>
            <trkpt lon="99.376954" lat="14.000432">
                <ele>188.400000</ele>
                <time>2018-09-29T07:58:41Z</time>
            </trkpt>
            <trkpt lon="99.377164" lat="14.000385">
                <ele>189.600000</ele>
                <time>2018-09-29T07:58:49Z</time>
            </trkpt>
            <trkpt lon="99.377367" lat="14.000338">
                <ele>190.800000</ele>
                <time>2018-09-29T07:58:57Z</time>
            </trkpt>
            <trkpt lon="99.377591" lat="14.000297">
                <ele>191.800000</ele>
                <time>2018-09-29T07:59:06Z</time>
            </trkpt>
            <trkpt lon="99.377823" lat="14.000257">
                <ele>192.600000</ele>
                <time>2018-09-29T07:59:15Z</time>
            </trkpt>
            <trkpt lon="99.377900" lat="14.000242">
                <ele>193.000000</ele>
                <time>2018-09-29T07:59:18Z</time>
            </trkpt>
            <trkpt lon="99.378155" lat="14.000197">
                <ele>194.000000</ele>
                <time>2018-09-29T07:59:27Z</time>
            </trkpt>
            <trkpt lon="99.378210" lat="14.000255">
                <ele>194.200000</ele>
                <time>2018-09-29T07:59:30Z</time>
            </trkpt>
            <trkpt lon="99.378223" lat="14.000305">
                <ele>194.400000</ele>
                <time>2018-09-29T07:59:32Z</time>
            </trkpt>
            <trkpt lon="99.378318" lat="14.000743">
                <ele>195.000000</ele>
                <time>2018-09-29T07:59:43Z</time>
            </trkpt>
            <trkpt lon="99.378811" lat="14.000517">
                <ele>194.600000</ele>
                <time>2018-09-29T08:00:00Z</time>
            </trkpt>
            <trkpt lon="99.379027" lat="14.000455">
                <ele>195.400000</ele>
                <time>2018-09-29T08:00:08Z</time>
            </trkpt>
            <trkpt lon="99.379103" lat="14.000436">
                <ele>196.800000</ele>
                <time>2018-09-29T08:00:11Z</time>
            </trkpt>
            <trkpt lon="99.379322" lat="14.000381">
                <ele>197.800000</ele>
                <time>2018-09-29T08:00:20Z</time>
            </trkpt>
            <trkpt lon="99.379641" lat="14.000329">
                <ele>198.800000</ele>
                <time>2018-09-29T08:00:35Z</time>
            </trkpt>
            <trkpt lon="99.379889" lat="14.000344">
                <ele>200.200000</ele>
                <time>2018-09-29T08:00:47Z</time>
            </trkpt>
            <trkpt lon="99.380291" lat="14.000395">
                <ele>201.200000</ele>
                <time>2018-09-29T08:01:06Z</time>
            </trkpt>
            <trkpt lon="99.380669" lat="14.000363">
                <ele>202.000000</ele>
                <time>2018-09-29T08:01:22Z</time>
            </trkpt>
            <trkpt lon="99.380686" lat="14.000316">
                <ele>202.000000</ele>
                <time>2018-09-29T08:01:26Z</time>
            </trkpt>
            <trkpt lon="99.380691" lat="14.000259">
                <ele>202.200000</ele>
                <time>2018-09-29T08:01:31Z</time>
            </trkpt>
            <trkpt lon="99.380701" lat="14.000236">
                <ele>202.400000</ele>
                <time>2018-09-29T08:01:33Z</time>
            </trkpt>
            <trkpt lon="99.380750" lat="14.000131">
                <ele>203.400000</ele>
                <time>2018-09-29T08:01:42Z</time>
            </trkpt>
            <trkpt lon="99.380838" lat="13.999954">
                <ele>204.600000</ele>
                <time>2018-09-29T08:01:56Z</time>
            </trkpt>
            <trkpt lon="99.380998" lat="13.999463">
                <ele>206.400000</ele>
                <time>2018-09-29T08:02:29Z</time>
            </trkpt>
            <trkpt lon="99.381026" lat="13.999325">
                <ele>207.200000</ele>
                <time>2018-09-29T08:02:39Z</time>
            </trkpt>
            <trkpt lon="99.381015" lat="13.999282">
                <ele>207.600000</ele>
                <time>2018-09-29T08:02:42Z</time>
            </trkpt>
            <trkpt lon="99.381082" lat="13.998949">
                <ele>208.800000</ele>
                <time>2018-09-29T08:03:01Z</time>
            </trkpt>
            <trkpt lon="99.381110" lat="13.998851">
                <ele>210.000000</ele>
                <time>2018-09-29T08:03:09Z</time>
            </trkpt>
            <trkpt lon="99.381141" lat="13.998679">
                <ele>211.200000</ele>
                <time>2018-09-29T08:03:22Z</time>
            </trkpt>
            <trkpt lon="99.381071" lat="13.998558">
                <ele>212.600000</ele>
                <time>2018-09-29T08:03:34Z</time>
            </trkpt>
            <trkpt lon="99.381044" lat="13.998523">
                <ele>213.800000</ele>
                <time>2018-09-29T08:03:39Z</time>
            </trkpt>
            <trkpt lon="99.381014" lat="13.998468">
                <ele>215.000000</ele>
                <time>2018-09-29T08:03:45Z</time>
            </trkpt>
            <trkpt lon="99.381019" lat="13.998428">
                <ele>215.400000</ele>
                <time>2018-09-29T08:03:49Z</time>
            </trkpt>
            <trkpt lon="99.381021" lat="13.998386">
                <ele>216.000000</ele>
                <time>2018-09-29T08:03:53Z</time>
            </trkpt>
            <trkpt lon="99.381040" lat="13.998286">
                <ele>217.000000</ele>
                <time>2018-09-29T08:04:03Z</time>
            </trkpt>
            <trkpt lon="99.381044" lat="13.998269">
                <ele>217.200000</ele>
                <time>2018-09-29T08:04:05Z</time>
            </trkpt>
            <trkpt lon="99.381046" lat="13.998191">
                <ele>218.200000</ele>
                <time>2018-09-29T08:04:14Z</time>
            </trkpt>
            <trkpt lon="99.381036" lat="13.998088">
                <ele>219.400000</ele>
                <time>2018-09-29T08:04:26Z</time>
            </trkpt>
            <trkpt lon="99.381036" lat="13.998062">
                <ele>219.600000</ele>
                <time>2018-09-29T08:04:29Z</time>
            </trkpt>
            <trkpt lon="99.381039" lat="13.997967">
                <ele>220.400000</ele>
                <time>2018-09-29T08:04:38Z</time>
            </trkpt>
            <trkpt lon="99.381040" lat="13.997951">
                <ele>220.600000</ele>
                <time>2018-09-29T08:04:40Z</time>
            </trkpt>
            <trkpt lon="99.381024" lat="13.997867">
                <ele>221.200000</ele>
                <time>2018-09-29T08:04:48Z</time>
            </trkpt>
            <trkpt lon="99.381017" lat="13.997862">
                <ele>221.200000</ele>
                <time>2018-09-29T08:04:49Z</time>
            </trkpt>
            <trkpt lon="99.380995" lat="13.997849">
                <ele>221.600000</ele>
                <time>2018-09-29T08:04:51Z</time>
            </trkpt>
            <trkpt lon="99.380920" lat="13.997811">
                <ele>222.400000</ele>
                <time>2018-09-29T08:04:56Z</time>
            </trkpt>
            <trkpt lon="99.380687" lat="13.997765">
                <ele>222.600000</ele>
                <time>2018-09-29T08:05:07Z</time>
            </trkpt>
            <trkpt lon="99.380634" lat="13.997736">
                <ele>222.600000</ele>
                <time>2018-09-29T08:05:20Z</time>
            </trkpt>
            <trkpt lon="99.380628" lat="13.997729">
                <ele>222.800000</ele>
                <time>2018-09-29T08:05:22Z</time>
            </trkpt>
            <trkpt lon="99.380610" lat="13.997702">
                <ele>223.800000</ele>
                <time>2018-09-29T08:05:28Z</time>
            </trkpt>
            <trkpt lon="99.380604" lat="13.997696">
                <ele>224.400000</ele>
                <time>2018-09-29T08:05:30Z</time>
            </trkpt>
            <trkpt lon="99.380596" lat="13.997689">
                <ele>224.800000</ele>
                <time>2018-09-29T08:05:33Z</time>
            </trkpt>
            <trkpt lon="99.380593" lat="13.997686">
                <ele>225.000000</ele>
                <time>2018-09-29T08:05:34Z</time>
            </trkpt>
            <trkpt lon="99.380580" lat="13.997652">
                <ele>225.800000</ele>
                <time>2018-09-29T08:05:42Z</time>
            </trkpt>
            <trkpt lon="99.380573" lat="13.997634">
                <ele>226.200000</ele>
                <time>2018-09-29T08:05:45Z</time>
            </trkpt>
            <trkpt lon="99.380569" lat="13.997628">
                <ele>226.400000</ele>
                <time>2018-09-29T08:05:46Z</time>
            </trkpt>
            <trkpt lon="99.380564" lat="13.997597">
                <ele>226.400000</ele>
                <time>2018-09-29T08:05:51Z</time>
            </trkpt>
            <trkpt lon="99.380629" lat="13.997446">
                <ele>226.000000</ele>
                <time>2018-09-29T08:06:10Z</time>
            </trkpt>
            <trkpt lon="99.380628" lat="13.997441">
                <ele>226.000000</ele>
                <time>2018-09-29T08:06:11Z</time>
            </trkpt>
            <trkpt lon="99.380653" lat="13.997358">
                <ele>227.000000</ele>
                <time>2018-09-29T08:06:20Z</time>
            </trkpt>
            <trkpt lon="99.380694" lat="13.997327">
                <ele>227.800000</ele>
                <time>2018-09-29T08:06:30Z</time>
            </trkpt>
            <trkpt lon="99.380715" lat="13.997300">
                <ele>228.200000</ele>
                <time>2018-09-29T08:06:35Z</time>
            </trkpt>
            <trkpt lon="99.380719" lat="13.997284">
                <ele>228.200000</ele>
                <time>2018-09-29T08:06:37Z</time>
            </trkpt>
            <trkpt lon="99.380731" lat="13.997219">
                <ele>228.800000</ele>
                <time>2018-09-29T08:06:45Z</time>
            </trkpt>
            <trkpt lon="99.380752" lat="13.997144">
                <ele>229.800000</ele>
                <time>2018-09-29T08:06:54Z</time>
            </trkpt>
            <trkpt lon="99.380757" lat="13.997137">
                <ele>230.200000</ele>
                <time>2018-09-29T08:06:55Z</time>
            </trkpt>
            <trkpt lon="99.380779" lat="13.997076">
                <ele>230.800000</ele>
                <time>2018-09-29T08:07:04Z</time>
            </trkpt>
            <trkpt lon="99.380780" lat="13.997071">
                <ele>230.800000</ele>
                <time>2018-09-29T08:07:05Z</time>
            </trkpt>
            <trkpt lon="99.380783" lat="13.997067">
                <ele>231.000000</ele>
                <time>2018-09-29T08:07:06Z</time>
            </trkpt>
            <trkpt lon="99.380783" lat="13.997056">
                <ele>231.000000</ele>
                <time>2018-09-29T08:07:08Z</time>
            </trkpt>
            <trkpt lon="99.380784" lat="13.997040">
                <ele>231.200000</ele>
                <time>2018-09-29T08:07:10Z</time>
            </trkpt>
            <trkpt lon="99.380813" lat="13.996918">
                <ele>232.200000</ele>
                <time>2018-09-29T08:07:26Z</time>
            </trkpt>
            <trkpt lon="99.380823" lat="13.996895">
                <ele>232.200000</ele>
                <time>2018-09-29T08:07:30Z</time>
            </trkpt>
            <trkpt lon="99.380859" lat="13.996840">
                <ele>232.400000</ele>
                <time>2018-09-29T08:07:39Z</time>
            </trkpt>
            <trkpt lon="99.380892" lat="13.996702">
                <ele>233.400000</ele>
                <time>2018-09-29T08:07:57Z</time>
            </trkpt>
            <trkpt lon="99.380925" lat="13.996653">
                <ele>234.600000</ele>
                <time>2018-09-29T08:08:05Z</time>
            </trkpt>
            <trkpt lon="99.380970" lat="13.996576">
                <ele>235.800000</ele>
                <time>2018-09-29T08:08:14Z</time>
            </trkpt>
            <trkpt lon="99.380975" lat="13.996560">
                <ele>236.200000</ele>
                <time>2018-09-29T08:08:16Z</time>
            </trkpt>
            <trkpt lon="99.380985" lat="13.996545">
                <ele>236.400000</ele>
                <time>2018-09-29T08:08:18Z</time>
            </trkpt>
            <trkpt lon="99.381002" lat="13.996524">
                <ele>236.600000</ele>
                <time>2018-09-29T08:08:21Z</time>
            </trkpt>
            <trkpt lon="99.381013" lat="13.996510">
                <ele>236.800000</ele>
                <time>2018-09-29T08:08:23Z</time>
            </trkpt>
            <trkpt lon="99.381018" lat="13.996503">
                <ele>237.000000</ele>
                <time>2018-09-29T08:08:24Z</time>
            </trkpt>
            <trkpt lon="99.381025" lat="13.996495">
                <ele>237.000000</ele>
                <time>2018-09-29T08:08:26Z</time>
            </trkpt>
            <trkpt lon="99.381053" lat="13.996458">
                <ele>237.800000</ele>
                <time>2018-09-29T08:08:32Z</time>
            </trkpt>
            <trkpt lon="99.381064" lat="13.996448">
                <ele>238.000000</ele>
                <time>2018-09-29T08:08:36Z</time>
            </trkpt>
            <trkpt lon="99.381316" lat="13.996048">
                <ele>238.800000</ele>
                <time>2018-09-29T08:09:09Z</time>
            </trkpt>
            <trkpt lon="99.381344" lat="13.995998">
                <ele>238.800000</ele>
                <time>2018-09-29T08:09:13Z</time>
            </trkpt>
            <trkpt lon="99.381416" lat="13.995903">
                <ele>239.000000</ele>
                <time>2018-09-29T08:09:21Z</time>
            </trkpt>
            <trkpt lon="99.381493" lat="13.995884">
                <ele>239.200000</ele>
                <time>2018-09-29T08:09:26Z</time>
            </trkpt>
            <trkpt lon="99.381566" lat="13.995868">
                <ele>239.400000</ele>
                <time>2018-09-29T08:09:31Z</time>
            </trkpt>
            <trkpt lon="99.381629" lat="13.995888">
                <ele>239.400000</ele>
                <time>2018-09-29T08:09:35Z</time>
            </trkpt>
            <trkpt lon="99.381659" lat="13.995906">
                <ele>239.800000</ele>
                <time>2018-09-29T08:09:37Z</time>
            </trkpt>
            <trkpt lon="99.381810" lat="13.995977">
                <ele>240.000000</ele>
                <time>2018-09-29T08:09:47Z</time>
            </trkpt>
            <trkpt lon="99.381843" lat="13.995980">
                <ele>240.000000</ele>
                <time>2018-09-29T08:09:49Z</time>
            </trkpt>
            <trkpt lon="99.381874" lat="13.995988">
                <ele>240.200000</ele>
                <time>2018-09-29T08:09:51Z</time>
            </trkpt>
            <trkpt lon="99.381888" lat="13.995991">
                <ele>240.200000</ele>
                <time>2018-09-29T08:09:52Z</time>
            </trkpt>
            <trkpt lon="99.381922" lat="13.996004">
                <ele>240.200000</ele>
                <time>2018-09-29T08:09:55Z</time>
            </trkpt>
            <trkpt lon="99.381932" lat="13.996008">
                <ele>240.200000</ele>
                <time>2018-09-29T08:09:56Z</time>
            </trkpt>
            <trkpt lon="99.381943" lat="13.996012">
                <ele>240.200000</ele>
                <time>2018-09-29T08:09:57Z</time>
            </trkpt>
            <trkpt lon="99.382127" lat="13.996093">
                <ele>242.000000</ele>
                <time>2018-09-29T08:10:16Z</time>
            </trkpt>
            <trkpt lon="99.382169" lat="13.996106">
                <ele>242.000000</ele>
                <time>2018-09-29T08:10:19Z</time>
            </trkpt>
            <trkpt lon="99.382195" lat="13.996113">
                <ele>242.200000</ele>
                <time>2018-09-29T08:10:21Z</time>
            </trkpt>
            <trkpt lon="99.382305" lat="13.996147">
                <ele>242.800000</ele>
                <time>2018-09-29T08:10:29Z</time>
            </trkpt>
            <trkpt lon="99.382330" lat="13.996154">
                <ele>243.000000</ele>
                <time>2018-09-29T08:10:31Z</time>
            </trkpt>
            <trkpt lon="99.382396" lat="13.996181">
                <ele>243.800000</ele>
                <time>2018-09-29T08:10:37Z</time>
            </trkpt>
            <trkpt lon="99.382396" lat="13.996246">
                <ele>244.200000</ele>
                <time>2018-09-29T08:10:41Z</time>
            </trkpt>
            <trkpt lon="99.382359" lat="13.996410">
                <ele>244.200000</ele>
                <time>2018-09-29T08:10:46Z</time>
            </trkpt>
            <trkpt lon="99.382176" lat="13.996822">
                <ele>242.800000</ele>
                <time>2018-09-29T08:10:54Z</time>
            </trkpt>
            <trkpt lon="99.382152" lat="13.996874">
                <ele>242.400000</ele>
                <time>2018-09-29T08:10:55Z</time>
            </trkpt>
            <trkpt lon="99.382130" lat="13.996927">
                <ele>242.000000</ele>
                <time>2018-09-29T08:10:56Z</time>
            </trkpt>
            <trkpt lon="99.382064" lat="13.997085">
                <ele>240.400000</ele>
                <time>2018-09-29T08:10:59Z</time>
            </trkpt>
            <trkpt lon="99.382019" lat="13.997190">
                <ele>240.000000</ele>
                <time>2018-09-29T08:11:01Z</time>
            </trkpt>
            <trkpt lon="99.381962" lat="13.997296">
                <ele>239.400000</ele>
                <time>2018-09-29T08:11:03Z</time>
            </trkpt>
            <trkpt lon="99.381936" lat="13.997353">
                <ele>239.200000</ele>
                <time>2018-09-29T08:11:04Z</time>
            </trkpt>
            <trkpt lon="99.381897" lat="13.997469">
                <ele>239.000000</ele>
                <time>2018-09-29T08:11:06Z</time>
            </trkpt>
            <trkpt lon="99.381839" lat="13.997590">
                <ele>237.600000</ele>
                <time>2018-09-29T08:11:08Z</time>
            </trkpt>
            <trkpt lon="99.381752" lat="13.997746">
                <ele>236.000000</ele>
                <time>2018-09-29T08:11:11Z</time>
            </trkpt>
            <trkpt lon="99.381688" lat="13.997857">
                <ele>234.800000</ele>
                <time>2018-09-29T08:11:13Z</time>
            </trkpt>
            <trkpt lon="99.381618" lat="13.997973">
                <ele>233.600000</ele>
                <time>2018-09-29T08:11:15Z</time>
            </trkpt>
            <trkpt lon="99.381593" lat="13.998026">
                <ele>232.800000</ele>
                <time>2018-09-29T08:11:16Z</time>
            </trkpt>
            <trkpt lon="99.381574" lat="13.998072">
                <ele>231.800000</ele>
                <time>2018-09-29T08:11:17Z</time>
            </trkpt>
            <trkpt lon="99.381562" lat="13.998108">
                <ele>230.800000</ele>
                <time>2018-09-29T08:11:18Z</time>
            </trkpt>
            <trkpt lon="99.381567" lat="13.998137">
                <ele>229.600000</ele>
                <time>2018-09-29T08:11:19Z</time>
            </trkpt>
            <trkpt lon="99.381588" lat="13.998157">
                <ele>228.600000</ele>
                <time>2018-09-29T08:11:20Z</time>
            </trkpt>
            <trkpt lon="99.381653" lat="13.998167">
                <ele>226.800000</ele>
                <time>2018-09-29T08:11:22Z</time>
            </trkpt>
            <trkpt lon="99.381738" lat="13.998178">
                <ele>225.400000</ele>
                <time>2018-09-29T08:11:24Z</time>
            </trkpt>
            <trkpt lon="99.381871" lat="13.998248">
                <ele>224.400000</ele>
                <time>2018-09-29T08:11:27Z</time>
            </trkpt>
            <trkpt lon="99.381916" lat="13.998286">
                <ele>224.000000</ele>
                <time>2018-09-29T08:11:28Z</time>
            </trkpt>
            <trkpt lon="99.382027" lat="13.998427">
                <ele>223.200000</ele>
                <time>2018-09-29T08:11:31Z</time>
            </trkpt>
            <trkpt lon="99.382060" lat="13.998478">
                <ele>222.800000</ele>
                <time>2018-09-29T08:11:32Z</time>
            </trkpt>
            <trkpt lon="99.382124" lat="13.998589">
                <ele>221.800000</ele>
                <time>2018-09-29T08:11:34Z</time>
            </trkpt>
            <trkpt lon="99.382200" lat="13.998685">
                <ele>220.200000</ele>
                <time>2018-09-29T08:11:36Z</time>
            </trkpt>
            <trkpt lon="99.382291" lat="13.998762">
                <ele>219.000000</ele>
                <time>2018-09-29T08:11:38Z</time>
            </trkpt>
            <trkpt lon="99.382493" lat="13.998875">
                <ele>217.800000</ele>
                <time>2018-09-29T08:11:42Z</time>
            </trkpt>
            <trkpt lon="99.382684" lat="13.998929">
                <ele>216.600000</ele>
                <time>2018-09-29T08:11:47Z</time>
            </trkpt>
            <trkpt lon="99.383014" lat="13.999113">
                <ele>217.200000</ele>
                <time>2018-09-29T08:11:58Z</time>
            </trkpt>
            <trkpt lon="99.383093" lat="13.999177">
                <ele>217.200000</ele>
                <time>2018-09-29T08:12:00Z</time>
            </trkpt>
            <trkpt lon="99.383219" lat="13.999337">
                <ele>217.200000</ele>
                <time>2018-09-29T08:12:03Z</time>
            </trkpt>
            <trkpt lon="99.383324" lat="13.999428">
                <ele>217.200000</ele>
                <time>2018-09-29T08:12:05Z</time>
            </trkpt>
            <trkpt lon="99.383526" lat="13.999529">
                <ele>215.600000</ele>
                <time>2018-09-29T08:12:09Z</time>
            </trkpt>
            <trkpt lon="99.383583" lat="13.999549">
                <ele>215.400000</ele>
                <time>2018-09-29T08:12:11Z</time>
            </trkpt>
            <trkpt lon="99.383703" lat="13.999525">
                <ele>217.000000</ele>
                <time>2018-09-29T08:13:40Z</time>
            </trkpt>
            <trkpt lon="99.383743" lat="13.999512">
                <ele>217.000000</ele>
                <time>2018-09-29T08:13:43Z</time>
            </trkpt>
            <trkpt lon="99.383801" lat="13.999490">
                <ele>217.600000</ele>
                <time>2018-09-29T08:13:47Z</time>
            </trkpt>
            <trkpt lon="99.383842" lat="13.999472">
                <ele>217.800000</ele>
                <time>2018-09-29T08:13:51Z</time>
            </trkpt>
            <trkpt lon="99.383886" lat="13.999447">
                <ele>218.200000</ele>
                <time>2018-09-29T08:13:55Z</time>
            </trkpt>
            <trkpt lon="99.383897" lat="13.999440">
                <ele>218.200000</ele>
                <time>2018-09-29T08:13:56Z</time>
            </trkpt>
            <trkpt lon="99.383963" lat="13.999391">
                <ele>219.000000</ele>
                <time>2018-09-29T08:14:03Z</time>
            </trkpt>
            <trkpt lon="99.383979" lat="13.999379">
                <ele>219.200000</ele>
                <time>2018-09-29T08:14:05Z</time>
            </trkpt>
            <trkpt lon="99.383994" lat="13.999366">
                <ele>219.600000</ele>
                <time>2018-09-29T08:14:07Z</time>
            </trkpt>
            <trkpt lon="99.384024" lat="13.999334">
                <ele>220.400000</ele>
                <time>2018-09-29T08:14:12Z</time>
            </trkpt>
            <trkpt lon="99.384035" lat="13.999318">
                <ele>220.800000</ele>
                <time>2018-09-29T08:14:14Z</time>
            </trkpt>
            <trkpt lon="99.384050" lat="13.999307">
                <ele>221.000000</ele>
                <time>2018-09-29T08:14:16Z</time>
            </trkpt>
            <trkpt lon="99.384090" lat="13.999280">
                <ele>221.400000</ele>
                <time>2018-09-29T08:14:20Z</time>
            </trkpt>
            <trkpt lon="99.384109" lat="13.999265">
                <ele>221.600000</ele>
                <time>2018-09-29T08:14:22Z</time>
            </trkpt>
            <trkpt lon="99.384181" lat="13.999171">
                <ele>222.800000</ele>
                <time>2018-09-29T08:14:32Z</time>
            </trkpt>
            <trkpt lon="99.384250" lat="13.999127">
                <ele>223.800000</ele>
                <time>2018-09-29T08:14:39Z</time>
            </trkpt>
            <trkpt lon="99.384262" lat="13.999126">
                <ele>224.000000</ele>
                <time>2018-09-29T08:14:40Z</time>
            </trkpt>
            <trkpt lon="99.384337" lat="13.999111">
                <ele>225.200000</ele>
                <time>2018-09-29T08:14:46Z</time>
            </trkpt>
            <trkpt lon="99.384348" lat="13.999107">
                <ele>225.200000</ele>
                <time>2018-09-29T08:14:47Z</time>
            </trkpt>
            <trkpt lon="99.384408" lat="13.999089">
                <ele>225.600000</ele>
                <time>2018-09-29T08:14:52Z</time>
            </trkpt>
            <trkpt lon="99.384419" lat="13.999084">
                <ele>225.600000</ele>
                <time>2018-09-29T08:14:53Z</time>
            </trkpt>
            <trkpt lon="99.384482" lat="13.999054">
                <ele>225.800000</ele>
                <time>2018-09-29T08:14:59Z</time>
            </trkpt>
            <trkpt lon="99.384514" lat="13.999037">
                <ele>226.200000</ele>
                <time>2018-09-29T08:15:03Z</time>
            </trkpt>
            <trkpt lon="99.384534" lat="13.999025">
                <ele>226.400000</ele>
                <time>2018-09-29T08:15:06Z</time>
            </trkpt>
            <trkpt lon="99.384611" lat="13.998974">
                <ele>227.800000</ele>
                <time>2018-09-29T08:15:37Z</time>
            </trkpt>
            <trkpt lon="99.385007" lat="13.998627">
                <ele>227.800000</ele>
                <time>2018-09-29T08:16:01Z</time>
            </trkpt>
            <trkpt lon="99.385565" lat="13.998469">
                <ele>227.800000</ele>
                <time>2018-09-29T08:16:19Z</time>
            </trkpt>
            <trkpt lon="99.385639" lat="13.998464">
                <ele>227.800000</ele>
                <time>2018-09-29T08:16:22Z</time>
            </trkpt>
            <trkpt lon="99.385648" lat="13.998418">
                <ele>227.800000</ele>
                <time>2018-09-29T08:16:26Z</time>
            </trkpt>
            <trkpt lon="99.385814" lat="13.998155">
                <ele>229.200000</ele>
                <time>2018-09-29T08:16:44Z</time>
            </trkpt>
            <trkpt lon="99.385892" lat="13.998040">
                <ele>230.600000</ele>
                <time>2018-09-29T08:16:52Z</time>
            </trkpt>
            <trkpt lon="99.386012" lat="13.997891">
                <ele>231.600000</ele>
                <time>2018-09-29T08:17:04Z</time>
            </trkpt>
            <trkpt lon="99.386110" lat="13.997736">
                <ele>232.800000</ele>
                <time>2018-09-29T08:17:16Z</time>
            </trkpt>
            <trkpt lon="99.386182" lat="13.997649">
                <ele>233.800000</ele>
                <time>2018-09-29T08:17:24Z</time>
            </trkpt>
            <trkpt lon="99.386207" lat="13.997623">
                <ele>234.000000</ele>
                <time>2018-09-29T08:17:27Z</time>
            </trkpt>
            <trkpt lon="99.386324" lat="13.997651">
                <ele>234.400000</ele>
                <time>2018-09-29T08:17:34Z</time>
            </trkpt>
            <trkpt lon="99.386875" lat="13.997857">
                <ele>233.600000</ele>
                <time>2018-09-29T08:17:51Z</time>
            </trkpt>
            <trkpt lon="99.386950" lat="13.997870">
                <ele>233.000000</ele>
                <time>2018-09-29T08:17:54Z</time>
            </trkpt>
            <trkpt lon="99.387417" lat="13.998047">
                <ele>232.600000</ele>
                <time>2018-09-29T08:18:12Z</time>
            </trkpt>
            <trkpt lon="99.387437" lat="13.998054">
                <ele>232.600000</ele>
                <time>2018-09-29T08:18:14Z</time>
            </trkpt>
            <trkpt lon="99.387444" lat="13.998051">
                <ele>232.600000</ele>
                <time>2018-09-29T08:18:15Z</time>
            </trkpt>
            <trkpt lon="99.387519" lat="13.997946">
                <ele>232.800000</ele>
                <time>2018-09-29T08:18:23Z</time>
            </trkpt>
            <trkpt lon="99.387533" lat="13.997887">
                <ele>233.800000</ele>
                <time>2018-09-29T08:18:50Z</time>
            </trkpt>
            <trkpt lon="99.387732" lat="13.997582">
                <ele>234.000000</ele>
                <time>2018-09-29T08:19:10Z</time>
            </trkpt>
            <trkpt lon="99.387873" lat="13.997290">
                <ele>235.400000</ele>
                <time>2018-09-29T08:19:26Z</time>
            </trkpt>
            <trkpt lon="99.387994" lat="13.997132">
                <ele>236.400000</ele>
                <time>2018-09-29T08:19:36Z</time>
            </trkpt>
            <trkpt lon="99.388180" lat="13.996915">
                <ele>237.400000</ele>
                <time>2018-09-29T08:19:50Z</time>
            </trkpt>
            <trkpt lon="99.388486" lat="13.996574">
                <ele>238.400000</ele>
                <time>2018-09-29T08:20:09Z</time>
            </trkpt>
            <trkpt lon="99.388691" lat="13.996372">
                <ele>238.600000</ele>
                <time>2018-09-29T08:20:21Z</time>
            </trkpt>
            <trkpt lon="99.388879" lat="13.996579">
                <ele>238.600000</ele>
                <time>2018-09-29T08:20:27Z</time>
            </trkpt>
            <trkpt lon="99.388977" lat="13.996673">
                <ele>238.600000</ele>
                <time>2018-09-29T08:20:29Z</time>
            </trkpt>
            <trkpt lon="99.389199" lat="13.996599">
                <ele>238.000000</ele>
                <time>2018-09-29T08:20:37Z</time>
            </trkpt>
            <trkpt lon="99.389603" lat="13.996224">
                <ele>239.200000</ele>
                <time>2018-09-29T08:20:55Z</time>
            </trkpt>
            <trkpt lon="99.389805" lat="13.996084">
                <ele>239.800000</ele>
                <time>2018-09-29T08:21:03Z</time>
            </trkpt>
            <trkpt lon="99.390046" lat="13.995911">
                <ele>240.800000</ele>
                <time>2018-09-29T08:21:13Z</time>
            </trkpt>
            <trkpt lon="99.390223" lat="13.995782">
                <ele>241.800000</ele>
                <time>2018-09-29T08:21:24Z</time>
            </trkpt>
            <trkpt lon="99.390222" lat="13.995766">
                <ele>241.800000</ele>
                <time>2018-09-29T08:21:25Z</time>
            </trkpt>
            <trkpt lon="99.390019" lat="13.995437">
                <ele>242.800000</ele>
                <time>2018-09-29T08:21:46Z</time>
            </trkpt>
            <trkpt lon="99.389999" lat="13.995401">
                <ele>243.000000</ele>
                <time>2018-09-29T08:21:48Z</time>
            </trkpt>
            <trkpt lon="99.389989" lat="13.995367">
                <ele>243.200000</ele>
                <time>2018-09-29T08:21:50Z</time>
            </trkpt>
            <trkpt lon="99.390019" lat="13.995292">
                <ele>243.400000</ele>
                <time>2018-09-29T08:21:54Z</time>
            </trkpt>
            <trkpt lon="99.390054" lat="13.995245">
                <ele>243.600000</ele>
                <time>2018-09-29T08:21:57Z</time>
            </trkpt>
            <trkpt lon="99.390108" lat="13.995188">
                <ele>244.200000</ele>
                <time>2018-09-29T08:22:02Z</time>
            </trkpt>
            <trkpt lon="99.390170" lat="13.995125">
                <ele>245.400000</ele>
                <time>2018-09-29T08:22:09Z</time>
            </trkpt>
            <trkpt lon="99.390255" lat="13.995065">
                <ele>246.600000</ele>
                <time>2018-09-29T08:22:17Z</time>
            </trkpt>
            <trkpt lon="99.390274" lat="13.995050">
                <ele>247.000000</ele>
                <time>2018-09-29T08:22:19Z</time>
            </trkpt>
            <trkpt lon="99.390372" lat="13.994991">
                <ele>247.800000</ele>
                <time>2018-09-29T08:22:28Z</time>
            </trkpt>
            <trkpt lon="99.390514" lat="13.994894">
                <ele>249.000000</ele>
                <time>2018-09-29T08:22:40Z</time>
            </trkpt>
            <trkpt lon="99.390567" lat="13.994874">
                <ele>249.600000</ele>
                <time>2018-09-29T08:22:44Z</time>
            </trkpt>
            <trkpt lon="99.390628" lat="13.994861">
                <ele>250.200000</ele>
                <time>2018-09-29T08:22:49Z</time>
            </trkpt>
            <trkpt lon="99.390727" lat="13.994812">
                <ele>251.400000</ele>
                <time>2018-09-29T08:23:00Z</time>
            </trkpt>
            <trkpt lon="99.390800" lat="13.994774">
                <ele>252.600000</ele>
                <time>2018-09-29T08:23:08Z</time>
            </trkpt>
            <trkpt lon="99.390815" lat="13.994765">
                <ele>252.800000</ele>
                <time>2018-09-29T08:23:10Z</time>
            </trkpt>
            <trkpt lon="99.390822" lat="13.994760">
                <ele>253.000000</ele>
                <time>2018-09-29T08:23:11Z</time>
            </trkpt>
            <trkpt lon="99.390849" lat="13.994743">
                <ele>253.400000</ele>
                <time>2018-09-29T08:23:14Z</time>
            </trkpt>
            <trkpt lon="99.390860" lat="13.994737">
                <ele>253.600000</ele>
                <time>2018-09-29T08:23:15Z</time>
            </trkpt>
            <trkpt lon="99.390880" lat="13.994728">
                <ele>253.800000</ele>
                <time>2018-09-29T08:23:17Z</time>
            </trkpt>
            <trkpt lon="99.390935" lat="13.994708">
                <ele>254.800000</ele>
                <time>2018-09-29T08:23:23Z</time>
            </trkpt>
            <trkpt lon="99.390976" lat="13.994712">
                <ele>255.400000</ele>
                <time>2018-09-29T08:23:27Z</time>
            </trkpt>
            <trkpt lon="99.391012" lat="13.994725">
                <ele>256.000000</ele>
                <time>2018-09-29T08:23:30Z</time>
            </trkpt>
            <trkpt lon="99.391347" lat="13.994934">
                <ele>256.400000</ele>
                <time>2018-09-29T08:23:52Z</time>
            </trkpt>
            <trkpt lon="99.391753" lat="13.995291">
                <ele>256.600000</ele>
                <time>2018-09-29T08:24:13Z</time>
            </trkpt>
            <trkpt lon="99.391848" lat="13.995458">
                <ele>256.400000</ele>
                <time>2018-09-29T08:24:18Z</time>
            </trkpt>
            <trkpt lon="99.391952" lat="13.995592">
                <ele>256.000000</ele>
                <time>2018-09-29T08:24:22Z</time>
            </trkpt>
            <trkpt lon="99.392009" lat="13.995691">
                <ele>255.400000</ele>
                <time>2018-09-29T08:24:25Z</time>
            </trkpt>
            <trkpt lon="99.392102" lat="13.995841">
                <ele>255.200000</ele>
                <time>2018-09-29T08:24:33Z</time>
            </trkpt>
            <trkpt lon="99.392196" lat="13.995815">
                <ele>256.200000</ele>
                <time>2018-09-29T08:24:38Z</time>
            </trkpt>
            <trkpt lon="99.392233" lat="13.995800">
                <ele>256.600000</ele>
                <time>2018-09-29T08:24:40Z</time>
            </trkpt>
            <trkpt lon="99.392756" lat="13.995725">
                <ele>257.200000</ele>
                <time>2018-09-29T08:24:59Z</time>
            </trkpt>
            <trkpt lon="99.393297" lat="13.995759">
                <ele>257.000000</ele>
                <time>2018-09-29T08:25:10Z</time>
            </trkpt>
            <trkpt lon="99.393953" lat="13.995781">
                <ele>255.400000</ele>
                <time>2018-09-29T08:25:18Z</time>
            </trkpt>
            <trkpt lon="99.394156" lat="13.995788">
                <ele>254.000000</ele>
                <time>2018-09-29T08:25:20Z</time>
            </trkpt>
            <trkpt lon="99.394375" lat="13.995784">
                <ele>252.400000</ele>
                <time>2018-09-29T08:25:22Z</time>
            </trkpt>
            <trkpt lon="99.394609" lat="13.995788">
                <ele>251.200000</ele>
                <time>2018-09-29T08:25:24Z</time>
            </trkpt>
            <trkpt lon="99.394859" lat="13.995792">
                <ele>249.800000</ele>
                <time>2018-09-29T08:25:26Z</time>
            </trkpt>
            <trkpt lon="99.395125" lat="13.995796">
                <ele>248.200000</ele>
                <time>2018-09-29T08:25:28Z</time>
            </trkpt>
            <trkpt lon="99.395400" lat="13.995796">
                <ele>246.400000</ele>
                <time>2018-09-29T08:25:30Z</time>
            </trkpt>
            <trkpt lon="99.395537" lat="13.995797">
                <ele>245.200000</ele>
                <time>2018-09-29T08:25:31Z</time>
            </trkpt>
            <trkpt lon="99.395669" lat="13.995799">
                <ele>243.600000</ele>
                <time>2018-09-29T08:25:32Z</time>
            </trkpt>
            <trkpt lon="99.395792" lat="13.995804">
                <ele>242.200000</ele>
                <time>2018-09-29T08:25:33Z</time>
            </trkpt>
            <trkpt lon="99.395904" lat="13.995808">
                <ele>241.000000</ele>
                <time>2018-09-29T08:25:34Z</time>
            </trkpt>
            <trkpt lon="99.396007" lat="13.995811">
                <ele>239.800000</ele>
                <time>2018-09-29T08:25:35Z</time>
            </trkpt>
            <trkpt lon="99.396098" lat="13.995810">
                <ele>238.600000</ele>
                <time>2018-09-29T08:25:36Z</time>
            </trkpt>
            <trkpt lon="99.396178" lat="13.995804">
                <ele>237.200000</ele>
                <time>2018-09-29T08:25:37Z</time>
            </trkpt>
            <trkpt lon="99.396248" lat="13.995793">
                <ele>235.400000</ele>
                <time>2018-09-29T08:25:38Z</time>
            </trkpt>
            <trkpt lon="99.396370" lat="13.995772">
                <ele>234.800000</ele>
                <time>2018-09-29T08:25:40Z</time>
            </trkpt>
            <trkpt lon="99.396461" lat="13.995763">
                <ele>234.600000</ele>
                <time>2018-09-29T08:25:43Z</time>
            </trkpt>
            <trkpt lon="99.396499" lat="13.995784">
                <ele>235.400000</ele>
                <time>2018-09-29T08:29:02Z</time>
            </trkpt>
            <trkpt lon="99.396702" lat="13.996095">
                <ele>235.200000</ele>
                <time>2018-09-29T08:29:11Z</time>
            </trkpt>
            <trkpt lon="99.396728" lat="13.996122">
                <ele>234.600000</ele>
                <time>2018-09-29T08:29:12Z</time>
            </trkpt>
            <trkpt lon="99.396765" lat="13.996178">
                <ele>233.600000</ele>
                <time>2018-09-29T08:29:14Z</time>
            </trkpt>
            <trkpt lon="99.397146" lat="13.996491">
                <ele>233.200000</ele>
                <time>2018-09-29T08:29:34Z</time>
            </trkpt>
            <trkpt lon="99.397543" lat="13.996889">
                <ele>233.400000</ele>
                <time>2018-09-29T08:29:50Z</time>
            </trkpt>
            <trkpt lon="99.397687" lat="13.996951">
                <ele>233.200000</ele>
                <time>2018-09-29T08:29:53Z</time>
            </trkpt>
            <trkpt lon="99.397965" lat="13.996919">
                <ele>232.800000</ele>
                <time>2018-09-29T08:29:58Z</time>
            </trkpt>
            <trkpt lon="99.398044" lat="13.996839">
                <ele>231.800000</ele>
                <time>2018-09-29T08:30:00Z</time>
            </trkpt>
            <trkpt lon="99.398186" lat="13.996735">
                <ele>230.600000</ele>
                <time>2018-09-29T08:30:03Z</time>
            </trkpt>
            <trkpt lon="99.398238" lat="13.996706">
                <ele>230.400000</ele>
                <time>2018-09-29T08:30:04Z</time>
            </trkpt>
            <trkpt lon="99.398348" lat="13.996651">
                <ele>230.000000</ele>
                <time>2018-09-29T08:30:06Z</time>
            </trkpt>
            <trkpt lon="99.398542" lat="13.996587">
                <ele>229.400000</ele>
                <time>2018-09-29T08:30:09Z</time>
            </trkpt>
            <trkpt lon="99.398688" lat="13.996466">
                <ele>228.600000</ele>
                <time>2018-09-29T08:30:12Z</time>
            </trkpt>
            <trkpt lon="99.398769" lat="13.996401">
                <ele>228.400000</ele>
                <time>2018-09-29T08:30:14Z</time>
            </trkpt>
            <trkpt lon="99.398814" lat="13.996383">
                <ele>228.000000</ele>
                <time>2018-09-29T08:30:15Z</time>
            </trkpt>
            <trkpt lon="99.399147" lat="13.996349">
                <ele>226.800000</ele>
                <time>2018-09-29T08:30:20Z</time>
            </trkpt>
            <trkpt lon="99.399206" lat="13.996341">
                <ele>226.400000</ele>
                <time>2018-09-29T08:30:21Z</time>
            </trkpt>
            <trkpt lon="99.399326" lat="13.996327">
                <ele>225.000000</ele>
                <time>2018-09-29T08:30:24Z</time>
            </trkpt>
            <trkpt lon="99.399391" lat="13.996323">
                <ele>223.800000</ele>
                <time>2018-09-29T08:30:26Z</time>
            </trkpt>
            <trkpt lon="99.399519" lat="13.996303">
                <ele>223.200000</ele>
                <time>2018-09-29T08:30:29Z</time>
            </trkpt>
            <trkpt lon="99.399564" lat="13.996279">
                <ele>223.200000</ele>
                <time>2018-09-29T08:30:30Z</time>
            </trkpt>
            <trkpt lon="99.399655" lat="13.996226">
                <ele>222.800000</ele>
                <time>2018-09-29T08:30:32Z</time>
            </trkpt>
            <trkpt lon="99.399969" lat="13.996001">
                <ele>221.800000</ele>
                <time>2018-09-29T08:30:38Z</time>
            </trkpt>
            <trkpt lon="99.400192" lat="13.995847">
                <ele>220.600000</ele>
                <time>2018-09-29T08:30:43Z</time>
            </trkpt>
            <trkpt lon="99.400280" lat="13.995789">
                <ele>220.000000</ele>
                <time>2018-09-29T08:30:45Z</time>
            </trkpt>
            <trkpt lon="99.400495" lat="13.995707">
                <ele>219.400000</ele>
                <time>2018-09-29T08:30:49Z</time>
            </trkpt>
            <trkpt lon="99.400557" lat="13.995684">
                <ele>219.400000</ele>
                <time>2018-09-29T08:30:50Z</time>
            </trkpt>
            <trkpt lon="99.400898" lat="13.995632">
                <ele>218.800000</ele>
                <time>2018-09-29T08:30:55Z</time>
            </trkpt>
            <trkpt lon="99.401110" lat="13.995641">
                <ele>217.800000</ele>
                <time>2018-09-29T08:30:58Z</time>
            </trkpt>
            <trkpt lon="99.401216" lat="13.995653">
                <ele>216.600000</ele>
                <time>2018-09-29T08:31:00Z</time>
            </trkpt>
            <trkpt lon="99.401300" lat="13.995678">
                <ele>216.400000</ele>
                <time>2018-09-29T08:31:02Z</time>
            </trkpt>
            <trkpt lon="99.401382" lat="13.995704">
                <ele>216.400000</ele>
                <time>2018-09-29T08:31:04Z</time>
            </trkpt>
            <trkpt lon="99.401763" lat="13.995617">
                <ele>215.800000</ele>
                <time>2018-09-29T08:31:12Z</time>
            </trkpt>
            <trkpt lon="99.401992" lat="13.995482">
                <ele>215.800000</ele>
                <time>2018-09-29T08:31:16Z</time>
            </trkpt>
            <trkpt lon="99.402311" lat="13.995580">
                <ele>214.400000</ele>
                <time>2018-09-29T08:31:22Z</time>
            </trkpt>
            <trkpt lon="99.402336" lat="13.995630">
                <ele>213.200000</ele>
                <time>2018-09-29T08:31:23Z</time>
            </trkpt>
            <trkpt lon="99.402361" lat="13.995682">
                <ele>212.200000</ele>
                <time>2018-09-29T08:31:24Z</time>
            </trkpt>
            <trkpt lon="99.402386" lat="13.995734">
                <ele>211.000000</ele>
                <time>2018-09-29T08:31:25Z</time>
            </trkpt>
            <trkpt lon="99.402411" lat="13.995787">
                <ele>210.000000</ele>
                <time>2018-09-29T08:31:26Z</time>
            </trkpt>
            <trkpt lon="99.402446" lat="13.995835">
                <ele>209.200000</ele>
                <time>2018-09-29T08:31:27Z</time>
            </trkpt>
            <trkpt lon="99.402693" lat="13.996026">
                <ele>208.600000</ele>
                <time>2018-09-29T08:31:32Z</time>
            </trkpt>
            <trkpt lon="99.402749" lat="13.996052">
                <ele>208.200000</ele>
                <time>2018-09-29T08:31:33Z</time>
            </trkpt>
            <trkpt lon="99.402913" lat="13.996127">
                <ele>206.800000</ele>
                <time>2018-09-29T08:31:36Z</time>
            </trkpt>
            <trkpt lon="99.403025" lat="13.996191">
                <ele>205.400000</ele>
                <time>2018-09-29T08:31:38Z</time>
            </trkpt>
            <trkpt lon="99.403149" lat="13.996263">
                <ele>204.000000</ele>
                <time>2018-09-29T08:31:40Z</time>
            </trkpt>
            <trkpt lon="99.403266" lat="13.996311">
                <ele>203.400000</ele>
                <time>2018-09-29T08:31:42Z</time>
            </trkpt>
            <trkpt lon="99.403309" lat="13.996329">
                <ele>203.000000</ele>
                <time>2018-09-29T08:31:43Z</time>
            </trkpt>
            <trkpt lon="99.403341" lat="13.996343">
                <ele>202.400000</ele>
                <time>2018-09-29T08:31:44Z</time>
            </trkpt>
            <trkpt lon="99.403437" lat="13.996384">
                <ele>200.600000</ele>
                <time>2018-09-29T08:31:47Z</time>
            </trkpt>
            <trkpt lon="99.403477" lat="13.996392">
                <ele>200.000000</ele>
                <time>2018-09-29T08:31:48Z</time>
            </trkpt>
            <trkpt lon="99.403567" lat="13.996409">
                <ele>199.400000</ele>
                <time>2018-09-29T08:31:50Z</time>
            </trkpt>
            <trkpt lon="99.403846" lat="13.996540">
                <ele>198.400000</ele>
                <time>2018-09-29T08:31:56Z</time>
            </trkpt>
            <trkpt lon="99.403878" lat="13.996574">
                <ele>198.400000</ele>
                <time>2018-09-29T08:31:57Z</time>
            </trkpt>
            <trkpt lon="99.403957" lat="13.996789">
                <ele>197.200000</ele>
                <time>2018-09-29T08:32:02Z</time>
            </trkpt>
            <trkpt lon="99.404023" lat="13.996949">
                <ele>196.200000</ele>
                <time>2018-09-29T08:32:05Z</time>
            </trkpt>
            <trkpt lon="99.404221" lat="13.997167">
                <ele>195.200000</ele>
                <time>2018-09-29T08:32:10Z</time>
            </trkpt>
            <trkpt lon="99.404276" lat="13.997201">
                <ele>194.600000</ele>
                <time>2018-09-29T08:32:11Z</time>
            </trkpt>
            <trkpt lon="99.404406" lat="13.997245">
                <ele>194.000000</ele>
                <time>2018-09-29T08:32:13Z</time>
            </trkpt>
            <trkpt lon="99.404472" lat="13.997265">
                <ele>193.600000</ele>
                <time>2018-09-29T08:32:14Z</time>
            </trkpt>
            <trkpt lon="99.404587" lat="13.997296">
                <ele>192.800000</ele>
                <time>2018-09-29T08:32:16Z</time>
            </trkpt>
            <trkpt lon="99.404797" lat="13.997251">
                <ele>192.200000</ele>
                <time>2018-09-29T08:32:20Z</time>
            </trkpt>
            <trkpt lon="99.404846" lat="13.997219">
                <ele>191.400000</ele>
                <time>2018-09-29T08:32:21Z</time>
            </trkpt>
            <trkpt lon="99.404961" lat="13.997180">
                <ele>190.000000</ele>
                <time>2018-09-29T08:32:23Z</time>
            </trkpt>
            <trkpt lon="99.405017" lat="13.997164">
                <ele>189.600000</ele>
                <time>2018-09-29T08:32:24Z</time>
            </trkpt>
            <trkpt lon="99.405128" lat="13.997134">
                <ele>188.800000</ele>
                <time>2018-09-29T08:32:26Z</time>
            </trkpt>
            <trkpt lon="99.405184" lat="13.997123">
                <ele>188.600000</ele>
                <time>2018-09-29T08:32:27Z</time>
            </trkpt>
            <trkpt lon="99.405293" lat="13.997099">
                <ele>187.600000</ele>
                <time>2018-09-29T08:32:29Z</time>
            </trkpt>
            <trkpt lon="99.405352" lat="13.997092">
                <ele>187.200000</ele>
                <time>2018-09-29T08:32:30Z</time>
            </trkpt>
            <trkpt lon="99.405473" lat="13.997097">
                <ele>186.600000</ele>
                <time>2018-09-29T08:32:32Z</time>
            </trkpt>
            <trkpt lon="99.405604" lat="13.997135">
                <ele>186.400000</ele>
                <time>2018-09-29T08:32:34Z</time>
            </trkpt>
            <trkpt lon="99.405792" lat="13.997201">
                <ele>186.000000</ele>
                <time>2018-09-29T08:32:37Z</time>
            </trkpt>
            <trkpt lon="99.405864" lat="13.997230">
                <ele>184.600000</ele>
                <time>2018-09-29T08:32:41Z</time>
            </trkpt>
            <trkpt lon="99.405867" lat="13.997251">
                <ele>184.400000</ele>
                <time>2018-09-29T08:32:42Z</time>
            </trkpt>
            <trkpt lon="99.405878" lat="13.997348">
                <ele>183.600000</ele>
                <time>2018-09-29T08:32:49Z</time>
            </trkpt>
            <trkpt lon="99.405884" lat="13.997366">
                <ele>183.600000</ele>
                <time>2018-09-29T08:32:51Z</time>
            </trkpt>
            <trkpt lon="99.405887" lat="13.997377">
                <ele>183.800000</ele>
                <time>2018-09-29T08:32:54Z</time>
            </trkpt>
            <trkpt lon="99.405924" lat="13.997414">
                <ele>184.000000</ele>
                <time>2018-09-29T08:33:01Z</time>
            </trkpt>
            <trkpt lon="99.405972" lat="13.997407">
                <ele>184.000000</ele>
                <time>2018-09-29T08:33:04Z</time>
            </trkpt>
            <trkpt lon="99.405984" lat="13.997406">
                <ele>184.000000</ele>
                <time>2018-09-29T08:33:05Z</time>
            </trkpt>
            <trkpt lon="99.406027" lat="13.997407">
                <ele>183.800000</ele>
                <time>2018-09-29T08:33:08Z</time>
            </trkpt>
            <trkpt lon="99.406042" lat="13.997413">
                <ele>183.800000</ele>
                <time>2018-09-29T08:33:09Z</time>
            </trkpt>
            <trkpt lon="99.406155" lat="13.997470">
                <ele>183.400000</ele>
                <time>2018-09-29T08:33:17Z</time>
            </trkpt>
            <trkpt lon="99.406469" lat="13.997578">
                <ele>183.400000</ele>
                <time>2018-09-29T08:33:27Z</time>
            </trkpt>
            <trkpt lon="99.406830" lat="13.997432">
                <ele>182.200000</ele>
                <time>2018-09-29T08:33:36Z</time>
            </trkpt>
            <trkpt lon="99.406872" lat="13.997423">
                <ele>181.800000</ele>
                <time>2018-09-29T08:33:37Z</time>
            </trkpt>
            <trkpt lon="99.406916" lat="13.997415">
                <ele>181.600000</ele>
                <time>2018-09-29T08:33:38Z</time>
            </trkpt>
            <trkpt lon="99.407050" lat="13.997384">
                <ele>181.000000</ele>
                <time>2018-09-29T08:33:41Z</time>
            </trkpt>
            <trkpt lon="99.407168" lat="13.997339">
                <ele>180.400000</ele>
                <time>2018-09-29T08:33:44Z</time>
            </trkpt>
            <trkpt lon="99.407288" lat="13.997283">
                <ele>180.000000</ele>
                <time>2018-09-29T08:33:47Z</time>
            </trkpt>
            <trkpt lon="99.407337" lat="13.997269">
                <ele>179.800000</ele>
                <time>2018-09-29T08:33:48Z</time>
            </trkpt>
            <trkpt lon="99.407542" lat="13.997249">
                <ele>179.600000</ele>
                <time>2018-09-29T08:33:52Z</time>
            </trkpt>
            <trkpt lon="99.408032" lat="13.997437">
                <ele>180.000000</ele>
                <time>2018-09-29T08:34:07Z</time>
            </trkpt>
            <trkpt lon="99.408075" lat="13.997438">
                <ele>180.000000</ele>
                <time>2018-09-29T08:34:08Z</time>
            </trkpt>
            <trkpt lon="99.408311" lat="13.997349">
                <ele>180.000000</ele>
                <time>2018-09-29T08:34:13Z</time>
            </trkpt>
            <trkpt lon="99.408570" lat="13.997174">
                <ele>178.800000</ele>
                <time>2018-09-29T08:34:19Z</time>
            </trkpt>
            <trkpt lon="99.408649" lat="13.996984">
                <ele>177.400000</ele>
                <time>2018-09-29T08:34:24Z</time>
            </trkpt>
            <trkpt lon="99.408663" lat="13.996955">
                <ele>176.800000</ele>
                <time>2018-09-29T08:34:25Z</time>
            </trkpt>
            <trkpt lon="99.408680" lat="13.996931">
                <ele>176.200000</ele>
                <time>2018-09-29T08:34:26Z</time>
            </trkpt>
            <trkpt lon="99.408882" lat="13.996764">
                <ele>177.400000</ele>
                <time>2018-09-29T08:34:43Z</time>
            </trkpt>
            <trkpt lon="99.408973" lat="13.996721">
                <ele>178.200000</ele>
                <time>2018-09-29T08:34:49Z</time>
            </trkpt>
            <trkpt lon="99.409009" lat="13.996711">
                <ele>178.600000</ele>
                <time>2018-09-29T08:34:51Z</time>
            </trkpt>
            <trkpt lon="99.409047" lat="13.996699">
                <ele>179.000000</ele>
                <time>2018-09-29T08:34:53Z</time>
            </trkpt>
            <trkpt lon="99.409204" lat="13.996497">
                <ele>179.800000</ele>
                <time>2018-09-29T08:35:05Z</time>
            </trkpt>
            <trkpt lon="99.409253" lat="13.996435">
                <ele>179.800000</ele>
                <time>2018-09-29T08:35:08Z</time>
            </trkpt>
            <trkpt lon="99.409384" lat="13.996465">
                <ele>179.800000</ele>
                <time>2018-09-29T08:35:12Z</time>
            </trkpt>
            <trkpt lon="99.409598" lat="13.996547">
                <ele>179.600000</ele>
                <time>2018-09-29T08:35:16Z</time>
            </trkpt>
            <trkpt lon="99.409798" lat="13.996640">
                <ele>178.600000</ele>
                <time>2018-09-29T08:35:20Z</time>
            </trkpt>
            <trkpt lon="99.409846" lat="13.996658">
                <ele>178.200000</ele>
                <time>2018-09-29T08:35:21Z</time>
            </trkpt>
            <trkpt lon="99.409896" lat="13.996664">
                <ele>177.400000</ele>
                <time>2018-09-29T08:35:22Z</time>
            </trkpt>
            <trkpt lon="99.410044" lat="13.996673">
                <ele>176.200000</ele>
                <time>2018-09-29T08:35:25Z</time>
            </trkpt>
            <trkpt lon="99.410352" lat="13.996694">
                <ele>176.000000</ele>
                <time>2018-09-29T08:35:31Z</time>
            </trkpt>
            <trkpt lon="99.410392" lat="13.996706">
                <ele>176.000000</ele>
                <time>2018-09-29T08:35:32Z</time>
            </trkpt>
            <trkpt lon="99.410486" lat="13.996794">
                <ele>176.000000</ele>
                <time>2018-09-29T08:35:35Z</time>
            </trkpt>
            <trkpt lon="99.410666" lat="13.996843">
                <ele>175.400000</ele>
                <time>2018-09-29T08:35:39Z</time>
            </trkpt>
            <trkpt lon="99.410711" lat="13.996858">
                <ele>175.200000</ele>
                <time>2018-09-29T08:35:40Z</time>
            </trkpt>
            <trkpt lon="99.410848" lat="13.996902">
                <ele>174.800000</ele>
                <time>2018-09-29T08:35:43Z</time>
            </trkpt>
            <trkpt lon="99.410983" lat="13.996915">
                <ele>174.200000</ele>
                <time>2018-09-29T08:35:46Z</time>
            </trkpt>
            <trkpt lon="99.411033" lat="13.996916">
                <ele>174.000000</ele>
                <time>2018-09-29T08:35:47Z</time>
            </trkpt>
            <trkpt lon="99.411509" lat="13.996967">
                <ele>173.200000</ele>
                <time>2018-09-29T08:35:57Z</time>
            </trkpt>
            <trkpt lon="99.411555" lat="13.996966">
                <ele>173.200000</ele>
                <time>2018-09-29T08:35:58Z</time>
            </trkpt>
            <trkpt lon="99.411698" lat="13.996899">
                <ele>173.000000</ele>
                <time>2018-09-29T08:36:01Z</time>
            </trkpt>
            <trkpt lon="99.411788" lat="13.996850">
                <ele>172.800000</ele>
                <time>2018-09-29T08:36:03Z</time>
            </trkpt>
            <trkpt lon="99.411950" lat="13.996837">
                <ele>172.200000</ele>
                <time>2018-09-29T08:36:06Z</time>
            </trkpt>
            <trkpt lon="99.412005" lat="13.996833">
                <ele>171.800000</ele>
                <time>2018-09-29T08:36:07Z</time>
            </trkpt>
            <trkpt lon="99.412255" lat="13.996790">
                <ele>170.600000</ele>
                <time>2018-09-29T08:36:11Z</time>
            </trkpt>
            <trkpt lon="99.412376" lat="13.996769">
                <ele>170.000000</ele>
                <time>2018-09-29T08:36:13Z</time>
            </trkpt>
            <trkpt lon="99.412601" lat="13.996760">
                <ele>169.800000</ele>
                <time>2018-09-29T08:36:18Z</time>
            </trkpt>
            <trkpt lon="99.412924" lat="13.996811">
                <ele>169.800000</ele>
                <time>2018-09-29T08:36:24Z</time>
            </trkpt>
            <trkpt lon="99.413084" lat="13.996845">
                <ele>170.000000</ele>
                <time>2018-09-29T08:36:27Z</time>
            </trkpt>
            <trkpt lon="99.413592" lat="13.997041">
                <ele>172.000000</ele>
                <time>2018-09-29T08:36:45Z</time>
            </trkpt>
            <trkpt lon="99.413776" lat="13.997035">
                <ele>173.200000</ele>
                <time>2018-09-29T08:36:51Z</time>
            </trkpt>
            <trkpt lon="99.413819" lat="13.997042">
                <ele>173.200000</ele>
                <time>2018-09-29T08:36:52Z</time>
            </trkpt>
            <trkpt lon="99.413903" lat="13.997050">
                <ele>173.200000</ele>
                <time>2018-09-29T08:36:54Z</time>
            </trkpt>
            <trkpt lon="99.414028" lat="13.997071">
                <ele>173.200000</ele>
                <time>2018-09-29T08:36:57Z</time>
            </trkpt>
            <trkpt lon="99.414421" lat="13.997153">
                <ele>172.200000</ele>
                <time>2018-09-29T08:37:06Z</time>
            </trkpt>
            <trkpt lon="99.414612" lat="13.997110">
                <ele>171.000000</ele>
                <time>2018-09-29T08:37:10Z</time>
            </trkpt>
            <trkpt lon="99.414707" lat="13.997102">
                <ele>170.600000</ele>
                <time>2018-09-29T08:37:12Z</time>
            </trkpt>
            <trkpt lon="99.414858" lat="13.997108">
                <ele>170.000000</ele>
                <time>2018-09-29T08:37:15Z</time>
            </trkpt>
            <trkpt lon="99.414910" lat="13.997107">
                <ele>169.800000</ele>
                <time>2018-09-29T08:37:16Z</time>
            </trkpt>
            <trkpt lon="99.415239" lat="13.997028">
                <ele>169.000000</ele>
                <time>2018-09-29T08:37:24Z</time>
            </trkpt>
            <trkpt lon="99.415377" lat="13.997060">
                <ele>168.800000</ele>
                <time>2018-09-29T08:37:27Z</time>
            </trkpt>
            <trkpt lon="99.415426" lat="13.997054">
                <ele>168.800000</ele>
                <time>2018-09-29T08:37:28Z</time>
            </trkpt>
            <trkpt lon="99.415534" lat="13.997022">
                <ele>168.800000</ele>
                <time>2018-09-29T08:37:31Z</time>
            </trkpt>
            <trkpt lon="99.415564" lat="13.997000">
                <ele>168.800000</ele>
                <time>2018-09-29T08:37:34Z</time>
            </trkpt>
            <trkpt lon="99.415623" lat="13.996991">
                <ele>169.600000</ele>
                <time>2018-09-29T08:37:42Z</time>
            </trkpt>
            <trkpt lon="99.415660" lat="13.996972">
                <ele>169.800000</ele>
                <time>2018-09-29T08:37:47Z</time>
            </trkpt>
            <trkpt lon="99.415734" lat="13.996990">
                <ele>171.200000</ele>
                <time>2018-09-29T08:38:53Z</time>
            </trkpt>
            <trkpt lon="99.415972" lat="13.996996">
                <ele>170.800000</ele>
                <time>2018-09-29T08:39:03Z</time>
            </trkpt>
            <trkpt lon="99.416040" lat="13.996999">
                <ele>168.400000</ele>
                <time>2018-09-29T08:44:09Z</time>
            </trkpt>
            <trkpt lon="99.416574" lat="13.997045">
                <ele>167.600000</ele>
                <time>2018-09-29T08:44:24Z</time>
            </trkpt>
            <trkpt lon="99.416633" lat="13.997048">
                <ele>167.400000</ele>
                <time>2018-09-29T08:44:25Z</time>
            </trkpt>
            <trkpt lon="99.416893" lat="13.997091">
                <ele>166.200000</ele>
                <time>2018-09-29T08:44:30Z</time>
            </trkpt>
            <trkpt lon="99.416906" lat="13.997226">
                <ele>165.200000</ele>
                <time>2018-09-29T08:44:34Z</time>
            </trkpt>
            <trkpt lon="99.416829" lat="13.997498">
                <ele>164.000000</ele>
                <time>2018-09-29T08:44:40Z</time>
            </trkpt>
            <trkpt lon="99.416827" lat="13.997550">
                <ele>163.800000</ele>
                <time>2018-09-29T08:44:44Z</time>
            </trkpt>
            <trkpt lon="99.416813" lat="13.997548">
                <ele>163.600000</ele>
                <time>2018-09-29T08:44:46Z</time>
            </trkpt>
            <trkpt lon="99.416673" lat="13.997504">
                <ele>163.000000</ele>
                <time>2018-09-29T08:44:53Z</time>
            </trkpt>
            <trkpt lon="99.416631" lat="13.997502">
                <ele>163.200000</ele>
                <time>2018-09-29T08:44:55Z</time>
            </trkpt>
            <trkpt lon="99.416604" lat="13.997511">
                <ele>163.200000</ele>
                <time>2018-09-29T08:44:56Z</time>
            </trkpt>
            <trkpt lon="99.416266" lat="13.997528">
                <ele>163.000000</ele>
                <time>2018-09-29T08:45:10Z</time>
            </trkpt>
            <trkpt lon="99.416185" lat="13.997527">
                <ele>162.800000</ele>
                <time>2018-09-29T08:45:14Z</time>
            </trkpt>
            <trkpt lon="99.415763" lat="13.997532">
                <ele>162.600000</ele>
                <time>2018-09-29T08:45:26Z</time>
            </trkpt>
            <trkpt lon="99.415751" lat="13.997576">
                <ele>162.800000</ele>
                <time>2018-09-29T08:45:30Z</time>
            </trkpt>
            <trkpt lon="99.415738" lat="13.997615">
                <ele>163.000000</ele>
                <time>2018-09-29T08:45:34Z</time>
            </trkpt>
            <trkpt lon="99.415765" lat="13.997798">
                <ele>164.400000</ele>
                <time>2018-09-29T08:45:49Z</time>
            </trkpt>
            <trkpt lon="99.415758" lat="13.998041">
                <ele>165.200000</ele>
                <time>2018-09-29T08:46:03Z</time>
            </trkpt>
            <trkpt lon="99.415711" lat="13.998141">
                <ele>165.800000</ele>
                <time>2018-09-29T08:46:08Z</time>
            </trkpt>
            <trkpt lon="99.415687" lat="13.998174">
                <ele>165.800000</ele>
                <time>2018-09-29T08:46:11Z</time>
            </trkpt>
            <trkpt lon="99.415448" lat="13.998391">
                <ele>167.000000</ele>
                <time>2018-09-29T08:46:30Z</time>
            </trkpt>
            <trkpt lon="99.415233" lat="13.998658">
                <ele>168.200000</ele>
                <time>2018-09-29T08:46:48Z</time>
            </trkpt>
            <trkpt lon="99.415146" lat="13.998782">
                <ele>169.200000</ele>
                <time>2018-09-29T08:46:57Z</time>
            </trkpt>
            <trkpt lon="99.415125" lat="13.998806">
                <ele>169.400000</ele>
                <time>2018-09-29T08:46:59Z</time>
            </trkpt>
            <trkpt lon="99.415089" lat="13.998913">
                <ele>170.200000</ele>
                <time>2018-09-29T08:47:07Z</time>
            </trkpt>
            <trkpt lon="99.415081" lat="13.998939">
                <ele>170.200000</ele>
                <time>2018-09-29T08:47:09Z</time>
            </trkpt>
            <trkpt lon="99.415047" lat="13.999010">
                <ele>171.400000</ele>
                <time>2018-09-29T08:47:15Z</time>
            </trkpt>
            <trkpt lon="99.415004" lat="13.999068">
                <ele>172.200000</ele>
                <time>2018-09-29T08:47:22Z</time>
            </trkpt>
            <trkpt lon="99.414999" lat="13.999080">
                <ele>172.400000</ele>
                <time>2018-09-29T08:47:23Z</time>
            </trkpt>
            <trkpt lon="99.414979" lat="13.999168">
                <ele>173.400000</ele>
                <time>2018-09-29T08:47:31Z</time>
            </trkpt>
            <trkpt lon="99.414971" lat="13.999209">
                <ele>174.400000</ele>
                <time>2018-09-29T08:47:35Z</time>
            </trkpt>
            <trkpt lon="99.414958" lat="13.999346">
                <ele>175.600000</ele>
                <time>2018-09-29T08:47:49Z</time>
            </trkpt>
            <trkpt lon="99.414958" lat="13.999448">
                <ele>176.600000</ele>
                <time>2018-09-29T08:48:00Z</time>
            </trkpt>
            <trkpt lon="99.414976" lat="13.999563">
                <ele>177.800000</ele>
                <time>2018-09-29T08:48:10Z</time>
            </trkpt>
            <trkpt lon="99.414982" lat="13.999659">
                <ele>179.000000</ele>
                <time>2018-09-29T08:48:20Z</time>
            </trkpt>
            <trkpt lon="99.414988" lat="13.999719">
                <ele>180.200000</ele>
                <time>2018-09-29T08:48:27Z</time>
            </trkpt>
            <trkpt lon="99.415001" lat="13.999804">
                <ele>181.400000</ele>
                <time>2018-09-29T08:48:37Z</time>
            </trkpt>
            <trkpt lon="99.415009" lat="13.999866">
                <ele>182.400000</ele>
                <time>2018-09-29T08:48:44Z</time>
            </trkpt>
            <trkpt lon="99.415037" lat="13.999941">
                <ele>183.600000</ele>
                <time>2018-09-29T08:48:51Z</time>
            </trkpt>
            <trkpt lon="99.415064" lat="13.999975">
                <ele>184.600000</ele>
                <time>2018-09-29T08:48:55Z</time>
            </trkpt>
            <trkpt lon="99.415076" lat="14.000000">
                <ele>185.800000</ele>
                <time>2018-09-29T08:48:58Z</time>
            </trkpt>
            <trkpt lon="99.415103" lat="14.000051">
                <ele>186.800000</ele>
                <time>2018-09-29T08:49:03Z</time>
            </trkpt>
            <trkpt lon="99.415159" lat="14.000175">
                <ele>188.200000</ele>
                <time>2018-09-29T08:49:13Z</time>
            </trkpt>
            <trkpt lon="99.415228" lat="14.000448">
                <ele>189.200000</ele>
                <time>2018-09-29T08:49:36Z</time>
            </trkpt>
            <trkpt lon="99.415244" lat="14.000481">
                <ele>189.400000</ele>
                <time>2018-09-29T08:49:38Z</time>
            </trkpt>
            <trkpt lon="99.415248" lat="14.000570">
                <ele>190.400000</ele>
                <time>2018-09-29T08:49:46Z</time>
            </trkpt>
            <trkpt lon="99.415065" lat="14.001041">
                <ele>190.800000</ele>
                <time>2018-09-29T08:50:12Z</time>
            </trkpt>
            <trkpt lon="99.414953" lat="14.001311">
                <ele>191.600000</ele>
                <time>2018-09-29T08:50:25Z</time>
            </trkpt>
            <trkpt lon="99.414910" lat="14.001505">
                <ele>192.400000</ele>
                <time>2018-09-29T08:50:37Z</time>
            </trkpt>
            <trkpt lon="99.414918" lat="14.001531">
                <ele>192.600000</ele>
                <time>2018-09-29T08:50:39Z</time>
            </trkpt>
            <trkpt lon="99.415031" lat="14.001709">
                <ele>192.800000</ele>
                <time>2018-09-29T08:50:52Z</time>
            </trkpt>
            <trkpt lon="99.415130" lat="14.001825">
                <ele>193.600000</ele>
                <time>2018-09-29T08:51:00Z</time>
            </trkpt>
            <trkpt lon="99.415159" lat="14.001871">
                <ele>194.200000</ele>
                <time>2018-09-29T08:51:05Z</time>
            </trkpt>
            <trkpt lon="99.415177" lat="14.001891">
                <ele>194.600000</ele>
                <time>2018-09-29T08:51:07Z</time>
            </trkpt>
            <trkpt lon="99.415224" lat="14.001937">
                <ele>195.400000</ele>
                <time>2018-09-29T08:51:12Z</time>
            </trkpt>
            <trkpt lon="99.415262" lat="14.002010">
                <ele>195.600000</ele>
                <time>2018-09-29T08:51:17Z</time>
            </trkpt>
            <trkpt lon="99.415270" lat="14.002039">
                <ele>195.800000</ele>
                <time>2018-09-29T08:51:19Z</time>
            </trkpt>
            <trkpt lon="99.415273" lat="14.002096">
                <ele>196.400000</ele>
                <time>2018-09-29T08:51:23Z</time>
            </trkpt>
            <trkpt lon="99.415271" lat="14.002112">
                <ele>196.600000</ele>
                <time>2018-09-29T08:51:24Z</time>
            </trkpt>
            <trkpt lon="99.415238" lat="14.002197">
                <ele>197.000000</ele>
                <time>2018-09-29T08:51:30Z</time>
            </trkpt>
            <trkpt lon="99.415180" lat="14.002354">
                <ele>197.400000</ele>
                <time>2018-09-29T08:51:40Z</time>
            </trkpt>
            <trkpt lon="99.415212" lat="14.002452">
                <ele>198.000000</ele>
                <time>2018-09-29T08:51:46Z</time>
            </trkpt>
            <trkpt lon="99.415167" lat="14.002540">
                <ele>198.800000</ele>
                <time>2018-09-29T08:51:52Z</time>
            </trkpt>
            <trkpt lon="99.415139" lat="14.002561">
                <ele>199.000000</ele>
                <time>2018-09-29T08:51:54Z</time>
            </trkpt>
            <trkpt lon="99.415111" lat="14.002583">
                <ele>199.200000</ele>
                <time>2018-09-29T08:51:56Z</time>
            </trkpt>
            <trkpt lon="99.415008" lat="14.002689">
                <ele>199.800000</ele>
                <time>2018-09-29T08:52:06Z</time>
            </trkpt>
            <trkpt lon="99.414992" lat="14.002706">
                <ele>200.400000</ele>
                <time>2018-09-29T08:52:14Z</time>
            </trkpt>
            <trkpt lon="99.414962" lat="14.002784">
                <ele>200.800000</ele>
                <time>2018-09-29T08:52:21Z</time>
            </trkpt>
            <trkpt lon="99.414956" lat="14.002794">
                <ele>200.800000</ele>
                <time>2018-09-29T08:52:22Z</time>
            </trkpt>
            <trkpt lon="99.414930" lat="14.002843">
                <ele>201.000000</ele>
                <time>2018-09-29T08:52:27Z</time>
            </trkpt>
            <trkpt lon="99.414905" lat="14.002912">
                <ele>201.400000</ele>
                <time>2018-09-29T08:52:33Z</time>
            </trkpt>
            <trkpt lon="99.414877" lat="14.002968">
                <ele>202.000000</ele>
                <time>2018-09-29T08:52:38Z</time>
            </trkpt>
            <trkpt lon="99.414877" lat="14.002990">
                <ele>202.200000</ele>
                <time>2018-09-29T08:52:40Z</time>
            </trkpt>
            <trkpt lon="99.414840" lat="14.003073">
                <ele>203.000000</ele>
                <time>2018-09-29T08:52:47Z</time>
            </trkpt>
            <trkpt lon="99.414838" lat="14.003085">
                <ele>203.000000</ele>
                <time>2018-09-29T08:52:48Z</time>
            </trkpt>
            <trkpt lon="99.414835" lat="14.003107">
                <ele>203.400000</ele>
                <time>2018-09-29T08:52:50Z</time>
            </trkpt>
            <trkpt lon="99.414799" lat="14.003163">
                <ele>204.200000</ele>
                <time>2018-09-29T08:52:55Z</time>
            </trkpt>
            <trkpt lon="99.414738" lat="14.003200">
                <ele>204.800000</ele>
                <time>2018-09-29T08:53:00Z</time>
            </trkpt>
            <trkpt lon="99.414640" lat="14.003270">
                <ele>205.000000</ele>
                <time>2018-09-29T08:53:09Z</time>
            </trkpt>
            <trkpt lon="99.414609" lat="14.003293">
                <ele>205.200000</ele>
                <time>2018-09-29T08:53:11Z</time>
            </trkpt>
            <trkpt lon="99.414541" lat="14.003400">
                <ele>205.200000</ele>
                <time>2018-09-29T08:53:17Z</time>
            </trkpt>
            <trkpt lon="99.414512" lat="14.003467">
                <ele>205.400000</ele>
                <time>2018-09-29T08:53:21Z</time>
            </trkpt>
            <trkpt lon="99.414559" lat="14.003537">
                <ele>205.400000</ele>
                <time>2018-09-29T08:53:28Z</time>
            </trkpt>
            <trkpt lon="99.414564" lat="14.003548">
                <ele>205.600000</ele>
                <time>2018-09-29T08:53:29Z</time>
            </trkpt>
            <trkpt lon="99.414597" lat="14.003601">
                <ele>206.200000</ele>
                <time>2018-09-29T08:53:34Z</time>
            </trkpt>
            <trkpt lon="99.414602" lat="14.003615">
                <ele>206.200000</ele>
                <time>2018-09-29T08:53:35Z</time>
            </trkpt>
            <trkpt lon="99.414751" lat="14.003729">
                <ele>207.200000</ele>
                <time>2018-09-29T08:53:50Z</time>
            </trkpt>
            <trkpt lon="99.414760" lat="14.003741">
                <ele>207.200000</ele>
                <time>2018-09-29T08:53:51Z</time>
            </trkpt>
            <trkpt lon="99.414797" lat="14.003851">
                <ele>207.600000</ele>
                <time>2018-09-29T08:53:59Z</time>
            </trkpt>
            <trkpt lon="99.414864" lat="14.003911">
                <ele>208.200000</ele>
                <time>2018-09-29T08:54:06Z</time>
            </trkpt>
            <trkpt lon="99.414933" lat="14.003970">
                <ele>208.600000</ele>
                <time>2018-09-29T08:54:11Z</time>
            </trkpt>
            <trkpt lon="99.415313" lat="14.004116">
                <ele>209.400000</ele>
                <time>2018-09-29T08:54:29Z</time>
            </trkpt>
            <trkpt lon="99.415670" lat="14.004231">
                <ele>210.200000</ele>
                <time>2018-09-29T08:54:43Z</time>
            </trkpt>
            <trkpt lon="99.415680" lat="14.004318">
                <ele>210.200000</ele>
                <time>2018-09-29T08:54:47Z</time>
            </trkpt>
            <trkpt lon="99.415680" lat="14.004363">
                <ele>210.400000</ele>
                <time>2018-09-29T08:54:49Z</time>
            </trkpt>
            <trkpt lon="99.415683" lat="14.004511">
                <ele>211.600000</ele>
                <time>2018-09-29T08:54:56Z</time>
            </trkpt>
            <trkpt lon="99.415748" lat="14.004731">
                <ele>212.600000</ele>
                <time>2018-09-29T08:55:10Z</time>
            </trkpt>
            <trkpt lon="99.415815" lat="14.004941">
                <ele>213.800000</ele>
                <time>2018-09-29T08:55:23Z</time>
            </trkpt>
            <trkpt lon="99.415897" lat="14.004992">
                <ele>214.200000</ele>
                <time>2018-09-29T08:55:28Z</time>
            </trkpt>
            <trkpt lon="99.415912" lat="14.005040">
                <ele>214.800000</ele>
                <time>2018-09-29T08:55:31Z</time>
            </trkpt>
            <trkpt lon="99.415916" lat="14.005049">
                <ele>214.800000</ele>
                <time>2018-09-29T08:55:32Z</time>
            </trkpt>
            <trkpt lon="99.415921" lat="14.005063">
                <ele>215.000000</ele>
                <time>2018-09-29T08:55:34Z</time>
            </trkpt>
            <trkpt lon="99.415934" lat="14.005121">
                <ele>215.600000</ele>
                <time>2018-09-29T08:55:39Z</time>
            </trkpt>
            <trkpt lon="99.415992" lat="14.005168">
                <ele>216.000000</ele>
                <time>2018-09-29T08:55:45Z</time>
            </trkpt>
            <trkpt lon="99.416000" lat="14.005169">
                <ele>216.000000</ele>
                <time>2018-09-29T08:55:46Z</time>
            </trkpt>
            <trkpt lon="99.416060" lat="14.005189">
                <ele>216.200000</ele>
                <time>2018-09-29T08:55:51Z</time>
            </trkpt>
            <trkpt lon="99.416232" lat="14.005223">
                <ele>216.400000</ele>
                <time>2018-09-29T08:56:02Z</time>
            </trkpt>
            <trkpt lon="99.416646" lat="14.005134">
                <ele>215.800000</ele>
                <time>2018-09-29T08:56:16Z</time>
            </trkpt>
            <trkpt lon="99.416768" lat="14.005067">
                <ele>215.200000</ele>
                <time>2018-09-29T08:56:19Z</time>
            </trkpt>
            <trkpt lon="99.416899" lat="14.005010">
                <ele>214.800000</ele>
                <time>2018-09-29T08:56:22Z</time>
            </trkpt>
            <trkpt lon="99.417089" lat="14.004986">
                <ele>214.000000</ele>
                <time>2018-09-29T08:56:26Z</time>
            </trkpt>
            <trkpt lon="99.417256" lat="14.004935">
                <ele>213.000000</ele>
                <time>2018-09-29T08:56:29Z</time>
            </trkpt>
            <trkpt lon="99.417313" lat="14.004921">
                <ele>212.800000</ele>
                <time>2018-09-29T08:56:30Z</time>
            </trkpt>
            <trkpt lon="99.417566" lat="14.004937">
                <ele>212.400000</ele>
                <time>2018-09-29T08:56:37Z</time>
            </trkpt>
            <trkpt lon="99.417645" lat="14.004947">
                <ele>213.800000</ele>
                <time>2018-09-29T08:57:04Z</time>
            </trkpt>
            <trkpt lon="99.418053" lat="14.004967">
                <ele>213.600000</ele>
                <time>2018-09-29T08:57:18Z</time>
            </trkpt>
            <trkpt lon="99.418229" lat="14.004951">
                <ele>213.400000</ele>
                <time>2018-09-29T08:57:22Z</time>
            </trkpt>
            <trkpt lon="99.418682" lat="14.004926">
                <ele>212.200000</ele>
                <time>2018-09-29T08:57:29Z</time>
            </trkpt>
            <trkpt lon="99.418756" lat="14.004898">
                <ele>212.000000</ele>
                <time>2018-09-29T08:57:30Z</time>
            </trkpt>
            <trkpt lon="99.418940" lat="14.004806">
                <ele>210.800000</ele>
                <time>2018-09-29T08:57:33Z</time>
            </trkpt>
            <trkpt lon="99.418991" lat="14.004797">
                <ele>210.200000</ele>
                <time>2018-09-29T08:57:34Z</time>
            </trkpt>
            <trkpt lon="99.419051" lat="14.004787">
                <ele>209.800000</ele>
                <time>2018-09-29T08:57:35Z</time>
            </trkpt>
            <trkpt lon="99.419116" lat="14.004784">
                <ele>209.400000</ele>
                <time>2018-09-29T08:57:36Z</time>
            </trkpt>
            <trkpt lon="99.419176" lat="14.004790">
                <ele>208.800000</ele>
                <time>2018-09-29T08:57:37Z</time>
            </trkpt>
            <trkpt lon="99.419237" lat="14.004802">
                <ele>207.800000</ele>
                <time>2018-09-29T08:57:38Z</time>
            </trkpt>
            <trkpt lon="99.419361" lat="14.004817">
                <ele>206.400000</ele>
                <time>2018-09-29T08:57:40Z</time>
            </trkpt>
            <trkpt lon="99.419422" lat="14.004818">
                <ele>206.000000</ele>
                <time>2018-09-29T08:57:41Z</time>
            </trkpt>
            <trkpt lon="99.419485" lat="14.004824">
                <ele>205.800000</ele>
                <time>2018-09-29T08:57:42Z</time>
            </trkpt>
            <trkpt lon="99.419609" lat="14.004839">
                <ele>205.200000</ele>
                <time>2018-09-29T08:57:44Z</time>
            </trkpt>
            <trkpt lon="99.419675" lat="14.004847">
                <ele>204.800000</ele>
                <time>2018-09-29T08:57:45Z</time>
            </trkpt>
            <trkpt lon="99.419815" lat="14.004853">
                <ele>204.000000</ele>
                <time>2018-09-29T08:57:47Z</time>
            </trkpt>
            <trkpt lon="99.420002" lat="14.004868">
                <ele>202.800000</ele>
                <time>2018-09-29T08:57:50Z</time>
            </trkpt>
            <trkpt lon="99.420106" lat="14.004876">
                <ele>202.200000</ele>
                <time>2018-09-29T08:57:52Z</time>
            </trkpt>
            <trkpt lon="99.420227" lat="14.004867">
                <ele>201.800000</ele>
                <time>2018-09-29T08:57:54Z</time>
            </trkpt>
            <trkpt lon="99.420285" lat="14.004856">
                <ele>201.600000</ele>
                <time>2018-09-29T08:57:55Z</time>
            </trkpt>
            <trkpt lon="99.420711" lat="14.004717">
                <ele>200.800000</ele>
                <time>2018-09-29T08:58:01Z</time>
            </trkpt>
            <trkpt lon="99.420856" lat="14.004665">
                <ele>200.000000</ele>
                <time>2018-09-29T08:58:03Z</time>
            </trkpt>
            <trkpt lon="99.420925" lat="14.004644">
                <ele>199.400000</ele>
                <time>2018-09-29T08:58:04Z</time>
            </trkpt>
            <trkpt lon="99.421128" lat="14.004563">
                <ele>197.800000</ele>
                <time>2018-09-29T08:58:07Z</time>
            </trkpt>
            <trkpt lon="99.421241" lat="14.004461">
                <ele>196.600000</ele>
                <time>2018-09-29T08:58:09Z</time>
            </trkpt>
            <trkpt lon="99.421355" lat="14.004363">
                <ele>195.600000</ele>
                <time>2018-09-29T08:58:11Z</time>
            </trkpt>
            <trkpt lon="99.421414" lat="14.004326">
                <ele>195.400000</ele>
                <time>2018-09-29T08:58:12Z</time>
            </trkpt>
            <trkpt lon="99.421540" lat="14.004315">
                <ele>194.200000</ele>
                <time>2018-09-29T08:58:14Z</time>
            </trkpt>
            <trkpt lon="99.421646" lat="14.004333">
                <ele>193.400000</ele>
                <time>2018-09-29T08:58:16Z</time>
            </trkpt>
            <trkpt lon="99.421682" lat="14.004357">
                <ele>192.800000</ele>
                <time>2018-09-29T08:58:17Z</time>
            </trkpt>
            <trkpt lon="99.421764" lat="14.004372">
                <ele>191.600000</ele>
                <time>2018-09-29T08:58:19Z</time>
            </trkpt>
            <trkpt lon="99.421811" lat="14.004378">
                <ele>191.200000</ele>
                <time>2018-09-29T08:58:20Z</time>
            </trkpt>
            <trkpt lon="99.421917" lat="14.004385">
                <ele>190.800000</ele>
                <time>2018-09-29T08:58:22Z</time>
            </trkpt>
            <trkpt lon="99.422106" lat="14.004379">
                <ele>190.600000</ele>
                <time>2018-09-29T08:58:25Z</time>
            </trkpt>
            <trkpt lon="99.422225" lat="14.004334">
                <ele>190.200000</ele>
                <time>2018-09-29T08:58:27Z</time>
            </trkpt>
            <trkpt lon="99.422345" lat="14.004274">
                <ele>189.600000</ele>
                <time>2018-09-29T08:58:29Z</time>
            </trkpt>
            <trkpt lon="99.422406" lat="14.004239">
                <ele>189.200000</ele>
                <time>2018-09-29T08:58:30Z</time>
            </trkpt>
            <trkpt lon="99.422598" lat="14.004129">
                <ele>188.200000</ele>
                <time>2018-09-29T08:58:33Z</time>
            </trkpt>
            <trkpt lon="99.422850" lat="14.004112">
                <ele>187.000000</ele>
                <time>2018-09-29T08:58:37Z</time>
            </trkpt>
            <trkpt lon="99.422954" lat="14.004137">
                <ele>186.400000</ele>
                <time>2018-09-29T08:58:39Z</time>
            </trkpt>
            <trkpt lon="99.423000" lat="14.004133">
                <ele>186.000000</ele>
                <time>2018-09-29T08:58:40Z</time>
            </trkpt>
            <trkpt lon="99.423156" lat="14.004115">
                <ele>185.600000</ele>
                <time>2018-09-29T08:58:43Z</time>
            </trkpt>
            <trkpt lon="99.423306" lat="14.004138">
                <ele>185.400000</ele>
                <time>2018-09-29T08:58:46Z</time>
            </trkpt>
            <trkpt lon="99.423691" lat="14.004102">
                <ele>185.000000</ele>
                <time>2018-09-29T08:58:56Z</time>
            </trkpt>
            <trkpt lon="99.423917" lat="14.003957">
                <ele>183.800000</ele>
                <time>2018-09-29T08:59:02Z</time>
            </trkpt>
            <trkpt lon="99.423954" lat="14.003944">
                <ele>183.600000</ele>
                <time>2018-09-29T08:59:03Z</time>
            </trkpt>
            <trkpt lon="99.423996" lat="14.003928">
                <ele>183.600000</ele>
                <time>2018-09-29T08:59:04Z</time>
            </trkpt>
            <trkpt lon="99.424301" lat="14.003762">
                <ele>183.400000</ele>
                <time>2018-09-29T08:59:12Z</time>
            </trkpt>
            <trkpt lon="99.424325" lat="14.003735">
                <ele>183.600000</ele>
                <time>2018-09-29T08:59:13Z</time>
            </trkpt>
            <trkpt lon="99.424368" lat="14.003680">
                <ele>183.800000</ele>
                <time>2018-09-29T08:59:15Z</time>
            </trkpt>
            <trkpt lon="99.424423" lat="14.003534">
                <ele>184.000000</ele>
                <time>2018-09-29T08:59:19Z</time>
            </trkpt>
            <trkpt lon="99.424425" lat="14.003499">
                <ele>184.000000</ele>
                <time>2018-09-29T08:59:20Z</time>
            </trkpt>
            <trkpt lon="99.424479" lat="14.003337">
                <ele>184.000000</ele>
                <time>2018-09-29T08:59:24Z</time>
            </trkpt>
            <trkpt lon="99.424489" lat="14.003204">
                <ele>183.800000</ele>
                <time>2018-09-29T08:59:27Z</time>
            </trkpt>
            <trkpt lon="99.424595" lat="14.002738">
                <ele>183.000000</ele>
                <time>2018-09-29T08:59:36Z</time>
            </trkpt>
            <trkpt lon="99.424617" lat="14.002692">
                <ele>182.800000</ele>
                <time>2018-09-29T08:59:37Z</time>
            </trkpt>
            <trkpt lon="99.424637" lat="14.002656">
                <ele>182.600000</ele>
                <time>2018-09-29T08:59:38Z</time>
            </trkpt>
            <trkpt lon="99.424748" lat="14.002528">
                <ele>182.000000</ele>
                <time>2018-09-29T08:59:42Z</time>
            </trkpt>
            <trkpt lon="99.424863" lat="14.002261">
                <ele>181.200000</ele>
                <time>2018-09-29T08:59:48Z</time>
            </trkpt>
            <trkpt lon="99.424912" lat="14.002131">
                <ele>180.000000</ele>
                <time>2018-09-29T08:59:51Z</time>
            </trkpt>
            <trkpt lon="99.424956" lat="14.002041">
                <ele>178.200000</ele>
                <time>2018-09-29T08:59:53Z</time>
            </trkpt>
            <trkpt lon="99.425012" lat="14.001956">
                <ele>177.200000</ele>
                <time>2018-09-29T08:59:55Z</time>
            </trkpt>
            <trkpt lon="99.425069" lat="14.001875">
                <ele>176.600000</ele>
                <time>2018-09-29T08:59:57Z</time>
            </trkpt>
            <trkpt lon="99.425086" lat="14.001825">
                <ele>176.000000</ele>
                <time>2018-09-29T08:59:58Z</time>
            </trkpt>
            <trkpt lon="99.425072" lat="14.001710">
                <ele>175.000000</ele>
                <time>2018-09-29T09:00:00Z</time>
            </trkpt>
            <trkpt lon="99.425062" lat="14.001651">
                <ele>174.800000</ele>
                <time>2018-09-29T09:00:01Z</time>
            </trkpt>
            <trkpt lon="99.425035" lat="14.001556">
                <ele>174.400000</ele>
                <time>2018-09-29T09:00:03Z</time>
            </trkpt>
            <trkpt lon="99.425017" lat="14.001517">
                <ele>174.000000</ele>
                <time>2018-09-29T09:00:04Z</time>
            </trkpt>
            <trkpt lon="99.424958" lat="14.001403">
                <ele>172.200000</ele>
                <time>2018-09-29T09:00:07Z</time>
            </trkpt>
            <trkpt lon="99.424931" lat="14.001361">
                <ele>171.200000</ele>
                <time>2018-09-29T09:00:08Z</time>
            </trkpt>
            <trkpt lon="99.424902" lat="14.001320">
                <ele>169.800000</ele>
                <time>2018-09-29T09:00:09Z</time>
            </trkpt>
            <trkpt lon="99.424883" lat="14.001281">
                <ele>168.800000</ele>
                <time>2018-09-29T09:00:10Z</time>
            </trkpt>
            <trkpt lon="99.424868" lat="14.001261">
                <ele>167.800000</ele>
                <time>2018-09-29T09:00:11Z</time>
            </trkpt>
            <trkpt lon="99.424868" lat="14.001239">
                <ele>166.400000</ele>
                <time>2018-09-29T09:00:12Z</time>
            </trkpt>
            <trkpt lon="99.424915" lat="14.001171">
                <ele>165.000000</ele>
                <time>2018-09-29T09:00:14Z</time>
            </trkpt>
            <trkpt lon="99.424985" lat="14.001099">
                <ele>163.200000</ele>
                <time>2018-09-29T09:00:16Z</time>
            </trkpt>
            <trkpt lon="99.425051" lat="14.001052">
                <ele>161.600000</ele>
                <time>2018-09-29T09:00:18Z</time>
            </trkpt>
            <trkpt lon="99.425151" lat="14.000886">
                <ele>160.600000</ele>
                <time>2018-09-29T09:00:22Z</time>
            </trkpt>
            <trkpt lon="99.425179" lat="14.000839">
                <ele>160.400000</ele>
                <time>2018-09-29T09:00:23Z</time>
            </trkpt>
            <trkpt lon="99.425329" lat="14.000631">
                <ele>159.200000</ele>
                <time>2018-09-29T09:00:28Z</time>
            </trkpt>
            <trkpt lon="99.425381" lat="14.000385">
                <ele>158.200000</ele>
                <time>2018-09-29T09:00:33Z</time>
            </trkpt>
            <trkpt lon="99.425520" lat="14.000196">
                <ele>157.400000</ele>
                <time>2018-09-29T09:00:37Z</time>
            </trkpt>
            <trkpt lon="99.425558" lat="14.000158">
                <ele>157.200000</ele>
                <time>2018-09-29T09:00:38Z</time>
            </trkpt>
            <trkpt lon="99.425703" lat="14.000106">
                <ele>156.800000</ele>
                <time>2018-09-29T09:00:42Z</time>
            </trkpt>
            <trkpt lon="99.425873" lat="14.000115">
                <ele>156.800000</ele>
                <time>2018-09-29T09:00:47Z</time>
            </trkpt>
            <trkpt lon="99.426114" lat="14.000009">
                <ele>158.600000</ele>
                <time>2018-09-29T09:00:55Z</time>
            </trkpt>
            <trkpt lon="99.426634" lat="13.999847">
                <ele>159.200000</ele>
                <time>2018-09-29T09:01:07Z</time>
            </trkpt>
            <trkpt lon="99.427060" lat="13.999587">
                <ele>158.800000</ele>
                <time>2018-09-29T09:01:15Z</time>
            </trkpt>
            <trkpt lon="99.427257" lat="13.999536">
                <ele>158.600000</ele>
                <time>2018-09-29T09:01:18Z</time>
            </trkpt>
            <trkpt lon="99.427442" lat="13.999349">
                <ele>157.600000</ele>
                <time>2018-09-29T09:01:22Z</time>
            </trkpt>
            <trkpt lon="99.427468" lat="13.999283">
                <ele>156.200000</ele>
                <time>2018-09-29T09:01:23Z</time>
            </trkpt>
            <trkpt lon="99.427509" lat="13.999148">
                <ele>155.200000</ele>
                <time>2018-09-29T09:01:25Z</time>
            </trkpt>
            <trkpt lon="99.427543" lat="13.999001">
                <ele>154.400000</ele>
                <time>2018-09-29T09:01:29Z</time>
            </trkpt>
            <trkpt lon="99.427594" lat="13.998991">
                <ele>154.200000</ele>
                <time>2018-09-29T09:01:32Z</time>
            </trkpt>
            <trkpt lon="99.427677" lat="13.999006">
                <ele>154.000000</ele>
                <time>2018-09-29T09:01:35Z</time>
            </trkpt>
            <trkpt lon="99.427812" lat="13.999165">
                <ele>153.600000</ele>
                <time>2018-09-29T09:01:40Z</time>
            </trkpt>
            <trkpt lon="99.427907" lat="13.999375">
                <ele>153.000000</ele>
                <time>2018-09-29T09:01:45Z</time>
            </trkpt>
            <trkpt lon="99.428060" lat="13.999597">
                <ele>153.000000</ele>
                <time>2018-09-29T09:01:53Z</time>
            </trkpt>
            <trkpt lon="99.428233" lat="13.999579">
                <ele>154.200000</ele>
                <time>2018-09-29T09:01:59Z</time>
            </trkpt>
            <trkpt lon="99.428638" lat="13.999357">
                <ele>154.800000</ele>
                <time>2018-09-29T09:02:11Z</time>
            </trkpt>
            <trkpt lon="99.428714" lat="13.999310">
                <ele>155.000000</ele>
                <time>2018-09-29T09:02:13Z</time>
            </trkpt>
            <trkpt lon="99.428813" lat="13.999191">
                <ele>154.800000</ele>
                <time>2018-09-29T09:02:16Z</time>
            </trkpt>
            <trkpt lon="99.428922" lat="13.999023">
                <ele>154.800000</ele>
                <time>2018-09-29T09:02:20Z</time>
            </trkpt>
            <trkpt lon="99.428959" lat="13.998981">
                <ele>154.600000</ele>
                <time>2018-09-29T09:02:21Z</time>
            </trkpt>
            <trkpt lon="99.429209" lat="13.998843">
                <ele>153.200000</ele>
                <time>2018-09-29T09:02:26Z</time>
            </trkpt>
            <trkpt lon="99.429378" lat="13.998785">
                <ele>152.000000</ele>
                <time>2018-09-29T09:02:29Z</time>
            </trkpt>
            <trkpt lon="99.429627" lat="13.998694">
                <ele>150.800000</ele>
                <time>2018-09-29T09:02:34Z</time>
            </trkpt>
            <trkpt lon="99.429828" lat="13.998649">
                <ele>149.800000</ele>
                <time>2018-09-29T09:02:39Z</time>
            </trkpt>
            <trkpt lon="99.429865" lat="13.998629">
                <ele>149.600000</ele>
                <time>2018-09-29T09:02:40Z</time>
            </trkpt>
            <trkpt lon="99.429996" lat="13.998572">
                <ele>149.600000</ele>
                <time>2018-09-29T09:02:43Z</time>
            </trkpt>
            <trkpt lon="99.430334" lat="13.998531">
                <ele>149.200000</ele>
                <time>2018-09-29T09:02:49Z</time>
            </trkpt>
            <trkpt lon="99.430513" lat="13.998478">
                <ele>149.000000</ele>
                <time>2018-09-29T09:02:52Z</time>
            </trkpt>
            <trkpt lon="99.430742" lat="13.998426">
                <ele>148.600000</ele>
                <time>2018-09-29T09:02:56Z</time>
            </trkpt>
            <trkpt lon="99.430964" lat="13.998383">
                <ele>148.400000</ele>
                <time>2018-09-29T09:03:00Z</time>
            </trkpt>
            <trkpt lon="99.431144" lat="13.998324">
                <ele>148.400000</ele>
                <time>2018-09-29T09:03:03Z</time>
            </trkpt>
            <trkpt lon="99.431458" lat="13.998459">
                <ele>148.000000</ele>
                <time>2018-09-29T09:03:09Z</time>
            </trkpt>
            <trkpt lon="99.431494" lat="13.998495">
                <ele>147.600000</ele>
                <time>2018-09-29T09:03:10Z</time>
            </trkpt>
            <trkpt lon="99.431592" lat="13.998601">
                <ele>147.000000</ele>
                <time>2018-09-29T09:03:13Z</time>
            </trkpt>
            <trkpt lon="99.431722" lat="13.998757">
                <ele>147.000000</ele>
                <time>2018-09-29T09:03:18Z</time>
            </trkpt>
            <trkpt lon="99.431876" lat="13.998653">
                <ele>148.600000</ele>
                <time>2018-09-29T09:03:27Z</time>
            </trkpt>
            <trkpt lon="99.431956" lat="13.998634">
                <ele>149.200000</ele>
                <time>2018-09-29T09:03:31Z</time>
            </trkpt>
            <trkpt lon="99.431992" lat="13.998621">
                <ele>149.200000</ele>
                <time>2018-09-29T09:03:33Z</time>
            </trkpt>
            <trkpt lon="99.432020" lat="13.998587">
                <ele>149.400000</ele>
                <time>2018-09-29T09:03:36Z</time>
            </trkpt>
            <trkpt lon="99.432059" lat="13.998573">
                <ele>149.600000</ele>
                <time>2018-09-29T09:03:39Z</time>
            </trkpt>
            <trkpt lon="99.432083" lat="13.998566">
                <ele>149.600000</ele>
                <time>2018-09-29T09:03:42Z</time>
            </trkpt>
            <trkpt lon="99.432098" lat="13.998564">
                <ele>149.800000</ele>
                <time>2018-09-29T09:03:43Z</time>
            </trkpt>
            <trkpt lon="99.432142" lat="13.998568">
                <ele>149.800000</ele>
                <time>2018-09-29T09:03:46Z</time>
            </trkpt>
            <trkpt lon="99.432230" lat="13.998609">
                <ele>149.800000</ele>
                <time>2018-09-29T09:03:52Z</time>
            </trkpt>
            <trkpt lon="99.432293" lat="13.998611">
                <ele>149.800000</ele>
                <time>2018-09-29T09:03:56Z</time>
            </trkpt>
            <trkpt lon="99.432553" lat="13.998603">
                <ele>151.000000</ele>
                <time>2018-09-29T09:04:10Z</time>
            </trkpt>
            <trkpt lon="99.432603" lat="13.998603">
                <ele>151.200000</ele>
                <time>2018-09-29T09:04:13Z</time>
            </trkpt>
            <trkpt lon="99.432778" lat="13.998689">
                <ele>152.200000</ele>
                <time>2018-09-29T09:04:23Z</time>
            </trkpt>
            <trkpt lon="99.432969" lat="13.998808">
                <ele>153.400000</ele>
                <time>2018-09-29T09:04:34Z</time>
            </trkpt>
            <trkpt lon="99.432986" lat="13.998811">
                <ele>153.600000</ele>
                <time>2018-09-29T09:04:35Z</time>
            </trkpt>
            <trkpt lon="99.433051" lat="13.998801">
                <ele>154.400000</ele>
                <time>2018-09-29T09:04:39Z</time>
            </trkpt>
            <trkpt lon="99.433241" lat="13.998773">
                <ele>155.000000</ele>
                <time>2018-09-29T09:04:50Z</time>
            </trkpt>
            <trkpt lon="99.433374" lat="13.998649">
                <ele>155.000000</ele>
                <time>2018-09-29T09:04:59Z</time>
            </trkpt>
            <trkpt lon="99.433700" lat="13.998607">
                <ele>155.000000</ele>
                <time>2018-09-29T09:05:10Z</time>
            </trkpt>
            <trkpt lon="99.433937" lat="13.998416">
                <ele>155.600000</ele>
                <time>2018-09-29T09:05:22Z</time>
            </trkpt>
            <trkpt lon="99.433996" lat="13.998227">
                <ele>154.800000</ele>
                <time>2018-09-29T09:05:27Z</time>
            </trkpt>
            <trkpt lon="99.434004" lat="13.998174">
                <ele>154.600000</ele>
                <time>2018-09-29T09:05:28Z</time>
            </trkpt>
            <trkpt lon="99.433999" lat="13.998078">
                <ele>153.800000</ele>
                <time>2018-09-29T09:05:30Z</time>
            </trkpt>
            <trkpt lon="99.434052" lat="13.997921">
                <ele>152.600000</ele>
                <time>2018-09-29T09:05:34Z</time>
            </trkpt>
            <trkpt lon="99.434185" lat="13.997856">
                <ele>151.000000</ele>
                <time>2018-09-29T09:05:37Z</time>
            </trkpt>
            <trkpt lon="99.434435" lat="13.997820">
                <ele>150.400000</ele>
                <time>2018-09-29T09:05:41Z</time>
            </trkpt>
            <trkpt lon="99.434501" lat="13.997807">
                <ele>150.200000</ele>
                <time>2018-09-29T09:05:42Z</time>
            </trkpt>
            <trkpt lon="99.434632" lat="13.997779">
                <ele>149.600000</ele>
                <time>2018-09-29T09:05:44Z</time>
            </trkpt>
            <trkpt lon="99.434759" lat="13.997760">
                <ele>149.200000</ele>
                <time>2018-09-29T09:05:46Z</time>
            </trkpt>
            <trkpt lon="99.435238" lat="13.997696">
                <ele>149.000000</ele>
                <time>2018-09-29T09:05:54Z</time>
            </trkpt>
            <trkpt lon="99.435482" lat="13.997544">
                <ele>149.000000</ele>
                <time>2018-09-29T09:05:59Z</time>
            </trkpt>
            <trkpt lon="99.435599" lat="13.997407">
                <ele>149.000000</ele>
                <time>2018-09-29T09:06:02Z</time>
            </trkpt>
            <trkpt lon="99.435731" lat="13.997230">
                <ele>148.200000</ele>
                <time>2018-09-29T09:06:09Z</time>
            </trkpt>
            <trkpt lon="99.435859" lat="13.997109">
                <ele>147.200000</ele>
                <time>2018-09-29T09:06:14Z</time>
            </trkpt>
            <trkpt lon="99.435901" lat="13.997032">
                <ele>147.000000</ele>
                <time>2018-09-29T09:06:16Z</time>
            </trkpt>
            <trkpt lon="99.435997" lat="13.996781">
                <ele>146.000000</ele>
                <time>2018-09-29T09:06:21Z</time>
            </trkpt>
            <trkpt lon="99.436102" lat="13.996603">
                <ele>145.000000</ele>
                <time>2018-09-29T09:06:24Z</time>
            </trkpt>
            <trkpt lon="99.436358" lat="13.996447">
                <ele>143.800000</ele>
                <time>2018-09-29T09:06:28Z</time>
            </trkpt>
            <trkpt lon="99.436428" lat="13.996422">
                <ele>143.400000</ele>
                <time>2018-09-29T09:06:29Z</time>
            </trkpt>
            <trkpt lon="99.436500" lat="13.996401">
                <ele>143.000000</ele>
                <time>2018-09-29T09:06:30Z</time>
            </trkpt>
            <trkpt lon="99.436568" lat="13.996380">
                <ele>142.600000</ele>
                <time>2018-09-29T09:06:31Z</time>
            </trkpt>
            <trkpt lon="99.436723" lat="13.996255">
                <ele>141.000000</ele>
                <time>2018-09-29T09:06:34Z</time>
            </trkpt>
            <trkpt lon="99.436768" lat="13.996204">
                <ele>140.400000</ele>
                <time>2018-09-29T09:06:35Z</time>
            </trkpt>
            <trkpt lon="99.436856" lat="13.996097">
                <ele>139.800000</ele>
                <time>2018-09-29T09:06:37Z</time>
            </trkpt>
            <trkpt lon="99.437202" lat="13.995754">
                <ele>138.200000</ele>
                <time>2018-09-29T09:06:44Z</time>
            </trkpt>
            <trkpt lon="99.437259" lat="13.995715">
                <ele>137.800000</ele>
                <time>2018-09-29T09:06:45Z</time>
            </trkpt>
            <trkpt lon="99.437441" lat="13.995643">
                <ele>137.200000</ele>
                <time>2018-09-29T09:06:48Z</time>
            </trkpt>
            <trkpt lon="99.437563" lat="13.995599">
                <ele>136.800000</ele>
                <time>2018-09-29T09:06:50Z</time>
            </trkpt>
            <trkpt lon="99.437875" lat="13.995287">
                <ele>136.200000</ele>
                <time>2018-09-29T09:06:57Z</time>
            </trkpt>
            <trkpt lon="99.437943" lat="13.995159">
                <ele>135.800000</ele>
                <time>2018-09-29T09:06:59Z</time>
            </trkpt>
            <trkpt lon="99.438051" lat="13.995054">
                <ele>135.000000</ele>
                <time>2018-09-29T09:07:01Z</time>
            </trkpt>
            <trkpt lon="99.438482" lat="13.994922">
                <ele>134.400000</ele>
                <time>2018-09-29T09:07:07Z</time>
            </trkpt>
            <trkpt lon="99.438556" lat="13.994906">
                <ele>134.000000</ele>
                <time>2018-09-29T09:07:08Z</time>
            </trkpt>
            <trkpt lon="99.438624" lat="13.994884">
                <ele>133.800000</ele>
                <time>2018-09-29T09:07:09Z</time>
            </trkpt>
            <trkpt lon="99.438763" lat="13.994699">
                <ele>133.200000</ele>
                <time>2018-09-29T09:07:13Z</time>
            </trkpt>
            <trkpt lon="99.438844" lat="13.994534">
                <ele>132.800000</ele>
                <time>2018-09-29T09:07:16Z</time>
            </trkpt>
            <trkpt lon="99.438896" lat="13.994421">
                <ele>132.800000</ele>
                <time>2018-09-29T09:07:18Z</time>
            </trkpt>
            <trkpt lon="99.438936" lat="13.994174">
                <ele>132.400000</ele>
                <time>2018-09-29T09:07:22Z</time>
            </trkpt>
            <trkpt lon="99.438856" lat="13.993803">
                <ele>131.600000</ele>
                <time>2018-09-29T09:07:28Z</time>
            </trkpt>
            <trkpt lon="99.438622" lat="13.993652">
                <ele>130.600000</ele>
                <time>2018-09-29T09:07:34Z</time>
            </trkpt>
            <trkpt lon="99.438557" lat="13.993652">
                <ele>130.400000</ele>
                <time>2018-09-29T09:07:35Z</time>
            </trkpt>
            <trkpt lon="99.438199" lat="13.993636">
                <ele>129.800000</ele>
                <time>2018-09-29T09:07:42Z</time>
            </trkpt>
            <trkpt lon="99.438180" lat="13.993464">
                <ele>129.600000</ele>
                <time>2018-09-29T09:07:47Z</time>
            </trkpt>
            <trkpt lon="99.438184" lat="13.993371">
                <ele>129.600000</ele>
                <time>2018-09-29T09:07:49Z</time>
            </trkpt>
            <trkpt lon="99.438147" lat="13.993177">
                <ele>130.000000</ele>
                <time>2018-09-29T09:07:53Z</time>
            </trkpt>
            <trkpt lon="99.438182" lat="13.992896">
                <ele>130.000000</ele>
                <time>2018-09-29T09:07:59Z</time>
            </trkpt>
            <trkpt lon="99.438211" lat="13.992818">
                <ele>129.800000</ele>
                <time>2018-09-29T09:08:01Z</time>
            </trkpt>
            <trkpt lon="99.438305" lat="13.992631">
                <ele>129.200000</ele>
                <time>2018-09-29T09:08:06Z</time>
            </trkpt>
            <trkpt lon="99.438284" lat="13.992479">
                <ele>128.800000</ele>
                <time>2018-09-29T09:08:09Z</time>
            </trkpt>
            <trkpt lon="99.438274" lat="13.992372">
                <ele>128.400000</ele>
                <time>2018-09-29T09:08:11Z</time>
            </trkpt>
            <trkpt lon="99.438285" lat="13.992309">
                <ele>128.400000</ele>
                <time>2018-09-29T09:08:12Z</time>
            </trkpt>
            <trkpt lon="99.438325" lat="13.992137">
                <ele>128.000000</ele>
                <time>2018-09-29T09:08:15Z</time>
            </trkpt>
            <trkpt lon="99.438502" lat="13.991952">
                <ele>127.200000</ele>
                <time>2018-09-29T09:08:19Z</time>
            </trkpt>
            <trkpt lon="99.438759" lat="13.991749">
                <ele>126.600000</ele>
                <time>2018-09-29T09:08:24Z</time>
            </trkpt>
            <trkpt lon="99.438810" lat="13.991718">
                <ele>126.800000</ele>
                <time>2018-09-29T09:08:25Z</time>
            </trkpt>
            <trkpt lon="99.438948" lat="13.991580">
                <ele>126.400000</ele>
                <time>2018-09-29T09:08:28Z</time>
            </trkpt>
            <trkpt lon="99.439077" lat="13.991464">
                <ele>126.000000</ele>
                <time>2018-09-29T09:08:31Z</time>
            </trkpt>
            <trkpt lon="99.439113" lat="13.991433">
                <ele>125.800000</ele>
                <time>2018-09-29T09:08:32Z</time>
            </trkpt>
            <trkpt lon="99.439312" lat="13.991347">
                <ele>125.400000</ele>
                <time>2018-09-29T09:08:37Z</time>
            </trkpt>
            <trkpt lon="99.439657" lat="13.991176">
                <ele>124.800000</ele>
                <time>2018-09-29T09:08:48Z</time>
            </trkpt>
            <trkpt lon="99.439732" lat="13.991160">
                <ele>124.800000</ele>
                <time>2018-09-29T09:08:50Z</time>
            </trkpt>
            <trkpt lon="99.439789" lat="13.990991">
                <ele>124.600000</ele>
                <time>2018-09-29T09:08:55Z</time>
            </trkpt>
            <trkpt lon="99.439750" lat="13.990942">
                <ele>124.400000</ele>
                <time>2018-09-29T09:08:57Z</time>
            </trkpt>
            <trkpt lon="99.439643" lat="13.990618">
                <ele>124.000000</ele>
                <time>2018-09-29T09:09:06Z</time>
            </trkpt>
            <trkpt lon="99.439665" lat="13.990562">
                <ele>123.800000</ele>
                <time>2018-09-29T09:09:07Z</time>
            </trkpt>
            <trkpt lon="99.439629" lat="13.990423">
                <ele>123.600000</ele>
                <time>2018-09-29T09:09:11Z</time>
            </trkpt>
            <trkpt lon="99.439596" lat="13.990415">
                <ele>123.600000</ele>
                <time>2018-09-29T09:09:12Z</time>
            </trkpt>
            <trkpt lon="99.439522" lat="13.990397">
                <ele>123.400000</ele>
                <time>2018-09-29T09:09:14Z</time>
            </trkpt>
            <trkpt lon="99.439350" lat="13.990340">
                <ele>123.400000</ele>
                <time>2018-09-29T09:09:18Z</time>
            </trkpt>
            <trkpt lon="99.439177" lat="13.990311">
                <ele>123.200000</ele>
                <time>2018-09-29T09:09:22Z</time>
            </trkpt>
            <trkpt lon="99.439134" lat="13.990304">
                <ele>123.200000</ele>
                <time>2018-09-29T09:09:23Z</time>
            </trkpt>
            <trkpt lon="99.439048" lat="13.990293">
                <ele>123.400000</ele>
                <time>2018-09-29T09:09:25Z</time>
            </trkpt>
            <trkpt lon="99.438833" lat="13.990252">
                <ele>123.600000</ele>
                <time>2018-09-29T09:09:30Z</time>
            </trkpt>
            <trkpt lon="99.438789" lat="13.990245">
                <ele>123.600000</ele>
                <time>2018-09-29T09:09:31Z</time>
            </trkpt>
            <trkpt lon="99.438705" lat="13.990226">
                <ele>123.800000</ele>
                <time>2018-09-29T09:09:33Z</time>
            </trkpt>
            <trkpt lon="99.438582" lat="13.990192">
                <ele>124.200000</ele>
                <time>2018-09-29T09:09:36Z</time>
            </trkpt>
            <trkpt lon="99.438463" lat="13.990164">
                <ele>124.600000</ele>
                <time>2018-09-29T09:09:39Z</time>
            </trkpt>
            <trkpt lon="99.438434" lat="13.990141">
                <ele>124.800000</ele>
                <time>2018-09-29T09:09:40Z</time>
            </trkpt>
            <trkpt lon="99.438526" lat="13.989998">
                <ele>125.000000</ele>
                <time>2018-09-29T09:09:45Z</time>
            </trkpt>
            <trkpt lon="99.438600" lat="13.989940">
                <ele>125.000000</ele>
                <time>2018-09-29T09:09:47Z</time>
            </trkpt>
            <trkpt lon="99.438731" lat="13.989784">
                <ele>125.000000</ele>
                <time>2018-09-29T09:09:51Z</time>
            </trkpt>
            <trkpt lon="99.438810" lat="13.989651">
                <ele>124.800000</ele>
                <time>2018-09-29T09:09:54Z</time>
            </trkpt>
            <trkpt lon="99.439040" lat="13.989125">
                <ele>124.000000</ele>
                <time>2018-09-29T09:10:05Z</time>
            </trkpt>
            <trkpt lon="99.439185" lat="13.988852">
                <ele>123.600000</ele>
                <time>2018-09-29T09:10:10Z</time>
            </trkpt>
            <trkpt lon="99.439444" lat="13.988332">
                <ele>122.800000</ele>
                <time>2018-09-29T09:10:19Z</time>
            </trkpt>
            <trkpt lon="99.439499" lat="13.988226">
                <ele>122.600000</ele>
                <time>2018-09-29T09:10:21Z</time>
            </trkpt>
            <trkpt lon="99.439661" lat="13.987954">
                <ele>122.200000</ele>
                <time>2018-09-29T09:10:26Z</time>
            </trkpt>
            <trkpt lon="99.439674" lat="13.987703">
                <ele>122.000000</ele>
                <time>2018-09-29T09:10:30Z</time>
            </trkpt>
            <trkpt lon="99.439669" lat="13.987659">
                <ele>122.000000</ele>
                <time>2018-09-29T09:10:31Z</time>
            </trkpt>
            <trkpt lon="99.439659" lat="13.987638">
                <ele>122.000000</ele>
                <time>2018-09-29T09:10:33Z</time>
            </trkpt>
            <trkpt lon="99.439652" lat="13.987642">
                <ele>122.000000</ele>
                <time>2018-09-29T09:10:34Z</time>
            </trkpt>
            <trkpt lon="99.439617" lat="13.987649">
                <ele>122.000000</ele>
                <time>2018-09-29T09:10:38Z</time>
            </trkpt>
            <trkpt lon="99.439550" lat="13.987596">
                <ele>122.600000</ele>
                <time>2018-09-29T09:10:43Z</time>
            </trkpt>
            <trkpt lon="99.439351" lat="13.987385">
                <ele>122.600000</ele>
                <time>2018-09-29T09:10:52Z</time>
            </trkpt>
            <trkpt lon="99.439284" lat="13.987283">
                <ele>122.800000</ele>
                <time>2018-09-29T09:10:57Z</time>
            </trkpt>
            <trkpt lon="99.439265" lat="13.987248">
                <ele>122.800000</ele>
                <time>2018-09-29T09:10:59Z</time>
            </trkpt>
            <trkpt lon="99.439177" lat="13.987041">
                <ele>122.800000</ele>
                <time>2018-09-29T09:11:08Z</time>
            </trkpt>
            <trkpt lon="99.439175" lat="13.986945">
                <ele>122.800000</ele>
                <time>2018-09-29T09:11:14Z</time>
            </trkpt>
            <trkpt lon="99.439163" lat="13.986897">
                <ele>122.800000</ele>
                <time>2018-09-29T09:11:16Z</time>
            </trkpt>
            <trkpt lon="99.438839" lat="13.986714">
                <ele>122.400000</ele>
                <time>2018-09-29T09:11:28Z</time>
            </trkpt>
            <trkpt lon="99.438756" lat="13.986706">
                <ele>122.200000</ele>
                <time>2018-09-29T09:11:32Z</time>
            </trkpt>
            <trkpt lon="99.438736" lat="13.986693">
                <ele>122.200000</ele>
                <time>2018-09-29T09:11:34Z</time>
            </trkpt>
            <trkpt lon="99.438550" lat="13.986716">
                <ele>122.200000</ele>
                <time>2018-09-29T09:11:41Z</time>
            </trkpt>
            <trkpt lon="99.438061" lat="13.986972">
                <ele>122.600000</ele>
                <time>2018-09-29T09:11:55Z</time>
            </trkpt>
            <trkpt lon="99.437609" lat="13.987265">
                <ele>123.600000</ele>
                <time>2018-09-29T09:12:09Z</time>
            </trkpt>
            <trkpt lon="99.437488" lat="13.987367">
                <ele>124.000000</ele>
                <time>2018-09-29T09:12:14Z</time>
            </trkpt>
            <trkpt lon="99.437222" lat="13.987471">
                <ele>124.800000</ele>
                <time>2018-09-29T09:12:23Z</time>
            </trkpt>
            <trkpt lon="99.436862" lat="13.987629">
                <ele>125.200000</ele>
                <time>2018-09-29T09:12:34Z</time>
            </trkpt>
            <trkpt lon="99.436604" lat="13.987720">
                <ele>125.200000</ele>
                <time>2018-09-29T09:12:40Z</time>
            </trkpt>
            <trkpt lon="99.436082" lat="13.987904">
                <ele>125.200000</ele>
                <time>2018-09-29T09:12:52Z</time>
            </trkpt>
            <trkpt lon="99.435712" lat="13.988030">
                <ele>125.800000</ele>
                <time>2018-09-29T09:13:01Z</time>
            </trkpt>
            <trkpt lon="99.435600" lat="13.988084">
                <ele>126.000000</ele>
                <time>2018-09-29T09:13:04Z</time>
            </trkpt>
            <trkpt lon="99.435480" lat="13.988233">
                <ele>126.200000</ele>
                <time>2018-09-29T09:13:09Z</time>
            </trkpt>
            <trkpt lon="99.435419" lat="13.988290">
                <ele>126.200000</ele>
                <time>2018-09-29T09:13:11Z</time>
            </trkpt>
            <trkpt lon="99.435244" lat="13.988408">
                <ele>126.400000</ele>
                <time>2018-09-29T09:13:16Z</time>
            </trkpt>
            <trkpt lon="99.435045" lat="13.988505">
                <ele>126.800000</ele>
                <time>2018-09-29T09:13:22Z</time>
            </trkpt>
            <trkpt lon="99.434961" lat="13.988424">
                <ele>127.000000</ele>
                <time>2018-09-29T09:13:25Z</time>
            </trkpt>
            <trkpt lon="99.434931" lat="13.988397">
                <ele>127.000000</ele>
                <time>2018-09-29T09:13:26Z</time>
            </trkpt>
            <trkpt lon="99.434862" lat="13.988352">
                <ele>127.000000</ele>
                <time>2018-09-29T09:13:28Z</time>
            </trkpt>
            <trkpt lon="99.434720" lat="13.988310">
                <ele>127.200000</ele>
                <time>2018-09-29T09:13:32Z</time>
            </trkpt>
            <trkpt lon="99.434305" lat="13.988405">
                <ele>127.800000</ele>
                <time>2018-09-29T09:13:43Z</time>
            </trkpt>
            <trkpt lon="99.434177" lat="13.988553">
                <ele>128.000000</ele>
                <time>2018-09-29T09:13:49Z</time>
            </trkpt>
            <trkpt lon="99.434229" lat="13.989011">
                <ele>127.600000</ele>
                <time>2018-09-29T09:14:03Z</time>
            </trkpt>
            <trkpt lon="99.434191" lat="13.989076">
                <ele>127.600000</ele>
                <time>2018-09-29T09:14:05Z</time>
            </trkpt>
            <trkpt lon="99.433778" lat="13.989428">
                <ele>128.800000</ele>
                <time>2018-09-29T09:14:21Z</time>
            </trkpt>
            <trkpt lon="99.433444" lat="13.989643">
                <ele>129.800000</ele>
                <time>2018-09-29T09:14:33Z</time>
            </trkpt>
            <trkpt lon="99.433126" lat="13.989769">
                <ele>130.800000</ele>
                <time>2018-09-29T09:14:43Z</time>
            </trkpt>
            <trkpt lon="99.432829" lat="13.990212">
                <ele>131.200000</ele>
                <time>2018-09-29T09:14:59Z</time>
            </trkpt>
            <trkpt lon="99.432432" lat="13.990493">
                <ele>131.800000</ele>
                <time>2018-09-29T09:15:14Z</time>
            </trkpt>
            <trkpt lon="99.432152" lat="13.990902">
                <ele>132.800000</ele>
                <time>2018-09-29T09:15:29Z</time>
            </trkpt>
            <trkpt lon="99.431799" lat="13.991288">
                <ele>133.800000</ele>
                <time>2018-09-29T09:15:46Z</time>
            </trkpt>
            <trkpt lon="99.431453" lat="13.991702">
                <ele>134.400000</ele>
                <time>2018-09-29T09:16:00Z</time>
            </trkpt>
            <trkpt lon="99.431055" lat="13.992021">
                <ele>134.600000</ele>
                <time>2018-09-29T09:16:15Z</time>
            </trkpt>
            <trkpt lon="99.430998" lat="13.992065">
                <ele>134.800000</ele>
                <time>2018-09-29T09:16:17Z</time>
            </trkpt>
            <trkpt lon="99.430683" lat="13.992457">
                <ele>135.200000</ele>
                <time>2018-09-29T09:16:33Z</time>
            </trkpt>
            <trkpt lon="99.430205" lat="13.992454">
                <ele>135.800000</ele>
                <time>2018-09-29T09:16:45Z</time>
            </trkpt>
            <trkpt lon="99.430081" lat="13.992356">
                <ele>136.000000</ele>
                <time>2018-09-29T09:16:49Z</time>
            </trkpt>
            <trkpt lon="99.429972" lat="13.992173">
                <ele>136.800000</ele>
                <time>2018-09-29T09:16:54Z</time>
            </trkpt>
            <trkpt lon="99.429903" lat="13.992118">
                <ele>136.800000</ele>
                <time>2018-09-29T09:16:56Z</time>
            </trkpt>
            <trkpt lon="99.429466" lat="13.991816">
                <ele>136.600000</ele>
                <time>2018-09-29T09:17:08Z</time>
            </trkpt>
            <trkpt lon="99.429267" lat="13.991758">
                <ele>136.400000</ele>
                <time>2018-09-29T09:17:13Z</time>
            </trkpt>
            <trkpt lon="99.429230" lat="13.991744">
                <ele>136.400000</ele>
                <time>2018-09-29T09:17:14Z</time>
            </trkpt>
            <trkpt lon="99.428848" lat="13.991666">
                <ele>137.200000</ele>
                <time>2018-09-29T09:17:25Z</time>
            </trkpt>
            <trkpt lon="99.428671" lat="13.991465">
                <ele>137.800000</ele>
                <time>2018-09-29T09:17:31Z</time>
            </trkpt>
            <trkpt lon="99.428295" lat="13.991041">
                <ele>138.000000</ele>
                <time>2018-09-29T09:17:43Z</time>
            </trkpt>
            <trkpt lon="99.428181" lat="13.990910">
                <ele>138.000000</ele>
                <time>2018-09-29T09:17:47Z</time>
            </trkpt>
            <trkpt lon="99.428058" lat="13.990515">
                <ele>138.400000</ele>
                <time>2018-09-29T09:17:57Z</time>
            </trkpt>
            <trkpt lon="99.427985" lat="13.990446">
                <ele>138.400000</ele>
                <time>2018-09-29T09:17:59Z</time>
            </trkpt>
            <trkpt lon="99.427783" lat="13.990297">
                <ele>138.400000</ele>
                <time>2018-09-29T09:18:04Z</time>
            </trkpt>
            <trkpt lon="99.427404" lat="13.989851">
                <ele>137.800000</ele>
                <time>2018-09-29T09:18:13Z</time>
            </trkpt>
            <trkpt lon="99.427181" lat="13.989593">
                <ele>136.600000</ele>
                <time>2018-09-29T09:18:18Z</time>
            </trkpt>
            <trkpt lon="99.427090" lat="13.989497">
                <ele>136.200000</ele>
                <time>2018-09-29T09:18:20Z</time>
            </trkpt>
            <trkpt lon="99.426681" lat="13.989090">
                <ele>135.800000</ele>
                <time>2018-09-29T09:18:30Z</time>
            </trkpt>
            <trkpt lon="99.426552" lat="13.988984">
                <ele>135.600000</ele>
                <time>2018-09-29T09:18:33Z</time>
            </trkpt>
            <trkpt lon="99.426122" lat="13.988615">
                <ele>136.000000</ele>
                <time>2018-09-29T09:18:44Z</time>
            </trkpt>
            <trkpt lon="99.425769" lat="13.988317">
                <ele>137.000000</ele>
                <time>2018-09-29T09:18:54Z</time>
            </trkpt>
            <trkpt lon="99.425607" lat="13.988206">
                <ele>137.200000</ele>
                <time>2018-09-29T09:18:58Z</time>
            </trkpt>
            <trkpt lon="99.425143" lat="13.987910">
                <ele>136.800000</ele>
                <time>2018-09-29T09:19:08Z</time>
            </trkpt>
            <trkpt lon="99.424712" lat="13.987505">
                <ele>135.800000</ele>
                <time>2018-09-29T09:19:16Z</time>
            </trkpt>
            <trkpt lon="99.424655" lat="13.987453">
                <ele>135.600000</ele>
                <time>2018-09-29T09:19:17Z</time>
            </trkpt>
            <trkpt lon="99.424507" lat="13.987312">
                <ele>134.200000</ele>
                <time>2018-09-29T09:19:20Z</time>
            </trkpt>
            <trkpt lon="99.424221" lat="13.987013">
                <ele>134.000000</ele>
                <time>2018-09-29T09:19:32Z</time>
            </trkpt>
            <trkpt lon="99.424165" lat="13.987065">
                <ele>135.400000</ele>
                <time>2018-09-29T09:19:35Z</time>
            </trkpt>
            <trkpt lon="99.424095" lat="13.987141">
                <ele>136.400000</ele>
                <time>2018-09-29T09:19:38Z</time>
            </trkpt>
            <trkpt lon="99.423973" lat="13.987255">
                <ele>137.000000</ele>
                <time>2018-09-29T09:19:42Z</time>
            </trkpt>
            <trkpt lon="99.423637" lat="13.987534">
                <ele>137.400000</ele>
                <time>2018-09-29T09:19:54Z</time>
            </trkpt>
            <trkpt lon="99.423566" lat="13.987571">
                <ele>140.000000</ele>
                <time>2018-09-29T09:20:52Z</time>
            </trkpt>
            <trkpt lon="99.423146" lat="13.987880">
                <ele>140.200000</ele>
                <time>2018-09-29T09:21:09Z</time>
            </trkpt>
            <trkpt lon="99.423125" lat="13.987810">
                <ele>144.800000</ele>
                <time>2018-09-29T09:37:39Z</time>
            </trkpt>
            <trkpt lon="99.423575" lat="13.987529">
                <ele>144.200000</ele>
                <time>2018-09-29T09:37:56Z</time>
            </trkpt>
            <trkpt lon="99.423702" lat="13.987425">
                <ele>143.800000</ele>
                <time>2018-09-29T09:38:00Z</time>
            </trkpt>
            <trkpt lon="99.423839" lat="13.987313">
                <ele>143.400000</ele>
                <time>2018-09-29T09:38:04Z</time>
            </trkpt>
            <trkpt lon="99.423910" lat="13.987250">
                <ele>143.400000</ele>
                <time>2018-09-29T09:38:06Z</time>
            </trkpt>
            <trkpt lon="99.424093" lat="13.987082">
                <ele>142.800000</ele>
                <time>2018-09-29T09:38:11Z</time>
            </trkpt>
            <trkpt lon="99.424454" lat="13.986687">
                <ele>141.800000</ele>
                <time>2018-09-29T09:38:21Z</time>
            </trkpt>
            <trkpt lon="99.424523" lat="13.986597">
                <ele>141.400000</ele>
                <time>2018-09-29T09:38:23Z</time>
            </trkpt>
            <trkpt lon="99.424531" lat="13.986389">
                <ele>140.600000</ele>
                <time>2018-09-29T09:38:27Z</time>
            </trkpt>
            <trkpt lon="99.424486" lat="13.986176">
                <ele>140.000000</ele>
                <time>2018-09-29T09:38:32Z</time>
            </trkpt>
            <trkpt lon="99.424481" lat="13.986133">
                <ele>140.200000</ele>
                <time>2018-09-29T09:38:33Z</time>
            </trkpt>
            <trkpt lon="99.424063" lat="13.985895">
                <ele>140.000000</ele>
                <time>2018-09-29T09:38:45Z</time>
            </trkpt>
            <trkpt lon="99.424035" lat="13.985853">
                <ele>140.000000</ele>
                <time>2018-09-29T09:38:46Z</time>
            </trkpt>
            <trkpt lon="99.423712" lat="13.985364">
                <ele>140.000000</ele>
                <time>2018-09-29T09:38:57Z</time>
            </trkpt>
            <trkpt lon="99.423387" lat="13.984877">
                <ele>140.000000</ele>
                <time>2018-09-29T09:39:08Z</time>
            </trkpt>
            <trkpt lon="99.423172" lat="13.984548">
                <ele>140.000000</ele>
                <time>2018-09-29T09:39:16Z</time>
            </trkpt>
            <trkpt lon="99.422987" lat="13.984528">
                <ele>140.000000</ele>
                <time>2018-09-29T09:39:20Z</time>
            </trkpt>
            <trkpt lon="99.422915" lat="13.984516">
                <ele>140.000000</ele>
                <time>2018-09-29T09:39:22Z</time>
            </trkpt>
            <trkpt lon="99.422848" lat="13.984455">
                <ele>139.800000</ele>
                <time>2018-09-29T09:39:25Z</time>
            </trkpt>
            <trkpt lon="99.422698" lat="13.984471">
                <ele>139.000000</ele>
                <time>2018-09-29T09:39:28Z</time>
            </trkpt>
            <trkpt lon="99.422587" lat="13.984493">
                <ele>138.600000</ele>
                <time>2018-09-29T09:39:30Z</time>
            </trkpt>
            <trkpt lon="99.422248" lat="13.984574">
                <ele>137.400000</ele>
                <time>2018-09-29T09:39:36Z</time>
            </trkpt>
            <trkpt lon="99.422142" lat="13.984598">
                <ele>136.000000</ele>
                <time>2018-09-29T09:39:38Z</time>
            </trkpt>
            <trkpt lon="99.422031" lat="13.984471">
                <ele>135.800000</ele>
                <time>2018-09-29T09:39:42Z</time>
            </trkpt>
            <trkpt lon="99.421875" lat="13.983926">
                <ele>135.800000</ele>
                <time>2018-09-29T09:39:53Z</time>
            </trkpt>
            <trkpt lon="99.421802" lat="13.983772">
                <ele>135.800000</ele>
                <time>2018-09-29T09:39:56Z</time>
            </trkpt>
            <trkpt lon="99.421821" lat="13.983577">
                <ele>135.800000</ele>
                <time>2018-09-29T09:40:04Z</time>
            </trkpt>
            <trkpt lon="99.421878" lat="13.983502">
                <ele>135.600000</ele>
                <time>2018-09-29T09:40:06Z</time>
            </trkpt>
            <trkpt lon="99.421980" lat="13.983303">
                <ele>135.400000</ele>
                <time>2018-09-29T09:40:10Z</time>
            </trkpt>
            <trkpt lon="99.422085" lat="13.983095">
                <ele>134.800000</ele>
                <time>2018-09-29T09:40:14Z</time>
            </trkpt>
            <trkpt lon="99.422171" lat="13.982944">
                <ele>134.200000</ele>
                <time>2018-09-29T09:40:17Z</time>
            </trkpt>
            <trkpt lon="99.422163" lat="13.982748">
                <ele>133.600000</ele>
                <time>2018-09-29T09:40:21Z</time>
            </trkpt>
            <trkpt lon="99.422129" lat="13.982593">
                <ele>133.000000</ele>
                <time>2018-09-29T09:40:24Z</time>
            </trkpt>
            <trkpt lon="99.422122" lat="13.982330">
                <ele>132.800000</ele>
                <time>2018-09-29T09:40:29Z</time>
            </trkpt>
            <trkpt lon="99.422107" lat="13.982281">
                <ele>132.600000</ele>
                <time>2018-09-29T09:40:30Z</time>
            </trkpt>
            <trkpt lon="99.422085" lat="13.982231">
                <ele>132.200000</ele>
                <time>2018-09-29T09:40:32Z</time>
            </trkpt>
            <trkpt lon="99.422074" lat="13.982229">
                <ele>132.200000</ele>
                <time>2018-09-29T09:40:34Z</time>
            </trkpt>
            <trkpt lon="99.422070" lat="13.982235">
                <ele>132.200000</ele>
                <time>2018-09-29T09:40:36Z</time>
            </trkpt>
            <trkpt lon="99.421938" lat="13.982314">
                <ele>132.200000</ele>
                <time>2018-09-29T09:40:44Z</time>
            </trkpt>
            <trkpt lon="99.421867" lat="13.982376">
                <ele>132.200000</ele>
                <time>2018-09-29T09:40:48Z</time>
            </trkpt>
            <trkpt lon="99.421845" lat="13.982385">
                <ele>132.200000</ele>
                <time>2018-09-29T09:40:49Z</time>
            </trkpt>
            <trkpt lon="99.421660" lat="13.982353">
                <ele>132.800000</ele>
                <time>2018-09-29T09:40:59Z</time>
            </trkpt>
            <trkpt lon="99.421628" lat="13.982314">
                <ele>132.800000</ele>
                <time>2018-09-29T09:41:01Z</time>
            </trkpt>
            <trkpt lon="99.421480" lat="13.982267">
                <ele>133.400000</ele>
                <time>2018-09-29T09:41:08Z</time>
            </trkpt>
            <trkpt lon="99.421431" lat="13.982299">
                <ele>133.800000</ele>
                <time>2018-09-29T09:41:11Z</time>
            </trkpt>
            <trkpt lon="99.421396" lat="13.982311">
                <ele>133.800000</ele>
                <time>2018-09-29T09:41:13Z</time>
            </trkpt>
            <trkpt lon="99.421324" lat="13.982330">
                <ele>134.200000</ele>
                <time>2018-09-29T09:41:18Z</time>
            </trkpt>
            <trkpt lon="99.421229" lat="13.982313">
                <ele>134.400000</ele>
                <time>2018-09-29T09:41:23Z</time>
            </trkpt>
            <trkpt lon="99.421054" lat="13.982234">
                <ele>135.000000</ele>
                <time>2018-09-29T09:41:33Z</time>
            </trkpt>
            <trkpt lon="99.420909" lat="13.981877">
                <ele>136.000000</ele>
                <time>2018-09-29T09:41:52Z</time>
            </trkpt>
            <trkpt lon="99.420880" lat="13.981850">
                <ele>136.000000</ele>
                <time>2018-09-29T09:41:54Z</time>
            </trkpt>
            <trkpt lon="99.420730" lat="13.981831">
                <ele>136.200000</ele>
                <time>2018-09-29T09:42:01Z</time>
            </trkpt>
            <trkpt lon="99.420647" lat="13.981797">
                <ele>136.600000</ele>
                <time>2018-09-29T09:42:06Z</time>
            </trkpt>
            <trkpt lon="99.420591" lat="13.981784">
                <ele>137.000000</ele>
                <time>2018-09-29T09:42:23Z</time>
            </trkpt>
            <trkpt lon="99.420350" lat="13.981938">
                <ele>137.200000</ele>
                <time>2018-09-29T09:42:40Z</time>
            </trkpt>
            <trkpt lon="99.420196" lat="13.981887">
                <ele>137.600000</ele>
                <time>2018-09-29T09:42:48Z</time>
            </trkpt>
            <trkpt lon="99.419662" lat="13.981754">
                <ele>138.000000</ele>
                <time>2018-09-29T09:43:09Z</time>
            </trkpt>
            <trkpt lon="99.419559" lat="13.981754">
                <ele>138.200000</ele>
                <time>2018-09-29T09:43:13Z</time>
            </trkpt>
            <trkpt lon="99.419247" lat="13.981771">
                <ele>139.000000</ele>
                <time>2018-09-29T09:43:26Z</time>
            </trkpt>
            <trkpt lon="99.419224" lat="13.981771">
                <ele>139.200000</ele>
                <time>2018-09-29T09:43:27Z</time>
            </trkpt>
            <trkpt lon="99.419000" lat="13.981746">
                <ele>140.200000</ele>
                <time>2018-09-29T09:43:36Z</time>
            </trkpt>
            <trkpt lon="99.418709" lat="13.981761">
                <ele>141.200000</ele>
                <time>2018-09-29T09:43:49Z</time>
            </trkpt>
            <trkpt lon="99.418478" lat="13.981864">
                <ele>142.400000</ele>
                <time>2018-09-29T09:44:00Z</time>
            </trkpt>
            <trkpt lon="99.418222" lat="13.981765">
                <ele>143.400000</ele>
                <time>2018-09-29T09:44:13Z</time>
            </trkpt>
            <trkpt lon="99.417995" lat="13.981564">
                <ele>144.400000</ele>
                <time>2018-09-29T09:44:27Z</time>
            </trkpt>
            <trkpt lon="99.417848" lat="13.981374">
                <ele>145.400000</ele>
                <time>2018-09-29T09:44:38Z</time>
            </trkpt>
            <trkpt lon="99.417577" lat="13.981144">
                <ele>146.400000</ele>
                <time>2018-09-29T09:44:54Z</time>
            </trkpt>
            <trkpt lon="99.417245" lat="13.981128">
                <ele>147.600000</ele>
                <time>2018-09-29T09:45:09Z</time>
            </trkpt>
            <trkpt lon="99.417010" lat="13.981287">
                <ele>148.600000</ele>
                <time>2018-09-29T09:45:21Z</time>
            </trkpt>
            <trkpt lon="99.416921" lat="13.981322">
                <ele>148.800000</ele>
                <time>2018-09-29T09:45:26Z</time>
            </trkpt>
            <trkpt lon="99.416866" lat="13.981464">
                <ele>149.600000</ele>
                <time>2018-09-29T09:45:34Z</time>
            </trkpt>
            <trkpt lon="99.416705" lat="13.981741">
                <ele>150.600000</ele>
                <time>2018-09-29T09:45:48Z</time>
            </trkpt>
            <trkpt lon="99.416671" lat="13.982025">
                <ele>151.800000</ele>
                <time>2018-09-29T09:46:01Z</time>
            </trkpt>
            <trkpt lon="99.416546" lat="13.982241">
                <ele>153.000000</ele>
                <time>2018-09-29T09:46:14Z</time>
            </trkpt>
            <trkpt lon="99.416546" lat="13.982326">
                <ele>153.400000</ele>
                <time>2018-09-29T09:46:19Z</time>
            </trkpt>
            <trkpt lon="99.416517" lat="13.982422">
                <ele>154.000000</ele>
                <time>2018-09-29T09:46:24Z</time>
            </trkpt>
            <trkpt lon="99.416501" lat="13.982482">
                <ele>154.000000</ele>
                <time>2018-09-29T09:46:27Z</time>
            </trkpt>
            <trkpt lon="99.416359" lat="13.982666">
                <ele>155.000000</ele>
                <time>2018-09-29T09:46:38Z</time>
            </trkpt>
            <trkpt lon="99.416232" lat="13.982934">
                <ele>156.000000</ele>
                <time>2018-09-29T09:46:51Z</time>
            </trkpt>
            <trkpt lon="99.416152" lat="13.983140">
                <ele>157.200000</ele>
                <time>2018-09-29T09:47:01Z</time>
            </trkpt>
            <trkpt lon="99.416046" lat="13.983361">
                <ele>158.200000</ele>
                <time>2018-09-29T09:47:13Z</time>
            </trkpt>
            <trkpt lon="99.415939" lat="13.983455">
                <ele>159.000000</ele>
                <time>2018-09-29T09:47:20Z</time>
            </trkpt>
            <trkpt lon="99.415898" lat="13.983473">
                <ele>159.200000</ele>
                <time>2018-09-29T09:47:22Z</time>
            </trkpt>
            <trkpt lon="99.415546" lat="13.983552">
                <ele>160.200000</ele>
                <time>2018-09-29T09:47:42Z</time>
            </trkpt>
            <trkpt lon="99.415503" lat="13.983569">
                <ele>160.400000</ele>
                <time>2018-09-29T09:47:45Z</time>
            </trkpt>
            <trkpt lon="99.415375" lat="13.983617">
                <ele>160.600000</ele>
                <time>2018-09-29T09:47:54Z</time>
            </trkpt>
            <trkpt lon="99.415288" lat="13.983625">
                <ele>161.000000</ele>
                <time>2018-09-29T09:48:00Z</time>
            </trkpt>
            <trkpt lon="99.415273" lat="13.983629">
                <ele>161.000000</ele>
                <time>2018-09-29T09:48:01Z</time>
            </trkpt>
            <trkpt lon="99.415243" lat="13.983631">
                <ele>161.200000</ele>
                <time>2018-09-29T09:48:03Z</time>
            </trkpt>
            <trkpt lon="99.415226" lat="13.983632">
                <ele>161.400000</ele>
                <time>2018-09-29T09:48:04Z</time>
            </trkpt>
            <trkpt lon="99.415167" lat="13.983635">
                <ele>162.000000</ele>
                <time>2018-09-29T09:48:08Z</time>
            </trkpt>
            <trkpt lon="99.415125" lat="13.983640">
                <ele>162.400000</ele>
                <time>2018-09-29T09:48:11Z</time>
            </trkpt>
            <trkpt lon="99.415065" lat="13.983647">
                <ele>162.600000</ele>
                <time>2018-09-29T09:48:15Z</time>
            </trkpt>
            <trkpt lon="99.414896" lat="13.983669">
                <ele>163.600000</ele>
                <time>2018-09-29T09:48:25Z</time>
            </trkpt>
            <trkpt lon="99.414881" lat="13.983669">
                <ele>163.600000</ele>
                <time>2018-09-29T09:48:26Z</time>
            </trkpt>
            <trkpt lon="99.414864" lat="13.983670">
                <ele>163.600000</ele>
                <time>2018-09-29T09:48:27Z</time>
            </trkpt>
            <trkpt lon="99.414848" lat="13.983674">
                <ele>163.800000</ele>
                <time>2018-09-29T09:48:28Z</time>
            </trkpt>
            <trkpt lon="99.414730" lat="13.983694">
                <ele>164.800000</ele>
                <time>2018-09-29T09:48:35Z</time>
            </trkpt>
            <trkpt lon="99.414713" lat="13.983692">
                <ele>164.800000</ele>
                <time>2018-09-29T09:48:36Z</time>
            </trkpt>
            <trkpt lon="99.414630" lat="13.983697">
                <ele>165.400000</ele>
                <time>2018-09-29T09:48:42Z</time>
            </trkpt>
            <trkpt lon="99.414604" lat="13.983690">
                <ele>165.400000</ele>
                <time>2018-09-29T09:48:44Z</time>
            </trkpt>
            <trkpt lon="99.414572" lat="13.983687">
                <ele>165.800000</ele>
                <time>2018-09-29T09:48:47Z</time>
            </trkpt>
            <trkpt lon="99.414478" lat="13.983740">
                <ele>167.000000</ele>
                <time>2018-09-29T09:48:56Z</time>
            </trkpt>
            <trkpt lon="99.414468" lat="13.983751">
                <ele>167.400000</ele>
                <time>2018-09-29T09:48:57Z</time>
            </trkpt>
            <trkpt lon="99.414422" lat="13.983791">
                <ele>168.200000</ele>
                <time>2018-09-29T09:49:01Z</time>
            </trkpt>
            <trkpt lon="99.414412" lat="13.983800">
                <ele>168.400000</ele>
                <time>2018-09-29T09:49:02Z</time>
            </trkpt>
            <trkpt lon="99.414309" lat="13.983906">
                <ele>169.200000</ele>
                <time>2018-09-29T09:49:12Z</time>
            </trkpt>
            <trkpt lon="99.414282" lat="13.983955">
                <ele>169.600000</ele>
                <time>2018-09-29T09:49:16Z</time>
            </trkpt>
            <trkpt lon="99.414230" lat="13.983993">
                <ele>170.200000</ele>
                <time>2018-09-29T09:49:21Z</time>
            </trkpt>
            <trkpt lon="99.414218" lat="13.983996">
                <ele>170.200000</ele>
                <time>2018-09-29T09:49:22Z</time>
            </trkpt>
            <trkpt lon="99.414129" lat="13.984028">
                <ele>171.400000</ele>
                <time>2018-09-29T09:49:29Z</time>
            </trkpt>
            <trkpt lon="99.414090" lat="13.984043">
                <ele>171.800000</ele>
                <time>2018-09-29T09:49:32Z</time>
            </trkpt>
            <trkpt lon="99.414075" lat="13.984050">
                <ele>172.000000</ele>
                <time>2018-09-29T09:49:33Z</time>
            </trkpt>
            <trkpt lon="99.414020" lat="13.984067">
                <ele>172.400000</ele>
                <time>2018-09-29T09:49:37Z</time>
            </trkpt>
            <trkpt lon="99.413995" lat="13.984073">
                <ele>172.600000</ele>
                <time>2018-09-29T09:49:39Z</time>
            </trkpt>
            <trkpt lon="99.413982" lat="13.984078">
                <ele>172.800000</ele>
                <time>2018-09-29T09:49:40Z</time>
            </trkpt>
            <trkpt lon="99.413585" lat="13.984311">
                <ele>173.200000</ele>
                <time>2018-09-29T09:50:04Z</time>
            </trkpt>
            <trkpt lon="99.413385" lat="13.984456">
                <ele>174.200000</ele>
                <time>2018-09-29T09:50:15Z</time>
            </trkpt>
            <trkpt lon="99.413210" lat="13.984589">
                <ele>174.800000</ele>
                <time>2018-09-29T09:50:27Z</time>
            </trkpt>
            <trkpt lon="99.413186" lat="13.984597">
                <ele>174.800000</ele>
                <time>2018-09-29T09:50:29Z</time>
            </trkpt>
            <trkpt lon="99.413155" lat="13.984618">
                <ele>175.200000</ele>
                <time>2018-09-29T09:50:32Z</time>
            </trkpt>
            <trkpt lon="99.413151" lat="13.984631">
                <ele>175.400000</ele>
                <time>2018-09-29T09:50:33Z</time>
            </trkpt>
            <trkpt lon="99.413127" lat="13.984678">
                <ele>176.400000</ele>
                <time>2018-09-29T09:50:37Z</time>
            </trkpt>
            <trkpt lon="99.413069" lat="13.984747">
                <ele>177.000000</ele>
                <time>2018-09-29T09:50:43Z</time>
            </trkpt>
            <trkpt lon="99.413064" lat="13.984758">
                <ele>177.000000</ele>
                <time>2018-09-29T09:50:44Z</time>
            </trkpt>
            <trkpt lon="99.413124" lat="13.984920">
                <ele>177.400000</ele>
                <time>2018-09-29T09:50:53Z</time>
            </trkpt>
            <trkpt lon="99.413401" lat="13.985228">
                <ele>177.600000</ele>
                <time>2018-09-29T09:51:13Z</time>
            </trkpt>
            <trkpt lon="99.413713" lat="13.985562">
                <ele>178.200000</ele>
                <time>2018-09-29T09:51:34Z</time>
            </trkpt>
            <trkpt lon="99.413752" lat="13.985574">
                <ele>178.200000</ele>
                <time>2018-09-29T09:51:35Z</time>
            </trkpt>
            <trkpt lon="99.413936" lat="13.985737">
                <ele>177.800000</ele>
                <time>2018-09-29T09:51:41Z</time>
            </trkpt>
            <trkpt lon="99.413959" lat="13.985963">
                <ele>176.800000</ele>
                <time>2018-09-29T09:51:48Z</time>
            </trkpt>
            <trkpt lon="99.413759" lat="13.986142">
                <ele>178.400000</ele>
                <time>2018-09-29T09:52:06Z</time>
            </trkpt>
            <trkpt lon="99.413688" lat="13.986232">
                <ele>179.400000</ele>
                <time>2018-09-29T09:52:14Z</time>
            </trkpt>
            <trkpt lon="99.413669" lat="13.986253">
                <ele>179.600000</ele>
                <time>2018-09-29T09:52:16Z</time>
            </trkpt>
            <trkpt lon="99.413563" lat="13.986365">
                <ele>180.800000</ele>
                <time>2018-09-29T09:52:27Z</time>
            </trkpt>
            <trkpt lon="99.413400" lat="13.986460">
                <ele>181.800000</ele>
                <time>2018-09-29T09:52:40Z</time>
            </trkpt>
            <trkpt lon="99.413313" lat="13.986533">
                <ele>182.800000</ele>
                <time>2018-09-29T09:52:48Z</time>
            </trkpt>
            <trkpt lon="99.413213" lat="13.986625">
                <ele>183.800000</ele>
                <time>2018-09-29T09:52:58Z</time>
            </trkpt>
            <trkpt lon="99.413113" lat="13.986700">
                <ele>184.600000</ele>
                <time>2018-09-29T09:53:08Z</time>
            </trkpt>
            <trkpt lon="99.413075" lat="13.986733">
                <ele>185.200000</ele>
                <time>2018-09-29T09:53:12Z</time>
            </trkpt>
            <trkpt lon="99.413029" lat="13.986743">
                <ele>185.600000</ele>
                <time>2018-09-29T09:53:16Z</time>
            </trkpt>
            <trkpt lon="99.412996" lat="13.986746">
                <ele>185.800000</ele>
                <time>2018-09-29T09:53:19Z</time>
            </trkpt>
            <trkpt lon="99.412973" lat="13.986750">
                <ele>186.200000</ele>
                <time>2018-09-29T09:53:21Z</time>
            </trkpt>
            <trkpt lon="99.412935" lat="13.986758">
                <ele>186.600000</ele>
                <time>2018-09-29T09:53:24Z</time>
            </trkpt>
            <trkpt lon="99.412912" lat="13.986765">
                <ele>186.800000</ele>
                <time>2018-09-29T09:53:26Z</time>
            </trkpt>
            <trkpt lon="99.412814" lat="13.986803">
                <ele>187.800000</ele>
                <time>2018-09-29T09:53:34Z</time>
            </trkpt>
            <trkpt lon="99.412802" lat="13.986806">
                <ele>188.000000</ele>
                <time>2018-09-29T09:53:35Z</time>
            </trkpt>
            <trkpt lon="99.412770" lat="13.986821">
                <ele>188.400000</ele>
                <time>2018-09-29T09:53:38Z</time>
            </trkpt>
            <trkpt lon="99.412715" lat="13.986862">
                <ele>188.800000</ele>
                <time>2018-09-29T09:53:43Z</time>
            </trkpt>
            <trkpt lon="99.412605" lat="13.986969">
                <ele>190.000000</ele>
                <time>2018-09-29T09:53:55Z</time>
            </trkpt>
            <trkpt lon="99.412584" lat="13.987011">
                <ele>190.600000</ele>
                <time>2018-09-29T09:53:59Z</time>
            </trkpt>
            <trkpt lon="99.412564" lat="13.987048">
                <ele>191.000000</ele>
                <time>2018-09-29T09:54:03Z</time>
            </trkpt>
            <trkpt lon="99.412533" lat="13.987073">
                <ele>191.600000</ele>
                <time>2018-09-29T09:54:07Z</time>
            </trkpt>
            <trkpt lon="99.412494" lat="13.987087">
                <ele>191.800000</ele>
                <time>2018-09-29T09:54:11Z</time>
            </trkpt>
            <trkpt lon="99.412472" lat="13.987094">
                <ele>192.000000</ele>
                <time>2018-09-29T09:54:13Z</time>
            </trkpt>
            <trkpt lon="99.412451" lat="13.987094">
                <ele>192.200000</ele>
                <time>2018-09-29T09:54:15Z</time>
            </trkpt>
            <trkpt lon="99.412431" lat="13.987091">
                <ele>192.400000</ele>
                <time>2018-09-29T09:54:17Z</time>
            </trkpt>
            <trkpt lon="99.412419" lat="13.987091">
                <ele>192.600000</ele>
                <time>2018-09-29T09:54:18Z</time>
            </trkpt>
            <trkpt lon="99.412395" lat="13.987090">
                <ele>192.600000</ele>
                <time>2018-09-29T09:54:20Z</time>
            </trkpt>
            <trkpt lon="99.412324" lat="13.987092">
                <ele>193.400000</ele>
                <time>2018-09-29T09:54:27Z</time>
            </trkpt>
            <trkpt lon="99.412297" lat="13.987092">
                <ele>193.600000</ele>
                <time>2018-09-29T09:54:30Z</time>
            </trkpt>
            <trkpt lon="99.412269" lat="13.987096">
                <ele>194.200000</ele>
                <time>2018-09-29T09:54:33Z</time>
            </trkpt>
            <trkpt lon="99.412261" lat="13.987096">
                <ele>194.400000</ele>
                <time>2018-09-29T09:54:34Z</time>
            </trkpt>
            <trkpt lon="99.411704" lat="13.987159">
                <ele>202.600000</ele>
                <time>2018-09-29T09:55:41Z</time>
            </trkpt>
            <trkpt lon="99.411685" lat="13.987167">
                <ele>202.800000</ele>
                <time>2018-09-29T09:55:43Z</time>
            </trkpt>
            <trkpt lon="99.411548" lat="13.987216">
                <ele>204.800000</ele>
                <time>2018-09-29T09:55:59Z</time>
            </trkpt>
            <trkpt lon="99.411483" lat="13.987257">
                <ele>205.600000</ele>
                <time>2018-09-29T09:56:07Z</time>
            </trkpt>
            <trkpt lon="99.411459" lat="13.987270">
                <ele>205.800000</ele>
                <time>2018-09-29T09:56:10Z</time>
            </trkpt>
            <trkpt lon="99.411440" lat="13.987276">
                <ele>206.000000</ele>
                <time>2018-09-29T09:56:12Z</time>
            </trkpt>
            <trkpt lon="99.411431" lat="13.987279">
                <ele>206.200000</ele>
                <time>2018-09-29T09:56:13Z</time>
            </trkpt>
            <trkpt lon="99.411204" lat="13.987346">
                <ele>209.600000</ele>
                <time>2018-09-29T09:56:39Z</time>
            </trkpt>
            <trkpt lon="99.411155" lat="13.987374">
                <ele>210.200000</ele>
                <time>2018-09-29T09:56:45Z</time>
            </trkpt>
            <trkpt lon="99.411136" lat="13.987384">
                <ele>210.400000</ele>
                <time>2018-09-29T09:56:48Z</time>
            </trkpt>
            <trkpt lon="99.411121" lat="13.987397">
                <ele>210.400000</ele>
                <time>2018-09-29T09:56:50Z</time>
            </trkpt>
            <trkpt lon="99.411058" lat="13.987456">
                <ele>211.600000</ele>
                <time>2018-09-29T09:56:59Z</time>
            </trkpt>
            <trkpt lon="99.411045" lat="13.987481">
                <ele>211.800000</ele>
                <time>2018-09-29T09:57:02Z</time>
            </trkpt>
            <trkpt lon="99.410997" lat="13.987542">
                <ele>212.400000</ele>
                <time>2018-09-29T09:57:10Z</time>
            </trkpt>
            <trkpt lon="99.410981" lat="13.987554">
                <ele>212.400000</ele>
                <time>2018-09-29T09:57:12Z</time>
            </trkpt>
            <trkpt lon="99.410961" lat="13.987561">
                <ele>212.600000</ele>
                <time>2018-09-29T09:57:14Z</time>
            </trkpt>
            <trkpt lon="99.410948" lat="13.987573">
                <ele>212.600000</ele>
                <time>2018-09-29T09:57:16Z</time>
            </trkpt>
            <trkpt lon="99.410905" lat="13.987601">
                <ele>213.000000</ele>
                <time>2018-09-29T09:57:21Z</time>
            </trkpt>
            <trkpt lon="99.410865" lat="13.987614">
                <ele>213.200000</ele>
                <time>2018-09-29T09:57:25Z</time>
            </trkpt>
            <trkpt lon="99.410805" lat="13.987633">
                <ele>213.600000</ele>
                <time>2018-09-29T09:57:30Z</time>
            </trkpt>
            <trkpt lon="99.410754" lat="13.987650">
                <ele>214.200000</ele>
                <time>2018-09-29T09:57:34Z</time>
            </trkpt>
            <trkpt lon="99.410741" lat="13.987651">
                <ele>214.400000</ele>
                <time>2018-09-29T09:57:35Z</time>
            </trkpt>
            <trkpt lon="99.410728" lat="13.987654">
                <ele>214.400000</ele>
                <time>2018-09-29T09:57:36Z</time>
            </trkpt>
            <trkpt lon="99.410461" lat="13.987656">
                <ele>217.400000</ele>
                <time>2018-09-29T09:58:00Z</time>
            </trkpt>
            <trkpt lon="99.410295" lat="13.987730">
                <ele>218.200000</ele>
                <time>2018-09-29T09:58:12Z</time>
            </trkpt>
            <trkpt lon="99.410039" lat="13.987803">
                <ele>218.600000</ele>
                <time>2018-09-29T09:58:28Z</time>
            </trkpt>
            <trkpt lon="99.409959" lat="13.987771">
                <ele>218.800000</ele>
                <time>2018-09-29T09:58:32Z</time>
            </trkpt>
            <trkpt lon="99.409888" lat="13.987743">
                <ele>219.000000</ele>
                <time>2018-09-29T09:58:37Z</time>
            </trkpt>
            <trkpt lon="99.409833" lat="13.987710">
                <ele>219.000000</ele>
                <time>2018-09-29T09:58:42Z</time>
            </trkpt>
            <trkpt lon="99.409710" lat="13.987622">
                <ele>220.000000</ele>
                <time>2018-09-29T09:58:53Z</time>
            </trkpt>
            <trkpt lon="99.409659" lat="13.987578">
                <ele>221.000000</ele>
                <time>2018-09-29T09:58:58Z</time>
            </trkpt>
            <trkpt lon="99.409641" lat="13.987563">
                <ele>221.400000</ele>
                <time>2018-09-29T09:59:00Z</time>
            </trkpt>
            <trkpt lon="99.409593" lat="13.987516">
                <ele>222.000000</ele>
                <time>2018-09-29T09:59:05Z</time>
            </trkpt>
            <trkpt lon="99.409377" lat="13.987377">
                <ele>222.800000</ele>
                <time>2018-09-29T09:59:23Z</time>
            </trkpt>
            <trkpt lon="99.409257" lat="13.987322">
                <ele>223.200000</ele>
                <time>2018-09-29T09:59:32Z</time>
            </trkpt>
            <trkpt lon="99.409205" lat="13.987312">
                <ele>223.600000</ele>
                <time>2018-09-29T09:59:36Z</time>
            </trkpt>
            <trkpt lon="99.409192" lat="13.987310">
                <ele>223.600000</ele>
                <time>2018-09-29T09:59:37Z</time>
            </trkpt>
            <trkpt lon="99.409179" lat="13.987308">
                <ele>223.600000</ele>
                <time>2018-09-29T09:59:38Z</time>
            </trkpt>
            <trkpt lon="99.409140" lat="13.987299">
                <ele>224.000000</ele>
                <time>2018-09-29T09:59:41Z</time>
            </trkpt>
            <trkpt lon="99.408942" lat="13.987263">
                <ele>224.600000</ele>
                <time>2018-09-29T09:59:54Z</time>
            </trkpt>
            <trkpt lon="99.408891" lat="13.987311">
                <ele>225.000000</ele>
                <time>2018-09-29T09:59:58Z</time>
            </trkpt>
            <trkpt lon="99.408461" lat="13.987615">
                <ele>225.400000</ele>
                <time>2018-09-29T10:00:20Z</time>
            </trkpt>
            <trkpt lon="99.408387" lat="13.987641">
                <ele>225.400000</ele>
                <time>2018-09-29T10:00:24Z</time>
            </trkpt>
            <trkpt lon="99.408375" lat="13.987646">
                <ele>225.400000</ele>
                <time>2018-09-29T10:00:25Z</time>
            </trkpt>
            <trkpt lon="99.408299" lat="13.987676">
                <ele>226.000000</ele>
                <time>2018-09-29T10:00:31Z</time>
            </trkpt>
            <trkpt lon="99.408237" lat="13.987686">
                <ele>226.600000</ele>
                <time>2018-09-29T10:00:36Z</time>
            </trkpt>
            <trkpt lon="99.408200" lat="13.987691">
                <ele>226.800000</ele>
                <time>2018-09-29T10:00:39Z</time>
            </trkpt>
            <trkpt lon="99.408153" lat="13.987682">
                <ele>227.000000</ele>
                <time>2018-09-29T10:00:43Z</time>
            </trkpt>
            <trkpt lon="99.408130" lat="13.987665">
                <ele>227.000000</ele>
                <time>2018-09-29T10:00:46Z</time>
            </trkpt>
            <trkpt lon="99.408068" lat="13.987599">
                <ele>228.000000</ele>
                <time>2018-09-29T10:00:54Z</time>
            </trkpt>
            <trkpt lon="99.408003" lat="13.987517">
                <ele>228.800000</ele>
                <time>2018-09-29T10:01:01Z</time>
            </trkpt>
            <trkpt lon="99.407978" lat="13.987479">
                <ele>229.200000</ele>
                <time>2018-09-29T10:01:04Z</time>
            </trkpt>
            <trkpt lon="99.407779" lat="13.987477">
                <ele>230.000000</ele>
                <time>2018-09-29T10:01:17Z</time>
            </trkpt>
            <trkpt lon="99.407278" lat="13.987705">
                <ele>230.200000</ele>
                <time>2018-09-29T10:01:37Z</time>
            </trkpt>
            <trkpt lon="99.407000" lat="13.987832">
                <ele>230.800000</ele>
                <time>2018-09-29T10:01:51Z</time>
            </trkpt>
            <trkpt lon="99.406911" lat="13.987863">
                <ele>231.000000</ele>
                <time>2018-09-29T10:01:55Z</time>
            </trkpt>
            <trkpt lon="99.406605" lat="13.987972">
                <ele>232.000000</ele>
                <time>2018-09-29T10:02:10Z</time>
            </trkpt>
            <trkpt lon="99.406525" lat="13.987856">
                <ele>233.200000</ele>
                <time>2018-09-29T10:02:20Z</time>
            </trkpt>
            <trkpt lon="99.406482" lat="13.987761">
                <ele>234.000000</ele>
                <time>2018-09-29T10:02:29Z</time>
            </trkpt>
            <trkpt lon="99.406439" lat="13.987642">
                <ele>235.000000</ele>
                <time>2018-09-29T10:02:40Z</time>
            </trkpt>
            <trkpt lon="99.406412" lat="13.987566">
                <ele>235.800000</ele>
                <time>2018-09-29T10:02:47Z</time>
            </trkpt>
            <trkpt lon="99.406404" lat="13.987550">
                <ele>236.000000</ele>
                <time>2018-09-29T10:02:49Z</time>
            </trkpt>
            <trkpt lon="99.406392" lat="13.987531">
                <ele>236.200000</ele>
                <time>2018-09-29T10:02:51Z</time>
            </trkpt>
            <trkpt lon="99.406344" lat="13.987381">
                <ele>237.000000</ele>
                <time>2018-09-29T10:03:04Z</time>
            </trkpt>
            <trkpt lon="99.406340" lat="13.987370">
                <ele>237.000000</ele>
                <time>2018-09-29T10:03:05Z</time>
            </trkpt>
            <trkpt lon="99.406274" lat="13.987232">
                <ele>238.000000</ele>
                <time>2018-09-29T10:03:20Z</time>
            </trkpt>
            <trkpt lon="99.406235" lat="13.987173">
                <ele>239.000000</ele>
                <time>2018-09-29T10:03:28Z</time>
            </trkpt>
            <trkpt lon="99.406228" lat="13.987162">
                <ele>238.800000</ele>
                <time>2018-09-29T10:03:29Z</time>
            </trkpt>
            <trkpt lon="99.406206" lat="13.987105">
                <ele>239.600000</ele>
                <time>2018-09-29T10:03:34Z</time>
            </trkpt>
            <trkpt lon="99.406200" lat="13.987085">
                <ele>239.800000</ele>
                <time>2018-09-29T10:03:36Z</time>
            </trkpt>
            <trkpt lon="99.406160" lat="13.986997">
                <ele>241.000000</ele>
                <time>2018-09-29T10:03:47Z</time>
            </trkpt>
            <trkpt lon="99.406153" lat="13.986963">
                <ele>241.800000</ele>
                <time>2018-09-29T10:03:51Z</time>
            </trkpt>
            <trkpt lon="99.406156" lat="13.986939">
                <ele>242.000000</ele>
                <time>2018-09-29T10:03:53Z</time>
            </trkpt>
            <trkpt lon="99.406159" lat="13.986916">
                <ele>242.400000</ele>
                <time>2018-09-29T10:03:55Z</time>
            </trkpt>
            <trkpt lon="99.406162" lat="13.986895">
                <ele>242.800000</ele>
                <time>2018-09-29T10:03:57Z</time>
            </trkpt>
            <trkpt lon="99.406169" lat="13.986871">
                <ele>243.200000</ele>
                <time>2018-09-29T10:03:59Z</time>
            </trkpt>
            <trkpt lon="99.406161" lat="13.986770">
                <ele>243.800000</ele>
                <time>2018-09-29T10:04:06Z</time>
            </trkpt>
            <trkpt lon="99.406086" lat="13.986660">
                <ele>244.000000</ele>
                <time>2018-09-29T10:04:17Z</time>
            </trkpt>
            <trkpt lon="99.405896" lat="13.986538">
                <ele>245.000000</ele>
                <time>2018-09-29T10:04:34Z</time>
            </trkpt>
            <trkpt lon="99.405877" lat="13.986533">
                <ele>245.000000</ele>
                <time>2018-09-29T10:04:35Z</time>
            </trkpt>
            <trkpt lon="99.405848" lat="13.986527">
                <ele>245.200000</ele>
                <time>2018-09-29T10:04:37Z</time>
            </trkpt>
            <trkpt lon="99.405838" lat="13.986522">
                <ele>245.200000</ele>
                <time>2018-09-29T10:04:38Z</time>
            </trkpt>
            <trkpt lon="99.405828" lat="13.986518">
                <ele>245.200000</ele>
                <time>2018-09-29T10:04:39Z</time>
            </trkpt>
            <trkpt lon="99.405772" lat="13.986508">
                <ele>245.400000</ele>
                <time>2018-09-29T10:04:45Z</time>
            </trkpt>
            <trkpt lon="99.405736" lat="13.986507">
                <ele>245.400000</ele>
                <time>2018-09-29T10:04:49Z</time>
            </trkpt>
            <trkpt lon="99.405718" lat="13.986511">
                <ele>245.600000</ele>
                <time>2018-09-29T10:04:51Z</time>
            </trkpt>
            <trkpt lon="99.405713" lat="13.986516">
                <ele>245.600000</ele>
                <time>2018-09-29T10:04:52Z</time>
            </trkpt>
            <trkpt lon="99.405698" lat="13.986529">
                <ele>245.800000</ele>
                <time>2018-09-29T10:04:54Z</time>
            </trkpt>
            <trkpt lon="99.405645" lat="13.986567">
                <ele>246.000000</ele>
                <time>2018-09-29T10:04:59Z</time>
            </trkpt>
            <trkpt lon="99.405626" lat="13.986600">
                <ele>246.000000</ele>
                <time>2018-09-29T10:05:03Z</time>
            </trkpt>
            <trkpt lon="99.405447" lat="13.986711">
                <ele>245.800000</ele>
                <time>2018-09-29T10:05:16Z</time>
            </trkpt>
            <trkpt lon="99.405388" lat="13.986718">
                <ele>245.800000</ele>
                <time>2018-09-29T10:05:20Z</time>
            </trkpt>
            <trkpt lon="99.405334" lat="13.986761">
                <ele>246.200000</ele>
                <time>2018-09-29T10:05:26Z</time>
            </trkpt>
            <trkpt lon="99.405149" lat="13.986854">
                <ele>246.600000</ele>
                <time>2018-09-29T10:05:38Z</time>
            </trkpt>
            <trkpt lon="99.405109" lat="13.986867">
                <ele>246.800000</ele>
                <time>2018-09-29T10:05:41Z</time>
            </trkpt>
            <trkpt lon="99.405015" lat="13.986942">
                <ele>248.000000</ele>
                <time>2018-09-29T10:05:51Z</time>
            </trkpt>
            <trkpt lon="99.404941" lat="13.987005">
                <ele>249.200000</ele>
                <time>2018-09-29T10:05:59Z</time>
            </trkpt>
            <trkpt lon="99.404868" lat="13.987093">
                <ele>250.400000</ele>
                <time>2018-09-29T10:06:07Z</time>
            </trkpt>
            <trkpt lon="99.404827" lat="13.987158">
                <ele>251.400000</ele>
                <time>2018-09-29T10:06:13Z</time>
            </trkpt>
            <trkpt lon="99.404792" lat="13.987214">
                <ele>252.400000</ele>
                <time>2018-09-29T10:06:19Z</time>
            </trkpt>
            <trkpt lon="99.404733" lat="13.987282">
                <ele>253.600000</ele>
                <time>2018-09-29T10:06:26Z</time>
            </trkpt>
            <trkpt lon="99.404686" lat="13.987349">
                <ele>254.200000</ele>
                <time>2018-09-29T10:06:33Z</time>
            </trkpt>
            <trkpt lon="99.404545" lat="13.987492">
                <ele>254.600000</ele>
                <time>2018-09-29T10:06:47Z</time>
            </trkpt>
            <trkpt lon="99.404409" lat="13.987611">
                <ele>255.200000</ele>
                <time>2018-09-29T10:06:59Z</time>
            </trkpt>
            <trkpt lon="99.404357" lat="13.987716">
                <ele>255.600000</ele>
                <time>2018-09-29T10:07:09Z</time>
            </trkpt>
            <trkpt lon="99.404345" lat="13.987754">
                <ele>255.800000</ele>
                <time>2018-09-29T10:07:13Z</time>
            </trkpt>
            <trkpt lon="99.404299" lat="13.987845">
                <ele>257.000000</ele>
                <time>2018-09-29T10:10:22Z</time>
            </trkpt>
            <trkpt lon="99.404246" lat="13.988004">
                <ele>257.600000</ele>
                <time>2018-09-29T10:10:37Z</time>
            </trkpt>
            <trkpt lon="99.404225" lat="13.988038">
                <ele>258.000000</ele>
                <time>2018-09-29T10:10:40Z</time>
            </trkpt>
            <trkpt lon="99.404220" lat="13.988049">
                <ele>258.000000</ele>
                <time>2018-09-29T10:10:41Z</time>
            </trkpt>
            <trkpt lon="99.404056" lat="13.988238">
                <ele>259.000000</ele>
                <time>2018-09-29T10:10:56Z</time>
            </trkpt>
            <trkpt lon="99.403937" lat="13.988316">
                <ele>260.200000</ele>
                <time>2018-09-29T10:11:04Z</time>
            </trkpt>
            <trkpt lon="99.403769" lat="13.988425">
                <ele>261.200000</ele>
                <time>2018-09-29T10:11:16Z</time>
            </trkpt>
            <trkpt lon="99.403710" lat="13.988435">
                <ele>261.400000</ele>
                <time>2018-09-29T10:11:20Z</time>
            </trkpt>
            <trkpt lon="99.403656" lat="13.988420">
                <ele>261.600000</ele>
                <time>2018-09-29T10:11:25Z</time>
            </trkpt>
            <trkpt lon="99.403583" lat="13.988381">
                <ele>262.400000</ele>
                <time>2018-09-29T10:11:31Z</time>
            </trkpt>
            <trkpt lon="99.403532" lat="13.988322">
                <ele>263.400000</ele>
                <time>2018-09-29T10:11:37Z</time>
            </trkpt>
            <trkpt lon="99.403500" lat="13.988301">
                <ele>264.400000</ele>
                <time>2018-09-29T10:11:42Z</time>
            </trkpt>
            <trkpt lon="99.403439" lat="13.988262">
                <ele>265.600000</ele>
                <time>2018-09-29T10:11:48Z</time>
            </trkpt>
            <trkpt lon="99.403339" lat="13.988177">
                <ele>266.600000</ele>
                <time>2018-09-29T10:11:58Z</time>
            </trkpt>
            <trkpt lon="99.403309" lat="13.988140">
                <ele>267.000000</ele>
                <time>2018-09-29T10:12:01Z</time>
            </trkpt>
            <trkpt lon="99.403307" lat="13.988068">
                <ele>267.600000</ele>
                <time>2018-09-29T10:12:06Z</time>
            </trkpt>
            <trkpt lon="99.403291" lat="13.987994">
                <ele>268.800000</ele>
                <time>2018-09-29T10:12:12Z</time>
            </trkpt>
            <trkpt lon="99.403284" lat="13.987983">
                <ele>268.800000</ele>
                <time>2018-09-29T10:12:13Z</time>
            </trkpt>
            <trkpt lon="99.403319" lat="13.987708">
                <ele>269.600000</ele>
                <time>2018-09-29T10:12:31Z</time>
            </trkpt>
            <trkpt lon="99.403438" lat="13.987499">
                <ele>270.600000</ele>
                <time>2018-09-29T10:12:44Z</time>
            </trkpt>
            <trkpt lon="99.403442" lat="13.987465">
                <ele>270.600000</ele>
                <time>2018-09-29T10:12:46Z</time>
            </trkpt>
            <trkpt lon="99.403433" lat="13.987374">
                <ele>271.400000</ele>
                <time>2018-09-29T10:12:51Z</time>
            </trkpt>
            <trkpt lon="99.403434" lat="13.987353">
                <ele>271.400000</ele>
                <time>2018-09-29T10:12:52Z</time>
            </trkpt>
            <trkpt lon="99.403472" lat="13.987104">
                <ele>272.600000</ele>
                <time>2018-09-29T10:13:05Z</time>
            </trkpt>
            <trkpt lon="99.403472" lat="13.987014">
                <ele>273.000000</ele>
                <time>2018-09-29T10:13:11Z</time>
            </trkpt>
            <trkpt lon="99.403481" lat="13.986973">
                <ele>273.400000</ele>
                <time>2018-09-29T10:13:14Z</time>
            </trkpt>
            <trkpt lon="99.403493" lat="13.986893">
                <ele>274.600000</ele>
                <time>2018-09-29T10:13:20Z</time>
            </trkpt>
            <trkpt lon="99.403499" lat="13.986867">
                <ele>274.800000</ele>
                <time>2018-09-29T10:13:22Z</time>
            </trkpt>
            <trkpt lon="99.403477" lat="13.986792">
                <ele>275.600000</ele>
                <time>2018-09-29T10:13:28Z</time>
            </trkpt>
            <trkpt lon="99.403474" lat="13.986781">
                <ele>275.600000</ele>
                <time>2018-09-29T10:13:29Z</time>
            </trkpt>
            <trkpt lon="99.403448" lat="13.986696">
                <ele>276.600000</ele>
                <time>2018-09-29T10:13:36Z</time>
            </trkpt>
            <trkpt lon="99.403413" lat="13.986528">
                <ele>277.400000</ele>
                <time>2018-09-29T10:13:50Z</time>
            </trkpt>
            <trkpt lon="99.403315" lat="13.986340">
                <ele>277.400000</ele>
                <time>2018-09-29T10:13:58Z</time>
            </trkpt>
            <trkpt lon="99.403182" lat="13.986250">
                <ele>277.000000</ele>
                <time>2018-09-29T10:14:02Z</time>
            </trkpt>
            <trkpt lon="99.403147" lat="13.986226">
                <ele>276.800000</ele>
                <time>2018-09-29T10:14:03Z</time>
            </trkpt>
            <trkpt lon="99.403075" lat="13.986152">
                <ele>276.200000</ele>
                <time>2018-09-29T10:14:05Z</time>
            </trkpt>
            <trkpt lon="99.403007" lat="13.986068">
                <ele>275.800000</ele>
                <time>2018-09-29T10:14:07Z</time>
            </trkpt>
            <trkpt lon="99.402878" lat="13.985889">
                <ele>275.000000</ele>
                <time>2018-09-29T10:14:11Z</time>
            </trkpt>
            <trkpt lon="99.402821" lat="13.985804">
                <ele>274.600000</ele>
                <time>2018-09-29T10:14:13Z</time>
            </trkpt>
            <trkpt lon="99.402747" lat="13.985684">
                <ele>274.200000</ele>
                <time>2018-09-29T10:14:16Z</time>
            </trkpt>
            <trkpt lon="99.402570" lat="13.985392">
                <ele>274.000000</ele>
                <time>2018-09-29T10:14:26Z</time>
            </trkpt>
            <trkpt lon="99.402317" lat="13.985565">
                <ele>274.600000</ele>
                <time>2018-09-29T10:14:38Z</time>
            </trkpt>
            <trkpt lon="99.401924" lat="13.985740">
                <ele>274.000000</ele>
                <time>2018-09-29T10:14:47Z</time>
            </trkpt>
            <trkpt lon="99.401621" lat="13.985884">
                <ele>272.600000</ele>
                <time>2018-09-29T10:14:53Z</time>
            </trkpt>
            <trkpt lon="99.401308" lat="13.986021">
                <ele>271.400000</ele>
                <time>2018-09-29T10:14:59Z</time>
            </trkpt>
            <trkpt lon="99.401255" lat="13.986036">
                <ele>271.200000</ele>
                <time>2018-09-29T10:15:00Z</time>
            </trkpt>
            <trkpt lon="99.400904" lat="13.986067">
                <ele>270.400000</ele>
                <time>2018-09-29T10:15:07Z</time>
            </trkpt>
            <trkpt lon="99.400507" lat="13.986458">
                <ele>271.200000</ele>
                <time>2018-09-29T10:15:23Z</time>
            </trkpt>
            <trkpt lon="99.400374" lat="13.986595">
                <ele>271.400000</ele>
                <time>2018-09-29T10:15:31Z</time>
            </trkpt>
            <trkpt lon="99.400288" lat="13.986703">
                <ele>272.400000</ele>
                <time>2018-09-29T10:15:37Z</time>
            </trkpt>
            <trkpt lon="99.400155" lat="13.986837">
                <ele>273.400000</ele>
                <time>2018-09-29T10:15:44Z</time>
            </trkpt>
            <trkpt lon="99.400035" lat="13.986890">
                <ele>274.600000</ele>
                <time>2018-09-29T10:15:51Z</time>
            </trkpt>
            <trkpt lon="99.400015" lat="13.986897">
                <ele>274.800000</ele>
                <time>2018-09-29T10:15:52Z</time>
            </trkpt>
            <trkpt lon="99.399870" lat="13.986949">
                <ele>275.600000</ele>
                <time>2018-09-29T10:15:59Z</time>
            </trkpt>
            <trkpt lon="99.399849" lat="13.986958">
                <ele>275.800000</ele>
                <time>2018-09-29T10:16:00Z</time>
            </trkpt>
            <trkpt lon="99.399743" lat="13.986998">
                <ele>276.200000</ele>
                <time>2018-09-29T10:16:06Z</time>
            </trkpt>
            <trkpt lon="99.399713" lat="13.987014">
                <ele>276.400000</ele>
                <time>2018-09-29T10:16:08Z</time>
            </trkpt>
            <trkpt lon="99.399689" lat="13.987025">
                <ele>276.600000</ele>
                <time>2018-09-29T10:16:10Z</time>
            </trkpt>
            <trkpt lon="99.399669" lat="13.987039">
                <ele>276.800000</ele>
                <time>2018-09-29T10:16:12Z</time>
            </trkpt>
            <trkpt lon="99.399474" lat="13.987578">
                <ele>276.600000</ele>
                <time>2018-09-29T10:16:40Z</time>
            </trkpt>
            <trkpt lon="99.399352" lat="13.988053">
                <ele>276.600000</ele>
                <time>2018-09-29T10:17:00Z</time>
            </trkpt>
            <trkpt lon="99.399393" lat="13.988024">
                <ele>275.000000</ele>
                <time>2018-09-29T10:21:56Z</time>
            </trkpt>
            <trkpt lon="99.399562" lat="13.987504">
                <ele>275.000000</ele>
                <time>2018-09-29T10:22:19Z</time>
            </trkpt>
            <trkpt lon="99.399814" lat="13.987048">
                <ele>275.400000</ele>
                <time>2018-09-29T10:22:38Z</time>
            </trkpt>
            <trkpt lon="99.399853" lat="13.987033">
                <ele>275.400000</ele>
                <time>2018-09-29T10:22:39Z</time>
            </trkpt>
            <trkpt lon="99.400089" lat="13.986932">
                <ele>275.200000</ele>
                <time>2018-09-29T10:22:44Z</time>
            </trkpt>
            <trkpt lon="99.400267" lat="13.986737">
                <ele>274.200000</ele>
                <time>2018-09-29T10:22:48Z</time>
            </trkpt>
            <trkpt lon="99.400363" lat="13.986626">
                <ele>273.600000</ele>
                <time>2018-09-29T10:22:50Z</time>
            </trkpt>
            <trkpt lon="99.400517" lat="13.986454">
                <ele>272.200000</ele>
                <time>2018-09-29T10:22:53Z</time>
            </trkpt>
            <trkpt lon="99.400615" lat="13.986346">
                <ele>271.200000</ele>
                <time>2018-09-29T10:22:55Z</time>
            </trkpt>
            <trkpt lon="99.400717" lat="13.986237">
                <ele>270.000000</ele>
                <time>2018-09-29T10:22:57Z</time>
            </trkpt>
            <trkpt lon="99.400780" lat="13.986194">
                <ele>269.400000</ele>
                <time>2018-09-29T10:22:58Z</time>
            </trkpt>
            <trkpt lon="99.400920" lat="13.986159">
                <ele>268.400000</ele>
                <time>2018-09-29T10:23:00Z</time>
            </trkpt>
            <trkpt lon="99.401142" lat="13.986127">
                <ele>268.000000</ele>
                <time>2018-09-29T10:23:03Z</time>
            </trkpt>
            <trkpt lon="99.401690" lat="13.985865">
                <ele>267.800000</ele>
                <time>2018-09-29T10:23:13Z</time>
            </trkpt>
            <trkpt lon="99.402180" lat="13.985602">
                <ele>269.600000</ele>
                <time>2018-09-29T10:23:24Z</time>
            </trkpt>
            <trkpt lon="99.402220" lat="13.985581">
                <ele>269.800000</ele>
                <time>2018-09-29T10:23:25Z</time>
            </trkpt>
            <trkpt lon="99.402376" lat="13.985490">
                <ele>270.600000</ele>
                <time>2018-09-29T10:23:29Z</time>
            </trkpt>
            <trkpt lon="99.402404" lat="13.985460">
                <ele>270.600000</ele>
                <time>2018-09-29T10:23:30Z</time>
            </trkpt>
            <trkpt lon="99.402422" lat="13.985207">
                <ele>271.600000</ele>
                <time>2018-09-29T10:23:37Z</time>
            </trkpt>
            <trkpt lon="99.402407" lat="13.985173">
                <ele>271.800000</ele>
                <time>2018-09-29T10:23:38Z</time>
            </trkpt>
            <trkpt lon="99.402389" lat="13.984965">
                <ele>272.800000</ele>
                <time>2018-09-29T10:23:44Z</time>
            </trkpt>
            <trkpt lon="99.402424" lat="13.984870">
                <ele>273.000000</ele>
                <time>2018-09-29T10:23:47Z</time>
            </trkpt>
            <trkpt lon="99.402513" lat="13.984600">
                <ele>273.800000</ele>
                <time>2018-09-29T10:23:56Z</time>
            </trkpt>
            <trkpt lon="99.402578" lat="13.984494">
                <ele>274.800000</ele>
                <time>2018-09-29T10:24:00Z</time>
            </trkpt>
            <trkpt lon="99.402780" lat="13.984300">
                <ele>276.000000</ele>
                <time>2018-09-29T10:24:11Z</time>
            </trkpt>
            <trkpt lon="99.402851" lat="13.984253">
                <ele>276.800000</ele>
                <time>2018-09-29T10:24:18Z</time>
            </trkpt>
            <trkpt lon="99.402884" lat="13.984255">
                <ele>277.000000</ele>
                <time>2018-09-29T10:24:20Z</time>
            </trkpt>
            <trkpt lon="99.402919" lat="13.984255">
                <ele>277.200000</ele>
                <time>2018-09-29T10:24:22Z</time>
            </trkpt>
            <trkpt lon="99.403284" lat="13.984318">
                <ele>278.200000</ele>
                <time>2018-09-29T10:24:39Z</time>
            </trkpt>
            <trkpt lon="99.403310" lat="13.984324">
                <ele>278.400000</ele>
                <time>2018-09-29T10:24:41Z</time>
            </trkpt>
            <trkpt lon="99.403368" lat="13.984342">
                <ele>279.200000</ele>
                <time>2018-09-29T10:24:48Z</time>
            </trkpt>
            <trkpt lon="99.403371" lat="13.984349">
                <ele>279.200000</ele>
                <time>2018-09-29T10:24:49Z</time>
            </trkpt>
            <trkpt lon="99.403346" lat="13.984342">
                <ele>279.200000</ele>
                <time>2018-09-29T10:24:52Z</time>
            </trkpt>
            <trkpt lon="99.403268" lat="13.984318">
                <ele>279.200000</ele>
                <time>2018-09-29T10:24:56Z</time>
            </trkpt>
            <trkpt lon="99.402923" lat="13.984266">
                <ele>278.000000</ele>
                <time>2018-09-29T10:25:06Z</time>
            </trkpt>
            <trkpt lon="99.402879" lat="13.984267">
                <ele>277.200000</ele>
                <time>2018-09-29T10:25:08Z</time>
            </trkpt>
            <trkpt lon="99.402854" lat="13.984246">
                <ele>276.800000</ele>
                <time>2018-09-29T10:25:10Z</time>
            </trkpt>
            <trkpt lon="99.402813" lat="13.984102">
                <ele>276.600000</ele>
                <time>2018-09-29T10:25:18Z</time>
            </trkpt>
            <trkpt lon="99.402870" lat="13.983931">
                <ele>277.800000</ele>
                <time>2018-09-29T10:25:27Z</time>
            </trkpt>
            <trkpt lon="99.402881" lat="13.983882">
                <ele>278.000000</ele>
                <time>2018-09-29T10:25:30Z</time>
            </trkpt>
            <trkpt lon="99.402876" lat="13.983860">
                <ele>278.000000</ele>
                <time>2018-09-29T10:25:33Z</time>
            </trkpt>
            <trkpt lon="99.402871" lat="13.983868">
                <ele>278.200000</ele>
                <time>2018-09-29T10:25:35Z</time>
            </trkpt>
            <trkpt lon="99.402818" lat="13.984157">
                <ele>277.400000</ele>
                <time>2018-09-29T10:25:52Z</time>
            </trkpt>
            <trkpt lon="99.402816" lat="13.984169">
                <ele>277.200000</ele>
                <time>2018-09-29T10:25:55Z</time>
            </trkpt>
            <trkpt lon="99.402801" lat="13.984258">
                <ele>276.800000</ele>
                <time>2018-09-29T10:26:00Z</time>
            </trkpt>
            <trkpt lon="99.402721" lat="13.984323">
                <ele>276.800000</ele>
                <time>2018-09-29T10:26:03Z</time>
            </trkpt>
            <trkpt lon="99.402688" lat="13.984341">
                <ele>276.800000</ele>
                <time>2018-09-29T10:26:04Z</time>
            </trkpt>
            <trkpt lon="99.402493" lat="13.984390">
                <ele>276.000000</ele>
                <time>2018-09-29T10:26:09Z</time>
            </trkpt>
            <trkpt lon="99.402447" lat="13.984393">
                <ele>275.800000</ele>
                <time>2018-09-29T10:26:10Z</time>
            </trkpt>
            <trkpt lon="99.402401" lat="13.984399">
                <ele>275.400000</ele>
                <time>2018-09-29T10:26:11Z</time>
            </trkpt>
            <trkpt lon="99.402186" lat="13.984402">
                <ele>274.600000</ele>
                <time>2018-09-29T10:26:16Z</time>
            </trkpt>
            <trkpt lon="99.401928" lat="13.984421">
                <ele>274.000000</ele>
                <time>2018-09-29T10:26:22Z</time>
            </trkpt>
            <trkpt lon="99.401627" lat="13.984553">
                <ele>273.400000</ele>
                <time>2018-09-29T10:26:29Z</time>
            </trkpt>
            <trkpt lon="99.401502" lat="13.984616">
                <ele>273.200000</ele>
                <time>2018-09-29T10:26:32Z</time>
            </trkpt>
            <trkpt lon="99.401323" lat="13.984707">
                <ele>272.600000</ele>
                <time>2018-09-29T10:26:36Z</time>
            </trkpt>
            <trkpt lon="99.401228" lat="13.984732">
                <ele>272.400000</ele>
                <time>2018-09-29T10:26:38Z</time>
            </trkpt>
            <trkpt lon="99.401138" lat="13.984749">
                <ele>272.000000</ele>
                <time>2018-09-29T10:26:40Z</time>
            </trkpt>
            <trkpt lon="99.400999" lat="13.984751">
                <ele>272.000000</ele>
                <time>2018-09-29T10:26:43Z</time>
            </trkpt>
            <trkpt lon="99.400460" lat="13.984762">
                <ele>273.200000</ele>
                <time>2018-09-29T10:26:56Z</time>
            </trkpt>
            <trkpt lon="99.400208" lat="13.984764">
                <ele>274.200000</ele>
                <time>2018-09-29T10:27:02Z</time>
            </trkpt>
            <trkpt lon="99.399634" lat="13.984853">
                <ele>274.600000</ele>
                <time>2018-09-29T10:27:16Z</time>
            </trkpt>
            <trkpt lon="99.399467" lat="13.984749">
                <ele>275.400000</ele>
                <time>2018-09-29T10:27:25Z</time>
            </trkpt>
            <trkpt lon="99.399292" lat="13.984566">
                <ele>276.400000</ele>
                <time>2018-09-29T10:27:34Z</time>
            </trkpt>
            <trkpt lon="99.399264" lat="13.984528">
                <ele>276.800000</ele>
                <time>2018-09-29T10:27:36Z</time>
            </trkpt>
            <trkpt lon="99.399210" lat="13.984452">
                <ele>277.400000</ele>
                <time>2018-09-29T10:27:40Z</time>
            </trkpt>
            <trkpt lon="99.399147" lat="13.984384">
                <ele>278.400000</ele>
                <time>2018-09-29T10:27:45Z</time>
            </trkpt>
            <trkpt lon="99.399079" lat="13.984292">
                <ele>279.400000</ele>
                <time>2018-09-29T10:27:51Z</time>
            </trkpt>
            <trkpt lon="99.398878" lat="13.984136">
                <ele>280.200000</ele>
                <time>2018-09-29T10:28:01Z</time>
            </trkpt>
            <trkpt lon="99.398680" lat="13.983696">
                <ele>281.200000</ele>
                <time>2018-09-29T10:28:25Z</time>
            </trkpt>
            <trkpt lon="99.398677" lat="13.983663">
                <ele>281.400000</ele>
                <time>2018-09-29T10:28:27Z</time>
            </trkpt>
            <trkpt lon="99.398669" lat="13.983634">
                <ele>281.400000</ele>
                <time>2018-09-29T10:28:29Z</time>
            </trkpt>
            <trkpt lon="99.398665" lat="13.983618">
                <ele>281.400000</ele>
                <time>2018-09-29T10:28:30Z</time>
            </trkpt>
            <trkpt lon="99.398473" lat="13.983465">
                <ele>282.200000</ele>
                <time>2018-09-29T10:28:42Z</time>
            </trkpt>
            <trkpt lon="99.397878" lat="13.983465">
                <ele>283.400000</ele>
                <time>2018-09-29T10:29:01Z</time>
            </trkpt>
            <trkpt lon="99.397515" lat="13.983501">
                <ele>284.400000</ele>
                <time>2018-09-29T10:29:14Z</time>
            </trkpt>
            <trkpt lon="99.397311" lat="13.983428">
                <ele>285.400000</ele>
                <time>2018-09-29T10:29:23Z</time>
            </trkpt>
            <trkpt lon="99.397170" lat="13.983379">
                <ele>286.600000</ele>
                <time>2018-09-29T10:29:30Z</time>
            </trkpt>
            <trkpt lon="99.397022" lat="13.983337">
                <ele>287.600000</ele>
                <time>2018-09-29T10:29:38Z</time>
            </trkpt>
            <trkpt lon="99.396867" lat="13.983289">
                <ele>288.400000</ele>
                <time>2018-09-29T10:29:49Z</time>
            </trkpt>
            <trkpt lon="99.396756" lat="13.983228">
                <ele>289.600000</ele>
                <time>2018-09-29T10:29:58Z</time>
            </trkpt>
            <trkpt lon="99.396511" lat="13.983070">
                <ele>290.400000</ele>
                <time>2018-09-29T10:30:14Z</time>
            </trkpt>
            <trkpt lon="99.396343" lat="13.982983">
                <ele>291.400000</ele>
                <time>2018-09-29T10:30:25Z</time>
            </trkpt>
            <trkpt lon="99.396255" lat="13.982944">
                <ele>292.000000</ele>
                <time>2018-09-29T10:30:31Z</time>
            </trkpt>
            <trkpt lon="99.396166" lat="13.982887">
                <ele>292.600000</ele>
                <time>2018-09-29T10:30:37Z</time>
            </trkpt>
            <trkpt lon="99.395848" lat="13.982847">
                <ele>293.400000</ele>
                <time>2018-09-29T10:30:49Z</time>
            </trkpt>
            <trkpt lon="99.395360" lat="13.982956">
                <ele>293.600000</ele>
                <time>2018-09-29T10:31:04Z</time>
            </trkpt>
            <trkpt lon="99.394821" lat="13.982953">
                <ele>294.000000</ele>
                <time>2018-09-29T10:31:21Z</time>
            </trkpt>
            <trkpt lon="99.394699" lat="13.982938">
                <ele>295.000000</ele>
                <time>2018-09-29T10:31:25Z</time>
            </trkpt>
            <trkpt lon="99.394371" lat="13.982903">
                <ele>296.000000</ele>
                <time>2018-09-29T10:31:36Z</time>
            </trkpt>
            <trkpt lon="99.393996" lat="13.982856">
                <ele>297.000000</ele>
                <time>2018-09-29T10:31:50Z</time>
            </trkpt>
            <trkpt lon="99.393700" lat="13.982764">
                <ele>298.400000</ele>
                <time>2018-09-29T10:32:02Z</time>
            </trkpt>
            <trkpt lon="99.393571" lat="13.982715">
                <ele>299.400000</ele>
                <time>2018-09-29T10:32:08Z</time>
            </trkpt>
            <trkpt lon="99.393339" lat="13.982668">
                <ele>300.400000</ele>
                <time>2018-09-29T10:32:19Z</time>
            </trkpt>
            <trkpt lon="99.393009" lat="13.982687">
                <ele>300.600000</ele>
                <time>2018-09-29T10:32:29Z</time>
            </trkpt>
            <trkpt lon="99.392555" lat="13.982680">
                <ele>299.400000</ele>
                <time>2018-09-29T10:32:39Z</time>
            </trkpt>
            <trkpt lon="99.391947" lat="13.982736">
                <ele>299.400000</ele>
                <time>2018-09-29T10:32:53Z</time>
            </trkpt>
            <trkpt lon="99.391716" lat="13.982815">
                <ele>299.400000</ele>
                <time>2018-09-29T10:32:59Z</time>
            </trkpt>
            <trkpt lon="99.391558" lat="13.982899">
                <ele>299.600000</ele>
                <time>2018-09-29T10:33:03Z</time>
            </trkpt>
            <trkpt lon="99.391018" lat="13.983055">
                <ele>299.400000</ele>
                <time>2018-09-29T10:33:15Z</time>
            </trkpt>
            <trkpt lon="99.390633" lat="13.983144">
                <ele>300.000000</ele>
                <time>2018-09-29T10:33:24Z</time>
            </trkpt>
            <trkpt lon="99.390144" lat="13.983267">
                <ele>299.400000</ele>
                <time>2018-09-29T10:33:34Z</time>
            </trkpt>
            <trkpt lon="99.389859" lat="13.983306">
                <ele>298.600000</ele>
                <time>2018-09-29T10:33:39Z</time>
            </trkpt>
            <trkpt lon="99.389543" lat="13.983317">
                <ele>297.400000</ele>
                <time>2018-09-29T10:33:45Z</time>
            </trkpt>
            <trkpt lon="99.388963" lat="13.983271">
                <ele>296.600000</ele>
                <time>2018-09-29T10:33:57Z</time>
            </trkpt>
            <trkpt lon="99.388407" lat="13.983135">
                <ele>298.400000</ele>
                <time>2018-09-29T10:34:12Z</time>
            </trkpt>
            <trkpt lon="99.388370" lat="13.983129">
                <ele>298.600000</ele>
                <time>2018-09-29T10:34:13Z</time>
            </trkpt>
            <trkpt lon="99.388152" lat="13.983146">
                <ele>299.400000</ele>
                <time>2018-09-29T10:34:19Z</time>
            </trkpt>
            <trkpt lon="99.388036" lat="13.983213">
                <ele>299.600000</ele>
                <time>2018-09-29T10:34:22Z</time>
            </trkpt>
            <trkpt lon="99.387914" lat="13.983314">
                <ele>299.600000</ele>
                <time>2018-09-29T10:34:26Z</time>
            </trkpt>
            <trkpt lon="99.387900" lat="13.983587">
                <ele>298.400000</ele>
                <time>2018-09-29T10:34:33Z</time>
            </trkpt>
            <trkpt lon="99.387872" lat="13.983899">
                <ele>297.200000</ele>
                <time>2018-09-29T10:34:39Z</time>
            </trkpt>
            <trkpt lon="99.387849" lat="13.984110">
                <ele>296.200000</ele>
                <time>2018-09-29T10:34:43Z</time>
            </trkpt>
            <trkpt lon="99.387838" lat="13.984306">
                <ele>295.000000</ele>
                <time>2018-09-29T10:34:47Z</time>
            </trkpt>
            <trkpt lon="99.387824" lat="13.984452">
                <ele>294.800000</ele>
                <time>2018-09-29T10:34:51Z</time>
            </trkpt>
            <trkpt lon="99.388374" lat="13.984525">
                <ele>295.400000</ele>
                <time>2018-09-29T10:35:13Z</time>
            </trkpt>
            <trkpt lon="99.388788" lat="13.984487">
                <ele>295.200000</ele>
                <time>2018-09-29T10:35:27Z</time>
            </trkpt>
            <trkpt lon="99.388869" lat="13.984484">
                <ele>295.200000</ele>
                <time>2018-09-29T10:35:29Z</time>
            </trkpt>
            <trkpt lon="99.389032" lat="13.984480">
                <ele>294.600000</ele>
                <time>2018-09-29T10:35:33Z</time>
            </trkpt>
            <trkpt lon="99.389133" lat="13.984655">
                <ele>293.600000</ele>
                <time>2018-09-29T10:35:38Z</time>
            </trkpt>
            <trkpt lon="99.389129" lat="13.984764">
                <ele>293.400000</ele>
                <time>2018-09-29T10:35:40Z</time>
            </trkpt>
            <trkpt lon="99.389129" lat="13.984818">
                <ele>293.200000</ele>
                <time>2018-09-29T10:35:41Z</time>
            </trkpt>
            <trkpt lon="99.389132" lat="13.985059">
                <ele>292.600000</ele>
                <time>2018-09-29T10:35:45Z</time>
            </trkpt>
            <trkpt lon="99.389144" lat="13.985179">
                <ele>292.000000</ele>
                <time>2018-09-29T10:35:47Z</time>
            </trkpt>
            <trkpt lon="99.389160" lat="13.985231">
                <ele>291.400000</ele>
                <time>2018-09-29T10:35:48Z</time>
            </trkpt>
            <trkpt lon="99.389313" lat="13.985356">
                <ele>290.200000</ele>
                <time>2018-09-29T10:35:52Z</time>
            </trkpt>
            <trkpt lon="99.389382" lat="13.985637">
                <ele>289.200000</ele>
                <time>2018-09-29T10:36:03Z</time>
            </trkpt>
            <trkpt lon="99.389330" lat="13.985685">
                <ele>288.600000</ele>
                <time>2018-09-29T10:36:05Z</time>
            </trkpt>
            <trkpt lon="99.389076" lat="13.985894">
                <ele>288.200000</ele>
                <time>2018-09-29T10:36:12Z</time>
            </trkpt>
            <trkpt lon="99.388856" lat="13.986062">
                <ele>288.000000</ele>
                <time>2018-09-29T10:36:18Z</time>
            </trkpt>
            <trkpt lon="99.388858" lat="13.986178">
                <ele>287.200000</ele>
                <time>2018-09-29T10:36:21Z</time>
            </trkpt>
            <trkpt lon="99.388856" lat="13.986253">
                <ele>287.000000</ele>
                <time>2018-09-29T10:36:23Z</time>
            </trkpt>
            <trkpt lon="99.388845" lat="13.986347">
                <ele>286.800000</ele>
                <time>2018-09-29T10:36:25Z</time>
            </trkpt>
            <trkpt lon="99.388864" lat="13.986580">
                <ele>285.800000</ele>
                <time>2018-09-29T10:36:32Z</time>
            </trkpt>
            <trkpt lon="99.388855" lat="13.986624">
                <ele>285.400000</ele>
                <time>2018-09-29T10:36:37Z</time>
            </trkpt>
            <trkpt lon="99.388877" lat="13.986629">
                <ele>285.200000</ele>
                <time>2018-09-29T10:36:40Z</time>
            </trkpt>
            <trkpt lon="99.388887" lat="13.986638">
                <ele>285.200000</ele>
                <time>2018-09-29T10:36:41Z</time>
            </trkpt>
            <trkpt lon="99.388913" lat="13.986667">
                <ele>285.000000</ele>
                <time>2018-09-29T10:36:45Z</time>
            </trkpt>
            <trkpt lon="99.388944" lat="13.986681">
                <ele>285.000000</ele>
                <time>2018-09-29T10:36:47Z</time>
            </trkpt>
            <trkpt lon="99.388960" lat="13.986704">
                <ele>285.000000</ele>
                <time>2018-09-29T10:36:49Z</time>
            </trkpt>
            <trkpt lon="99.388967" lat="13.986739">
                <ele>285.200000</ele>
                <time>2018-09-29T10:36:52Z</time>
            </trkpt>
            <trkpt lon="99.388978" lat="13.986774">
                <ele>285.000000</ele>
                <time>2018-09-29T10:36:56Z</time>
            </trkpt>
            <trkpt lon="99.388990" lat="13.986788">
                <ele>285.000000</ele>
                <time>2018-09-29T10:36:58Z</time>
            </trkpt>
            <trkpt lon="99.389182" lat="13.986877">
                <ele>284.400000</ele>
                <time>2018-09-29T10:37:10Z</time>
            </trkpt>
            <trkpt lon="99.389307" lat="13.986995">
                <ele>283.400000</ele>
                <time>2018-09-29T10:37:18Z</time>
            </trkpt>
            <trkpt lon="99.389323" lat="13.987038">
                <ele>283.200000</ele>
                <time>2018-09-29T10:37:20Z</time>
            </trkpt>
            <trkpt lon="99.389299" lat="13.987144">
                <ele>282.800000</ele>
                <time>2018-09-29T10:37:25Z</time>
            </trkpt>
            <trkpt lon="99.389191" lat="13.987254">
                <ele>282.400000</ele>
                <time>2018-09-29T10:37:30Z</time>
            </trkpt>
            <trkpt lon="99.389163" lat="13.987280">
                <ele>282.000000</ele>
                <time>2018-09-29T10:37:31Z</time>
            </trkpt>
            <trkpt lon="99.389030" lat="13.987423">
                <ele>282.000000</ele>
                <time>2018-09-29T10:37:36Z</time>
            </trkpt>
            <trkpt lon="99.388857" lat="13.987516">
                <ele>281.800000</ele>
                <time>2018-09-29T10:37:44Z</time>
            </trkpt>
            <trkpt lon="99.388829" lat="13.987521">
                <ele>281.800000</ele>
                <time>2018-09-29T10:37:47Z</time>
            </trkpt>
            <trkpt lon="99.388787" lat="13.987542">
                <ele>282.200000</ele>
                <time>2018-09-29T10:37:51Z</time>
            </trkpt>
            <trkpt lon="99.388777" lat="13.987546">
                <ele>282.200000</ele>
                <time>2018-09-29T10:37:52Z</time>
            </trkpt>
            <trkpt lon="99.388754" lat="13.987571">
                <ele>282.200000</ele>
                <time>2018-09-29T10:37:54Z</time>
            </trkpt>
            <trkpt lon="99.388725" lat="13.987593">
                <ele>282.200000</ele>
                <time>2018-09-29T10:37:56Z</time>
            </trkpt>
            <trkpt lon="99.388654" lat="13.987630">
                <ele>282.200000</ele>
                <time>2018-09-29T10:38:00Z</time>
            </trkpt>
            <trkpt lon="99.388237" lat="13.987711">
                <ele>281.800000</ele>
                <time>2018-09-29T10:38:15Z</time>
            </trkpt>
            <trkpt lon="99.388073" lat="13.987756">
                <ele>281.400000</ele>
                <time>2018-09-29T10:38:20Z</time>
            </trkpt>
            <trkpt lon="99.388039" lat="13.987759">
                <ele>281.400000</ele>
                <time>2018-09-29T10:38:21Z</time>
            </trkpt>
            <trkpt lon="99.387929" lat="13.987763">
                <ele>281.200000</ele>
                <time>2018-09-29T10:38:25Z</time>
            </trkpt>
            <trkpt lon="99.387862" lat="13.987760">
                <ele>280.800000</ele>
                <time>2018-09-29T10:38:31Z</time>
            </trkpt>
            <trkpt lon="99.387789" lat="13.987752">
                <ele>280.600000</ele>
                <time>2018-09-29T10:38:37Z</time>
            </trkpt>
            <trkpt lon="99.387765" lat="13.987745">
                <ele>280.400000</ele>
                <time>2018-09-29T10:38:39Z</time>
            </trkpt>
            <trkpt lon="99.387419" lat="13.987619">
                <ele>280.000000</ele>
                <time>2018-09-29T10:39:10Z</time>
            </trkpt>
            <trkpt lon="99.387399" lat="13.987596">
                <ele>280.000000</ele>
                <time>2018-09-29T10:39:12Z</time>
            </trkpt>
            <trkpt lon="99.387388" lat="13.987590">
                <ele>280.000000</ele>
                <time>2018-09-29T10:39:13Z</time>
            </trkpt>
            <trkpt lon="99.387378" lat="13.987585">
                <ele>280.000000</ele>
                <time>2018-09-29T10:39:14Z</time>
            </trkpt>
            <trkpt lon="99.387376" lat="13.987572">
                <ele>280.000000</ele>
                <time>2018-09-29T10:39:16Z</time>
            </trkpt>
            <trkpt lon="99.387151" lat="13.987388">
                <ele>280.600000</ele>
                <time>2018-09-29T10:39:41Z</time>
            </trkpt>
            <trkpt lon="99.386707" lat="13.987213">
                <ele>280.400000</ele>
                <time>2018-09-29T10:40:30Z</time>
            </trkpt>
            <trkpt lon="99.386649" lat="13.987205">
                <ele>280.600000</ele>
                <time>2018-09-29T10:40:34Z</time>
            </trkpt>
            <trkpt lon="99.386604" lat="13.987199">
                <ele>280.600000</ele>
                <time>2018-09-29T10:40:38Z</time>
            </trkpt>
            <trkpt lon="99.386576" lat="13.987196">
                <ele>280.600000</ele>
                <time>2018-09-29T10:40:40Z</time>
            </trkpt>
            <trkpt lon="99.386495" lat="13.987254">
                <ele>280.600000</ele>
                <time>2018-09-29T10:40:49Z</time>
            </trkpt>
            <trkpt lon="99.386461" lat="13.987447">
                <ele>280.400000</ele>
                <time>2018-09-29T10:40:57Z</time>
            </trkpt>
            <trkpt lon="99.386466" lat="13.987938">
                <ele>279.000000</ele>
                <time>2018-09-29T10:41:11Z</time>
            </trkpt>
            <trkpt lon="99.386453" lat="13.988042">
                <ele>278.600000</ele>
                <time>2018-09-29T10:41:14Z</time>
            </trkpt>
            <trkpt lon="99.386269" lat="13.988156">
                <ele>278.000000</ele>
                <time>2018-09-29T10:41:20Z</time>
            </trkpt>
            <trkpt lon="99.386234" lat="13.988164">
                <ele>277.800000</ele>
                <time>2018-09-29T10:41:21Z</time>
            </trkpt>
            <trkpt lon="99.386160" lat="13.988185">
                <ele>277.600000</ele>
                <time>2018-09-29T10:41:23Z</time>
            </trkpt>
            <trkpt lon="99.386053" lat="13.988219">
                <ele>277.400000</ele>
                <time>2018-09-29T10:41:26Z</time>
            </trkpt>
            <trkpt lon="99.385709" lat="13.988381">
                <ele>277.200000</ele>
                <time>2018-09-29T10:41:36Z</time>
            </trkpt>
            <trkpt lon="99.385593" lat="13.988517">
                <ele>277.200000</ele>
                <time>2018-09-29T10:41:40Z</time>
            </trkpt>
            <trkpt lon="99.385567" lat="13.988552">
                <ele>277.000000</ele>
                <time>2018-09-29T10:41:41Z</time>
            </trkpt>
            <trkpt lon="99.385503" lat="13.988622">
                <ele>277.000000</ele>
                <time>2018-09-29T10:41:43Z</time>
            </trkpt>
            <trkpt lon="99.385395" lat="13.988709">
                <ele>276.800000</ele>
                <time>2018-09-29T10:41:46Z</time>
            </trkpt>
            <trkpt lon="99.385279" lat="13.988775">
                <ele>276.600000</ele>
                <time>2018-09-29T10:41:50Z</time>
            </trkpt>
            <trkpt lon="99.385360" lat="13.988968">
                <ele>277.000000</ele>
                <time>2018-09-29T10:42:00Z</time>
            </trkpt>
            <trkpt lon="99.385372" lat="13.989004">
                <ele>277.000000</ele>
                <time>2018-09-29T10:42:03Z</time>
            </trkpt>
            <trkpt lon="99.385378" lat="13.989016">
                <ele>277.000000</ele>
                <time>2018-09-29T10:42:06Z</time>
            </trkpt>
            <trkpt lon="99.385543" lat="13.989265">
                <ele>276.000000</ele>
                <time>2018-09-29T10:42:31Z</time>
            </trkpt>
            <trkpt lon="99.385718" lat="13.989499">
                <ele>275.000000</ele>
                <time>2018-09-29T10:42:46Z</time>
            </trkpt>
            <trkpt lon="99.385755" lat="13.989526">
                <ele>275.000000</ele>
                <time>2018-09-29T10:42:49Z</time>
            </trkpt>
            <trkpt lon="99.385760" lat="13.989545">
                <ele>274.800000</ele>
                <time>2018-09-29T10:42:50Z</time>
            </trkpt>
            <trkpt lon="99.385768" lat="13.989592">
                <ele>274.800000</ele>
                <time>2018-09-29T10:42:53Z</time>
            </trkpt>
            <trkpt lon="99.385764" lat="13.989627">
                <ele>274.800000</ele>
                <time>2018-09-29T10:42:55Z</time>
            </trkpt>
            <trkpt lon="99.385790" lat="13.989704">
                <ele>274.600000</ele>
                <time>2018-09-29T10:42:59Z</time>
            </trkpt>
            <trkpt lon="99.385825" lat="13.989826">
                <ele>274.400000</ele>
                <time>2018-09-29T10:43:04Z</time>
            </trkpt>
            <trkpt lon="99.385847" lat="13.989864">
                <ele>274.400000</ele>
                <time>2018-09-29T10:43:06Z</time>
            </trkpt>
            <trkpt lon="99.385868" lat="13.989908">
                <ele>274.400000</ele>
                <time>2018-09-29T10:43:08Z</time>
            </trkpt>
            <trkpt lon="99.386043" lat="13.990324">
                <ele>273.800000</ele>
                <time>2018-09-29T10:43:24Z</time>
            </trkpt>
            <trkpt lon="99.386108" lat="13.990512">
                <ele>273.400000</ele>
                <time>2018-09-29T10:43:32Z</time>
            </trkpt>
            <trkpt lon="99.386141" lat="13.990618">
                <ele>272.800000</ele>
                <time>2018-09-29T10:43:36Z</time>
            </trkpt>
            <trkpt lon="99.386166" lat="13.990811">
                <ele>272.200000</ele>
                <time>2018-09-29T10:43:43Z</time>
            </trkpt>
            <trkpt lon="99.386122" lat="13.991274">
                <ele>271.600000</ele>
                <time>2018-09-29T10:43:56Z</time>
            </trkpt>
            <trkpt lon="99.386163" lat="13.991391">
                <ele>271.200000</ele>
                <time>2018-09-29T10:44:00Z</time>
            </trkpt>
            <trkpt lon="99.386162" lat="13.991407">
                <ele>271.200000</ele>
                <time>2018-09-29T10:44:02Z</time>
            </trkpt>
            <trkpt lon="99.386157" lat="13.991412">
                <ele>271.200000</ele>
                <time>2018-09-29T10:44:03Z</time>
            </trkpt>
            <trkpt lon="99.386154" lat="13.991413">
                <ele>271.200000</ele>
                <time>2018-09-29T10:44:04Z</time>
            </trkpt>
            <trkpt lon="99.386149" lat="13.991414">
                <ele>271.200000</ele>
                <time>2018-09-29T10:44:05Z</time>
            </trkpt>
            <trkpt lon="99.386144" lat="13.991420">
                <ele>271.200000</ele>
                <time>2018-09-29T10:44:06Z</time>
            </trkpt>
            <trkpt lon="99.386137" lat="13.991432">
                <ele>271.200000</ele>
                <time>2018-09-29T10:44:07Z</time>
            </trkpt>
            <trkpt lon="99.385913" lat="13.991563">
                <ele>271.200000</ele>
                <time>2018-09-29T10:44:19Z</time>
            </trkpt>
            <trkpt lon="99.385822" lat="13.991650">
                <ele>271.200000</ele>
                <time>2018-09-29T10:44:24Z</time>
            </trkpt>
            <trkpt lon="99.385784" lat="13.991799">
                <ele>271.200000</ele>
                <time>2018-09-29T10:44:30Z</time>
            </trkpt>
            <trkpt lon="99.385694" lat="13.991824">
                <ele>271.000000</ele>
                <time>2018-09-29T10:44:35Z</time>
            </trkpt>
            <trkpt lon="99.385629" lat="13.991816">
                <ele>271.200000</ele>
                <time>2018-09-29T10:44:39Z</time>
            </trkpt>
            <trkpt lon="99.385620" lat="13.991819">
                <ele>271.200000</ele>
                <time>2018-09-29T10:44:40Z</time>
            </trkpt>
            <trkpt lon="99.385578" lat="13.991883">
                <ele>271.200000</ele>
                <time>2018-09-29T10:44:46Z</time>
            </trkpt>
            <trkpt lon="99.385312" lat="13.992171">
                <ele>272.000000</ele>
                <time>2018-09-29T10:45:15Z</time>
            </trkpt>
            <trkpt lon="99.385281" lat="13.992192">
                <ele>272.200000</ele>
                <time>2018-09-29T10:45:19Z</time>
            </trkpt>
            <trkpt lon="99.385276" lat="13.992198">
                <ele>272.200000</ele>
                <time>2018-09-29T10:45:20Z</time>
            </trkpt>
            <trkpt lon="99.384880" lat="13.992538">
                <ele>273.000000</ele>
                <time>2018-09-29T10:45:44Z</time>
            </trkpt>
            <trkpt lon="99.384826" lat="13.992597">
                <ele>272.800000</ele>
                <time>2018-09-29T10:45:47Z</time>
            </trkpt>
            <trkpt lon="99.384740" lat="13.992760">
                <ele>271.400000</ele>
                <time>2018-09-29T10:45:55Z</time>
            </trkpt>
            <trkpt lon="99.384706" lat="13.992799">
                <ele>271.000000</ele>
                <time>2018-09-29T10:45:57Z</time>
            </trkpt>
            <trkpt lon="99.384691" lat="13.992821">
                <ele>270.400000</ele>
                <time>2018-09-29T10:45:59Z</time>
            </trkpt>
            <trkpt lon="99.384692" lat="13.992835">
                <ele>270.200000</ele>
                <time>2018-09-29T10:46:00Z</time>
            </trkpt>
            <trkpt lon="99.384647" lat="13.992918">
                <ele>269.200000</ele>
                <time>2018-09-29T10:46:04Z</time>
            </trkpt>
            <trkpt lon="99.384451" lat="13.993059">
                <ele>268.400000</ele>
                <time>2018-09-29T10:46:13Z</time>
            </trkpt>
            <trkpt lon="99.384323" lat="13.993111">
                <ele>267.800000</ele>
                <time>2018-09-29T10:46:17Z</time>
            </trkpt>
            <trkpt lon="99.384227" lat="13.993124">
                <ele>267.600000</ele>
                <time>2018-09-29T10:46:20Z</time>
            </trkpt>
            <trkpt lon="99.383980" lat="13.993190">
                <ele>266.800000</ele>
                <time>2018-09-29T10:46:26Z</time>
            </trkpt>
            <trkpt lon="99.383859" lat="13.993283">
                <ele>266.000000</ele>
                <time>2018-09-29T10:46:29Z</time>
            </trkpt>
            <trkpt lon="99.383787" lat="13.993332">
                <ele>264.400000</ele>
                <time>2018-09-29T10:46:31Z</time>
            </trkpt>
            <trkpt lon="99.383751" lat="13.993358">
                <ele>264.200000</ele>
                <time>2018-09-29T10:46:32Z</time>
            </trkpt>
            <trkpt lon="99.383685" lat="13.993417">
                <ele>263.800000</ele>
                <time>2018-09-29T10:46:34Z</time>
            </trkpt>
            <trkpt lon="99.383650" lat="13.993453">
                <ele>263.600000</ele>
                <time>2018-09-29T10:46:35Z</time>
            </trkpt>
            <trkpt lon="99.383536" lat="13.993574">
                <ele>262.400000</ele>
                <time>2018-09-29T10:46:39Z</time>
            </trkpt>
            <trkpt lon="99.383414" lat="13.993745">
                <ele>261.200000</ele>
                <time>2018-09-29T10:46:45Z</time>
            </trkpt>
            <trkpt lon="99.383321" lat="13.993863">
                <ele>260.000000</ele>
                <time>2018-09-29T10:46:50Z</time>
            </trkpt>
            <trkpt lon="99.383299" lat="13.993884">
                <ele>259.600000</ele>
                <time>2018-09-29T10:46:51Z</time>
            </trkpt>
            <trkpt lon="99.383250" lat="13.993922">
                <ele>258.800000</ele>
                <time>2018-09-29T10:46:53Z</time>
            </trkpt>
            <trkpt lon="99.383225" lat="13.993964">
                <ele>258.000000</ele>
                <time>2018-09-29T10:46:55Z</time>
            </trkpt>
            <trkpt lon="99.383209" lat="13.994008">
                <ele>257.600000</ele>
                <time>2018-09-29T10:46:57Z</time>
            </trkpt>
            <trkpt lon="99.383099" lat="13.994177">
                <ele>256.600000</ele>
                <time>2018-09-29T10:47:03Z</time>
            </trkpt>
            <trkpt lon="99.383064" lat="13.994265">
                <ele>255.400000</ele>
                <time>2018-09-29T10:47:06Z</time>
            </trkpt>
            <trkpt lon="99.383041" lat="13.994346">
                <ele>254.000000</ele>
                <time>2018-09-29T10:47:09Z</time>
            </trkpt>
            <trkpt lon="99.383008" lat="13.994411">
                <ele>252.600000</ele>
                <time>2018-09-29T10:47:11Z</time>
            </trkpt>
            <trkpt lon="99.382965" lat="13.994478">
                <ele>252.000000</ele>
                <time>2018-09-29T10:47:13Z</time>
            </trkpt>
            <trkpt lon="99.382942" lat="13.994516">
                <ele>251.600000</ele>
                <time>2018-09-29T10:47:14Z</time>
            </trkpt>
            <trkpt lon="99.382883" lat="13.994602">
                <ele>250.400000</ele>
                <time>2018-09-29T10:47:17Z</time>
            </trkpt>
            <trkpt lon="99.382863" lat="13.994709">
                <ele>249.200000</ele>
                <time>2018-09-29T10:47:20Z</time>
            </trkpt>
            <trkpt lon="99.382857" lat="13.994786">
                <ele>248.200000</ele>
                <time>2018-09-29T10:47:22Z</time>
            </trkpt>
            <trkpt lon="99.382851" lat="13.994828">
                <ele>247.600000</ele>
                <time>2018-09-29T10:47:23Z</time>
            </trkpt>
            <trkpt lon="99.382849" lat="13.994909">
                <ele>247.200000</ele>
                <time>2018-09-29T10:47:25Z</time>
            </trkpt>
            <trkpt lon="99.382844" lat="13.994985">
                <ele>246.400000</ele>
                <time>2018-09-29T10:47:27Z</time>
            </trkpt>
            <trkpt lon="99.382838" lat="13.995025">
                <ele>246.200000</ele>
                <time>2018-09-29T10:47:28Z</time>
            </trkpt>
            <trkpt lon="99.382828" lat="13.995065">
                <ele>246.200000</ele>
                <time>2018-09-29T10:47:29Z</time>
            </trkpt>
            <trkpt lon="99.382789" lat="13.995159">
                <ele>245.800000</ele>
                <time>2018-09-29T10:47:31Z</time>
            </trkpt>
            <trkpt lon="99.382695" lat="13.995301">
                <ele>245.000000</ele>
                <time>2018-09-29T10:47:34Z</time>
            </trkpt>
            <trkpt lon="99.382600" lat="13.995547">
                <ele>243.800000</ele>
                <time>2018-09-29T10:47:38Z</time>
            </trkpt>
            <trkpt lon="99.382527" lat="13.995720">
                <ele>241.800000</ele>
                <time>2018-09-29T10:47:41Z</time>
            </trkpt>
            <trkpt lon="99.382489" lat="13.995885">
                <ele>240.400000</ele>
                <time>2018-09-29T10:47:44Z</time>
            </trkpt>
            <trkpt lon="99.382481" lat="13.995947">
                <ele>239.000000</ele>
                <time>2018-09-29T10:47:46Z</time>
            </trkpt>
            <trkpt lon="99.382474" lat="13.995959">
                <ele>236.200000</ele>
                <time>2018-09-29T11:02:10Z</time>
            </trkpt>
            <trkpt lon="99.382476" lat="13.996005">
                <ele>236.200000</ele>
                <time>2018-09-29T11:02:12Z</time>
            </trkpt>
            <trkpt lon="99.382476" lat="13.996029">
                <ele>236.200000</ele>
                <time>2018-09-29T11:02:13Z</time>
            </trkpt>
            <trkpt lon="99.382392" lat="13.996233">
                <ele>236.000000</ele>
                <time>2018-09-29T11:02:20Z</time>
            </trkpt>
            <trkpt lon="99.382314" lat="13.996459">
                <ele>235.000000</ele>
                <time>2018-09-29T11:02:24Z</time>
            </trkpt>
            <trkpt lon="99.382237" lat="13.996662">
                <ele>233.800000</ele>
                <time>2018-09-29T11:02:27Z</time>
            </trkpt>
            <trkpt lon="99.382205" lat="13.996729">
                <ele>233.400000</ele>
                <time>2018-09-29T11:02:28Z</time>
            </trkpt>
            <trkpt lon="99.382171" lat="13.996793">
                <ele>232.600000</ele>
                <time>2018-09-29T11:02:29Z</time>
            </trkpt>
            <trkpt lon="99.382113" lat="13.996926">
                <ele>231.600000</ele>
                <time>2018-09-29T11:02:31Z</time>
            </trkpt>
            <trkpt lon="99.382064" lat="13.997044">
                <ele>230.000000</ele>
                <time>2018-09-29T11:02:33Z</time>
            </trkpt>
            <trkpt lon="99.382012" lat="13.997147">
                <ele>228.000000</ele>
                <time>2018-09-29T11:02:35Z</time>
            </trkpt>
            <trkpt lon="99.381989" lat="13.997198">
                <ele>227.400000</ele>
                <time>2018-09-29T11:02:36Z</time>
            </trkpt>
            <trkpt lon="99.381959" lat="13.997250">
                <ele>227.000000</ele>
                <time>2018-09-29T11:02:37Z</time>
            </trkpt>
            <trkpt lon="99.381916" lat="13.997356">
                <ele>226.600000</ele>
                <time>2018-09-29T11:02:39Z</time>
            </trkpt>
            <trkpt lon="99.381883" lat="13.997460">
                <ele>226.000000</ele>
                <time>2018-09-29T11:02:41Z</time>
            </trkpt>
            <trkpt lon="99.381858" lat="13.997517">
                <ele>225.800000</ele>
                <time>2018-09-29T11:02:42Z</time>
            </trkpt>
            <trkpt lon="99.381756" lat="13.997714">
                <ele>223.400000</ele>
                <time>2018-09-29T11:02:46Z</time>
            </trkpt>
            <trkpt lon="99.381671" lat="13.997867">
                <ele>221.800000</ele>
                <time>2018-09-29T11:02:49Z</time>
            </trkpt>
            <trkpt lon="99.381614" lat="13.997966">
                <ele>219.800000</ele>
                <time>2018-09-29T11:02:51Z</time>
            </trkpt>
            <trkpt lon="99.381578" lat="13.998046">
                <ele>218.000000</ele>
                <time>2018-09-29T11:02:53Z</time>
            </trkpt>
            <trkpt lon="99.381581" lat="13.998099">
                <ele>216.400000</ele>
                <time>2018-09-29T11:02:55Z</time>
            </trkpt>
            <trkpt lon="99.381630" lat="13.998113">
                <ele>214.600000</ele>
                <time>2018-09-29T11:02:57Z</time>
            </trkpt>
            <trkpt lon="99.381703" lat="13.998122">
                <ele>213.400000</ele>
                <time>2018-09-29T11:02:59Z</time>
            </trkpt>
            <trkpt lon="99.381748" lat="13.998131">
                <ele>212.800000</ele>
                <time>2018-09-29T11:03:00Z</time>
            </trkpt>
            <trkpt lon="99.381879" lat="13.998204">
                <ele>212.200000</ele>
                <time>2018-09-29T11:03:03Z</time>
            </trkpt>
            <trkpt lon="99.382026" lat="13.998377">
                <ele>211.400000</ele>
                <time>2018-09-29T11:03:07Z</time>
            </trkpt>
            <trkpt lon="99.382055" lat="13.998422">
                <ele>210.800000</ele>
                <time>2018-09-29T11:03:08Z</time>
            </trkpt>
            <trkpt lon="99.382084" lat="13.998472">
                <ele>210.200000</ele>
                <time>2018-09-29T11:03:09Z</time>
            </trkpt>
            <trkpt lon="99.382150" lat="13.998564">
                <ele>209.200000</ele>
                <time>2018-09-29T11:03:11Z</time>
            </trkpt>
            <trkpt lon="99.382223" lat="13.998637">
                <ele>208.000000</ele>
                <time>2018-09-29T11:03:13Z</time>
            </trkpt>
            <trkpt lon="99.382367" lat="13.998728">
                <ele>206.800000</ele>
                <time>2018-09-29T11:03:16Z</time>
            </trkpt>
            <trkpt lon="99.382518" lat="13.998801">
                <ele>205.600000</ele>
                <time>2018-09-29T11:03:19Z</time>
            </trkpt>
            <trkpt lon="99.382564" lat="13.998822">
                <ele>205.200000</ele>
                <time>2018-09-29T11:03:20Z</time>
            </trkpt>
            <trkpt lon="99.382657" lat="13.998847">
                <ele>204.600000</ele>
                <time>2018-09-29T11:03:23Z</time>
            </trkpt>
            <trkpt lon="99.383088" lat="13.999115">
                <ele>205.200000</ele>
                <time>2018-09-29T11:03:36Z</time>
            </trkpt>
            <trkpt lon="99.383479" lat="13.999449">
                <ele>204.200000</ele>
                <time>2018-09-29T11:03:44Z</time>
            </trkpt>
            <trkpt lon="99.383563" lat="13.999488">
                <ele>203.600000</ele>
                <time>2018-09-29T11:03:46Z</time>
            </trkpt>
            <trkpt lon="99.383764" lat="13.999776">
                <ele>203.400000</ele>
                <time>2018-09-29T11:03:57Z</time>
            </trkpt>
            <trkpt lon="99.383762" lat="13.999791">
                <ele>203.400000</ele>
                <time>2018-09-29T11:03:58Z</time>
            </trkpt>
            <trkpt lon="99.383787" lat="13.999835">
                <ele>204.400000</ele>
                <time>2018-09-29T11:04:32Z</time>
            </trkpt>
            <trkpt lon="99.383810" lat="13.999885">
                <ele>204.400000</ele>
                <time>2018-09-29T11:04:34Z</time>
            </trkpt>
            <trkpt lon="99.383952" lat="14.000235">
                <ele>203.800000</ele>
                <time>2018-09-29T11:04:41Z</time>
            </trkpt>
            <trkpt lon="99.383995" lat="14.000324">
                <ele>203.000000</ele>
                <time>2018-09-29T11:04:43Z</time>
            </trkpt>
            <trkpt lon="99.384013" lat="14.000355">
                <ele>202.400000</ele>
                <time>2018-09-29T11:04:44Z</time>
            </trkpt>
            <trkpt lon="99.384228" lat="14.000839">
                <ele>202.800000</ele>
                <time>2018-09-29T11:05:00Z</time>
            </trkpt>
            <trkpt lon="99.384229" lat="14.000857">
                <ele>203.000000</ele>
                <time>2018-09-29T11:05:02Z</time>
            </trkpt>
            <trkpt lon="99.384057" lat="14.001005">
                <ele>203.200000</ele>
                <time>2018-09-29T11:05:10Z</time>
            </trkpt>
            <trkpt lon="99.383812" lat="14.001221">
                <ele>202.600000</ele>
                <time>2018-09-29T11:05:16Z</time>
            </trkpt>
            <trkpt lon="99.383570" lat="14.001296">
                <ele>201.400000</ele>
                <time>2018-09-29T11:05:20Z</time>
            </trkpt>
            <trkpt lon="99.383446" lat="14.001340">
                <ele>201.000000</ele>
                <time>2018-09-29T11:05:22Z</time>
            </trkpt>
            <trkpt lon="99.383272" lat="14.001439">
                <ele>200.000000</ele>
                <time>2018-09-29T11:05:25Z</time>
            </trkpt>
            <trkpt lon="99.383147" lat="14.001500">
                <ele>199.400000</ele>
                <time>2018-09-29T11:05:27Z</time>
            </trkpt>
            <trkpt lon="99.383014" lat="14.001558">
                <ele>198.800000</ele>
                <time>2018-09-29T11:05:29Z</time>
            </trkpt>
            <trkpt lon="99.382876" lat="14.001606">
                <ele>198.000000</ele>
                <time>2018-09-29T11:05:31Z</time>
            </trkpt>
            <trkpt lon="99.382731" lat="14.001627">
                <ele>197.600000</ele>
                <time>2018-09-29T11:05:33Z</time>
            </trkpt>
            <trkpt lon="99.382520" lat="14.001640">
                <ele>197.000000</ele>
                <time>2018-09-29T11:05:36Z</time>
            </trkpt>
            <trkpt lon="99.382455" lat="14.001633">
                <ele>196.400000</ele>
                <time>2018-09-29T11:05:37Z</time>
            </trkpt>
            <trkpt lon="99.382341" lat="14.001615">
                <ele>195.600000</ele>
                <time>2018-09-29T11:05:40Z</time>
            </trkpt>
            <trkpt lon="99.382109" lat="14.001652">
                <ele>194.400000</ele>
                <time>2018-09-29T11:05:48Z</time>
            </trkpt>
            <trkpt lon="99.381544" lat="14.001677">
                <ele>193.600000</ele>
                <time>2018-09-29T11:06:00Z</time>
            </trkpt>
            <trkpt lon="99.381485" lat="14.001669">
                <ele>193.200000</ele>
                <time>2018-09-29T11:06:01Z</time>
            </trkpt>
            <trkpt lon="99.381424" lat="14.001664">
                <ele>193.000000</ele>
                <time>2018-09-29T11:06:02Z</time>
            </trkpt>
            <trkpt lon="99.381203" lat="14.001720">
                <ele>192.200000</ele>
                <time>2018-09-29T11:06:06Z</time>
            </trkpt>
            <trkpt lon="99.381115" lat="14.001748">
                <ele>191.600000</ele>
                <time>2018-09-29T11:06:08Z</time>
            </trkpt>
            <trkpt lon="99.381019" lat="14.001735">
                <ele>191.000000</ele>
                <time>2018-09-29T11:06:10Z</time>
            </trkpt>
            <trkpt lon="99.380694" lat="14.001653">
                <ele>190.200000</ele>
                <time>2018-09-29T11:06:16Z</time>
            </trkpt>
            <trkpt lon="99.380575" lat="14.001658">
                <ele>189.800000</ele>
                <time>2018-09-29T11:06:18Z</time>
            </trkpt>
            <trkpt lon="99.380287" lat="14.001701">
                <ele>188.800000</ele>
                <time>2018-09-29T11:06:23Z</time>
            </trkpt>
            <trkpt lon="99.380126" lat="14.001765">
                <ele>187.600000</ele>
                <time>2018-09-29T11:06:26Z</time>
            </trkpt>
            <trkpt lon="99.379874" lat="14.001897">
                <ele>187.000000</ele>
                <time>2018-09-29T11:06:31Z</time>
            </trkpt>
            <trkpt lon="99.379727" lat="14.001993">
                <ele>186.800000</ele>
                <time>2018-09-29T11:06:34Z</time>
            </trkpt>
            <trkpt lon="99.379558" lat="14.002055">
                <ele>186.600000</ele>
                <time>2018-09-29T11:06:37Z</time>
            </trkpt>
            <trkpt lon="99.379324" lat="14.002060">
                <ele>186.200000</ele>
                <time>2018-09-29T11:06:41Z</time>
            </trkpt>
            <trkpt lon="99.379137" lat="14.002074">
                <ele>185.800000</ele>
                <time>2018-09-29T11:06:44Z</time>
            </trkpt>
            <trkpt lon="99.379048" lat="14.002148">
                <ele>185.600000</ele>
                <time>2018-09-29T11:06:46Z</time>
            </trkpt>
            <trkpt lon="99.378761" lat="14.002349">
                <ele>184.400000</ele>
                <time>2018-09-29T11:06:51Z</time>
            </trkpt>
            <trkpt lon="99.378419" lat="14.002519">
                <ele>183.400000</ele>
                <time>2018-09-29T11:06:56Z</time>
            </trkpt>
            <trkpt lon="99.378368" lat="14.002561">
                <ele>182.800000</ele>
                <time>2018-09-29T11:06:57Z</time>
            </trkpt>
            <trkpt lon="99.378319" lat="14.002588">
                <ele>181.800000</ele>
                <time>2018-09-29T11:06:58Z</time>
            </trkpt>
            <trkpt lon="99.378272" lat="14.002615">
                <ele>179.400000</ele>
                <time>2018-09-29T11:06:59Z</time>
            </trkpt>
            <trkpt lon="99.378236" lat="14.002650">
                <ele>178.200000</ele>
                <time>2018-09-29T11:07:00Z</time>
            </trkpt>
            <trkpt lon="99.378188" lat="14.002725">
                <ele>177.200000</ele>
                <time>2018-09-29T11:07:02Z</time>
            </trkpt>
            <trkpt lon="99.378361" lat="14.002957">
                <ele>177.600000</ele>
                <time>2018-09-29T11:07:16Z</time>
            </trkpt>
            <trkpt lon="99.378463" lat="14.003012">
                <ele>178.200000</ele>
                <time>2018-09-29T11:07:21Z</time>
            </trkpt>
            <trkpt lon="99.378365" lat="14.003075">
                <ele>179.800000</ele>
                <time>2018-09-29T11:07:29Z</time>
            </trkpt>
            <trkpt lon="99.378322" lat="14.003063">
                <ele>181.000000</ele>
                <time>2018-09-29T11:07:32Z</time>
            </trkpt>
            <trkpt lon="99.378303" lat="14.003060">
                <ele>181.400000</ele>
                <time>2018-09-29T11:07:33Z</time>
            </trkpt>
            <trkpt lon="99.377752" lat="14.002880">
                <ele>180.800000</ele>
                <time>2018-09-29T11:07:52Z</time>
            </trkpt>
            <trkpt lon="99.377443" lat="14.002711">
                <ele>180.400000</ele>
                <time>2018-09-29T11:08:01Z</time>
            </trkpt>
            <trkpt lon="99.377281" lat="14.002732">
                <ele>180.000000</ele>
                <time>2018-09-29T11:08:05Z</time>
            </trkpt>
            <trkpt lon="99.377043" lat="14.002890">
                <ele>178.800000</ele>
                <time>2018-09-29T11:08:12Z</time>
            </trkpt>
            <trkpt lon="99.377005" lat="14.002897">
                <ele>178.600000</ele>
                <time>2018-09-29T11:08:13Z</time>
            </trkpt>
            <trkpt lon="99.376827" lat="14.002934">
                <ele>177.800000</ele>
                <time>2018-09-29T11:08:17Z</time>
            </trkpt>
            <trkpt lon="99.376803" lat="14.003165">
                <ele>176.800000</ele>
                <time>2018-09-29T11:08:23Z</time>
            </trkpt>
            <trkpt lon="99.376805" lat="14.003205">
                <ele>176.400000</ele>
                <time>2018-09-29T11:08:24Z</time>
            </trkpt>
            <trkpt lon="99.376616" lat="14.003472">
                <ele>176.400000</ele>
                <time>2018-09-29T11:08:34Z</time>
            </trkpt>
            <trkpt lon="99.376556" lat="14.003459">
                <ele>176.400000</ele>
                <time>2018-09-29T11:08:38Z</time>
            </trkpt>
            <trkpt lon="99.376404" lat="14.003454">
                <ele>176.600000</ele>
                <time>2018-09-29T11:08:49Z</time>
            </trkpt>
            <trkpt lon="99.376371" lat="14.003444">
                <ele>176.400000</ele>
                <time>2018-09-29T11:08:54Z</time>
            </trkpt>
            <trkpt lon="99.376142" lat="14.003401">
                <ele>176.400000</ele>
                <time>2018-09-29T11:09:03Z</time>
            </trkpt>
            <trkpt lon="99.376047" lat="14.003477">
                <ele>176.000000</ele>
                <time>2018-09-29T11:09:08Z</time>
            </trkpt>
            <trkpt lon="99.376050" lat="14.003537">
                <ele>175.600000</ele>
                <time>2018-09-29T11:09:10Z</time>
            </trkpt>
            <trkpt lon="99.376069" lat="14.003631">
                <ele>175.000000</ele>
                <time>2018-09-29T11:09:13Z</time>
            </trkpt>
            <trkpt lon="99.376160" lat="14.004035">
                <ele>174.600000</ele>
                <time>2018-09-29T11:09:23Z</time>
            </trkpt>
            <trkpt lon="99.376252" lat="14.004543">
                <ele>175.200000</ele>
                <time>2018-09-29T11:09:37Z</time>
            </trkpt>
            <trkpt lon="99.376356" lat="14.005102">
                <ele>176.600000</ele>
                <time>2018-09-29T11:09:53Z</time>
            </trkpt>
            <trkpt lon="99.376390" lat="14.005246">
                <ele>176.800000</ele>
                <time>2018-09-29T11:09:58Z</time>
            </trkpt>
            <trkpt lon="99.376391" lat="14.005339">
                <ele>177.400000</ele>
                <time>2018-09-29T11:10:02Z</time>
            </trkpt>
            <trkpt lon="99.376300" lat="14.005354">
                <ele>177.600000</ele>
                <time>2018-09-29T11:10:06Z</time>
            </trkpt>
            <trkpt lon="99.376266" lat="14.005350">
                <ele>177.800000</ele>
                <time>2018-09-29T11:10:07Z</time>
            </trkpt>
            <trkpt lon="99.375642" lat="14.005298">
                <ele>177.200000</ele>
                <time>2018-09-29T11:10:19Z</time>
            </trkpt>
            <trkpt lon="99.375511" lat="14.005286">
                <ele>176.600000</ele>
                <time>2018-09-29T11:10:21Z</time>
            </trkpt>
            <trkpt lon="99.375230" lat="14.005268">
                <ele>175.800000</ele>
                <time>2018-09-29T11:10:25Z</time>
            </trkpt>
            <trkpt lon="99.374925" lat="14.005253">
                <ele>174.600000</ele>
                <time>2018-09-29T11:10:29Z</time>
            </trkpt>
            <trkpt lon="99.374691" lat="14.005261">
                <ele>173.400000</ele>
                <time>2018-09-29T11:10:32Z</time>
            </trkpt>
            <trkpt lon="99.374458" lat="14.005289">
                <ele>172.200000</ele>
                <time>2018-09-29T11:10:35Z</time>
            </trkpt>
            <trkpt lon="99.374151" lat="14.005337">
                <ele>171.200000</ele>
                <time>2018-09-29T11:10:39Z</time>
            </trkpt>
            <trkpt lon="99.373934" lat="14.005393">
                <ele>170.600000</ele>
                <time>2018-09-29T11:10:42Z</time>
            </trkpt>
            <trkpt lon="99.373709" lat="14.005545">
                <ele>170.200000</ele>
                <time>2018-09-29T11:10:46Z</time>
            </trkpt>
            <trkpt lon="99.373625" lat="14.005641">
                <ele>169.800000</ele>
                <time>2018-09-29T11:10:48Z</time>
            </trkpt>
            <trkpt lon="99.373282" lat="14.006080">
                <ele>169.400000</ele>
                <time>2018-09-29T11:10:57Z</time>
            </trkpt>
            <trkpt lon="99.372907" lat="14.006535">
                <ele>169.200000</ele>
                <time>2018-09-29T11:11:07Z</time>
            </trkpt>
            <trkpt lon="99.372867" lat="14.006582">
                <ele>169.200000</ele>
                <time>2018-09-29T11:11:08Z</time>
            </trkpt>
            <trkpt lon="99.372491" lat="14.007007">
                <ele>168.200000</ele>
                <time>2018-09-29T11:11:17Z</time>
            </trkpt>
            <trkpt lon="99.372439" lat="14.007045">
                <ele>168.000000</ele>
                <time>2018-09-29T11:11:18Z</time>
            </trkpt>
            <trkpt lon="99.371938" lat="14.007369">
                <ele>167.400000</ele>
                <time>2018-09-29T11:11:27Z</time>
            </trkpt>
            <trkpt lon="99.371665" lat="14.007570">
                <ele>167.000000</ele>
                <time>2018-09-29T11:11:32Z</time>
            </trkpt>
            <trkpt lon="99.371315" lat="14.007830">
                <ele>166.000000</ele>
                <time>2018-09-29T11:11:39Z</time>
            </trkpt>
            <trkpt lon="99.371047" lat="14.007993">
                <ele>165.400000</ele>
                <time>2018-09-29T11:11:44Z</time>
            </trkpt>
            <trkpt lon="99.370439" lat="14.008073">
                <ele>165.000000</ele>
                <time>2018-09-29T11:11:54Z</time>
            </trkpt>
            <trkpt lon="99.370264" lat="14.008097">
                <ele>165.000000</ele>
                <time>2018-09-29T11:11:57Z</time>
            </trkpt>
            <trkpt lon="99.370209" lat="14.008109">
                <ele>165.000000</ele>
                <time>2018-09-29T11:11:58Z</time>
            </trkpt>
            <trkpt lon="99.369948" lat="14.008543">
                <ele>164.800000</ele>
                <time>2018-09-29T11:12:08Z</time>
            </trkpt>
            <trkpt lon="99.369726" lat="14.008779">
                <ele>164.400000</ele>
                <time>2018-09-29T11:12:14Z</time>
            </trkpt>
            <trkpt lon="99.369677" lat="14.008796">
                <ele>164.400000</ele>
                <time>2018-09-29T11:12:15Z</time>
            </trkpt>
            <trkpt lon="99.369368" lat="14.008885">
                <ele>164.000000</ele>
                <time>2018-09-29T11:12:21Z</time>
            </trkpt>
            <trkpt lon="99.369306" lat="14.008895">
                <ele>163.800000</ele>
                <time>2018-09-29T11:12:22Z</time>
            </trkpt>
            <trkpt lon="99.368891" lat="14.008946">
                <ele>163.400000</ele>
                <time>2018-09-29T11:12:28Z</time>
            </trkpt>
            <trkpt lon="99.368746" lat="14.008968">
                <ele>162.800000</ele>
                <time>2018-09-29T11:12:30Z</time>
            </trkpt>
            <trkpt lon="99.368524" lat="14.008989">
                <ele>161.400000</ele>
                <time>2018-09-29T11:12:33Z</time>
            </trkpt>
            <trkpt lon="99.368454" lat="14.009000">
                <ele>161.000000</ele>
                <time>2018-09-29T11:12:34Z</time>
            </trkpt>
            <trkpt lon="99.368358" lat="14.009072">
                <ele>160.200000</ele>
                <time>2018-09-29T11:12:36Z</time>
            </trkpt>
            <trkpt lon="99.368307" lat="14.009260">
                <ele>159.600000</ele>
                <time>2018-09-29T11:12:39Z</time>
            </trkpt>
            <trkpt lon="99.368289" lat="14.009386">
                <ele>159.200000</ele>
                <time>2018-09-29T11:12:41Z</time>
            </trkpt>
            <trkpt lon="99.368249" lat="14.009504">
                <ele>158.600000</ele>
                <time>2018-09-29T11:12:43Z</time>
            </trkpt>
            <trkpt lon="99.368169" lat="14.009582">
                <ele>158.000000</ele>
                <time>2018-09-29T11:12:45Z</time>
            </trkpt>
            <trkpt lon="99.367906" lat="14.009612">
                <ele>157.200000</ele>
                <time>2018-09-29T11:12:50Z</time>
            </trkpt>
            <trkpt lon="99.367790" lat="14.009610">
                <ele>157.200000</ele>
                <time>2018-09-29T11:12:52Z</time>
            </trkpt>
            <trkpt lon="99.367731" lat="14.009619">
                <ele>157.200000</ele>
                <time>2018-09-29T11:12:53Z</time>
            </trkpt>
            <trkpt lon="99.367496" lat="14.009712">
                <ele>156.600000</ele>
                <time>2018-09-29T11:12:57Z</time>
            </trkpt>
            <trkpt lon="99.367425" lat="14.009747">
                <ele>156.000000</ele>
                <time>2018-09-29T11:12:59Z</time>
            </trkpt>
            <trkpt lon="99.367375" lat="14.009751">
                <ele>155.400000</ele>
                <time>2018-09-29T11:13:01Z</time>
            </trkpt>
            <trkpt lon="99.367331" lat="14.009729">
                <ele>154.400000</ele>
                <time>2018-09-29T11:13:03Z</time>
            </trkpt>
            <trkpt lon="99.367289" lat="14.009684">
                <ele>153.400000</ele>
                <time>2018-09-29T11:13:06Z</time>
            </trkpt>
            <trkpt lon="99.367192" lat="14.009537">
                <ele>153.000000</ele>
                <time>2018-09-29T11:13:12Z</time>
            </trkpt>
            <trkpt lon="99.366822" lat="14.009104">
                <ele>153.000000</ele>
                <time>2018-09-29T11:13:26Z</time>
            </trkpt>
            <trkpt lon="99.366591" lat="14.008937">
                <ele>153.200000</ele>
                <time>2018-09-29T11:13:32Z</time>
            </trkpt>
            <trkpt lon="99.366209" lat="14.008631">
                <ele>153.000000</ele>
                <time>2018-09-29T11:13:41Z</time>
            </trkpt>
            <trkpt lon="99.366054" lat="14.008524">
                <ele>152.600000</ele>
                <time>2018-09-29T11:13:44Z</time>
            </trkpt>
            <trkpt lon="99.365854" lat="14.008342">
                <ele>151.600000</ele>
                <time>2018-09-29T11:13:48Z</time>
            </trkpt>
            <trkpt lon="99.365811" lat="14.008330">
                <ele>150.800000</ele>
                <time>2018-09-29T11:13:56Z</time>
            </trkpt>
            <trkpt lon="99.365816" lat="14.008356">
                <ele>150.800000</ele>
                <time>2018-09-29T11:13:57Z</time>
            </trkpt>
            <trkpt lon="99.365771" lat="14.008442">
                <ele>150.600000</ele>
                <time>2018-09-29T11:14:00Z</time>
            </trkpt>
            <trkpt lon="99.365616" lat="14.008553">
                <ele>150.400000</ele>
                <time>2018-09-29T11:14:04Z</time>
            </trkpt>
            <trkpt lon="99.365466" lat="14.008637">
                <ele>150.400000</ele>
                <time>2018-09-29T11:14:07Z</time>
            </trkpt>
            <trkpt lon="99.365303" lat="14.008715">
                <ele>149.800000</ele>
                <time>2018-09-29T11:14:10Z</time>
            </trkpt>
            <trkpt lon="99.365254" lat="14.008750">
                <ele>149.000000</ele>
                <time>2018-09-29T11:14:11Z</time>
            </trkpt>
            <trkpt lon="99.365105" lat="14.008916">
                <ele>147.800000</ele>
                <time>2018-09-29T11:14:15Z</time>
            </trkpt>
            <trkpt lon="99.365000" lat="14.009095">
                <ele>146.800000</ele>
                <time>2018-09-29T11:14:19Z</time>
            </trkpt>
            <trkpt lon="99.364983" lat="14.009137">
                <ele>146.800000</ele>
                <time>2018-09-29T11:14:20Z</time>
            </trkpt>
            <trkpt lon="99.364712" lat="14.009637">
                <ele>146.600000</ele>
                <time>2018-09-29T11:14:33Z</time>
            </trkpt>
            <trkpt lon="99.364581" lat="14.009958">
                <ele>145.800000</ele>
                <time>2018-09-29T11:14:43Z</time>
            </trkpt>
            <trkpt lon="99.364420" lat="14.010361">
                <ele>146.200000</ele>
                <time>2018-09-29T11:14:56Z</time>
            </trkpt>
            <trkpt lon="99.364217" lat="14.010390">
                <ele>147.000000</ele>
                <time>2018-09-29T11:15:02Z</time>
            </trkpt>
            <trkpt lon="99.364122" lat="14.010426">
                <ele>148.000000</ele>
                <time>2018-09-29T11:15:05Z</time>
            </trkpt>
            <trkpt lon="99.364023" lat="14.010459">
                <ele>149.000000</ele>
                <time>2018-09-29T11:15:09Z</time>
            </trkpt>
            <trkpt lon="99.363497" lat="14.010596">
                <ele>149.000000</ele>
                <time>2018-09-29T11:15:25Z</time>
            </trkpt>
            <trkpt lon="99.363248" lat="14.010626">
                <ele>148.200000</ele>
                <time>2018-09-29T11:15:32Z</time>
            </trkpt>
            <trkpt lon="99.363064" lat="14.010620">
                <ele>147.800000</ele>
                <time>2018-09-29T11:15:36Z</time>
            </trkpt>
            <trkpt lon="99.362813" lat="14.010568">
                <ele>147.600000</ele>
                <time>2018-09-29T11:15:43Z</time>
            </trkpt>
            <trkpt lon="99.362692" lat="14.010434">
                <ele>147.400000</ele>
                <time>2018-09-29T11:15:47Z</time>
            </trkpt>
            <trkpt lon="99.362441" lat="14.010214">
                <ele>147.000000</ele>
                <time>2018-09-29T11:15:54Z</time>
            </trkpt>
            <trkpt lon="99.362211" lat="14.010142">
                <ele>146.400000</ele>
                <time>2018-09-29T11:15:58Z</time>
            </trkpt>
            <trkpt lon="99.362112" lat="14.010100">
                <ele>145.800000</ele>
                <time>2018-09-29T11:16:00Z</time>
            </trkpt>
            <trkpt lon="99.362065" lat="14.010078">
                <ele>145.400000</ele>
                <time>2018-09-29T11:16:01Z</time>
            </trkpt>
            <trkpt lon="99.362016" lat="14.010060">
                <ele>144.800000</ele>
                <time>2018-09-29T11:16:02Z</time>
            </trkpt>
            <trkpt lon="99.361918" lat="14.010052">
                <ele>143.600000</ele>
                <time>2018-09-29T11:16:04Z</time>
            </trkpt>
            <trkpt lon="99.361837" lat="14.010071">
                <ele>143.400000</ele>
                <time>2018-09-29T11:16:06Z</time>
            </trkpt>
            <trkpt lon="99.361500" lat="14.010154">
                <ele>143.200000</ele>
                <time>2018-09-29T11:16:14Z</time>
            </trkpt>
            <trkpt lon="99.361143" lat="14.010537">
                <ele>144.400000</ele>
                <time>2018-09-29T11:16:29Z</time>
            </trkpt>
            <trkpt lon="99.361077" lat="14.010654">
                <ele>144.800000</ele>
                <time>2018-09-29T11:16:33Z</time>
            </trkpt>
            <trkpt lon="99.360951" lat="14.010973">
                <ele>146.200000</ele>
                <time>2018-09-29T11:16:45Z</time>
            </trkpt>
            <trkpt lon="99.360940" lat="14.010981">
                <ele>146.200000</ele>
                <time>2018-09-29T11:16:46Z</time>
            </trkpt>
            <trkpt lon="99.361063" lat="14.011165">
                <ele>147.200000</ele>
                <time>2018-09-29T11:17:01Z</time>
            </trkpt>
            <trkpt lon="99.361077" lat="14.011168">
                <ele>147.400000</ele>
                <time>2018-09-29T11:17:02Z</time>
            </trkpt>
            <trkpt lon="99.361092" lat="14.011171">
                <ele>147.600000</ele>
                <time>2018-09-29T11:17:03Z</time>
            </trkpt>
            <trkpt lon="99.361105" lat="14.011172">
                <ele>147.600000</ele>
                <time>2018-09-29T11:17:04Z</time>
            </trkpt>
            <trkpt lon="99.361114" lat="14.011176">
                <ele>147.800000</ele>
                <time>2018-09-29T11:17:05Z</time>
            </trkpt>
            <trkpt lon="99.361116" lat="14.011183">
                <ele>147.800000</ele>
                <time>2018-09-29T11:17:07Z</time>
            </trkpt>
            <trkpt lon="99.361527" lat="14.011231">
                <ele>154.000000</ele>
                <time>2018-09-29T11:18:02Z</time>
            </trkpt>
            <trkpt lon="99.361996" lat="14.011232">
                <ele>153.600000</ele>
                <time>2018-09-29T11:18:23Z</time>
            </trkpt>
            <trkpt lon="99.362058" lat="14.011321">
                <ele>153.200000</ele>
                <time>2018-09-29T11:18:27Z</time>
            </trkpt>
            <trkpt lon="99.362062" lat="14.011363">
                <ele>153.200000</ele>
                <time>2018-09-29T11:18:28Z</time>
            </trkpt>
            <trkpt lon="99.362126" lat="14.011620">
                <ele>152.600000</ele>
                <time>2018-09-29T11:18:33Z</time>
            </trkpt>
            <trkpt lon="99.362183" lat="14.011809">
                <ele>151.200000</ele>
                <time>2018-09-29T11:18:37Z</time>
            </trkpt>
            <trkpt lon="99.362210" lat="14.011899">
                <ele>150.000000</ele>
                <time>2018-09-29T11:18:39Z</time>
            </trkpt>
            <trkpt lon="99.362296" lat="14.012173">
                <ele>149.600000</ele>
                <time>2018-09-29T11:18:49Z</time>
            </trkpt>
            <trkpt lon="99.362300" lat="14.012188">
                <ele>150.400000</ele>
                <time>2018-09-29T11:18:51Z</time>
            </trkpt>
            <trkpt lon="99.362271" lat="14.012198">
                <ele>151.200000</ele>
                <time>2018-09-29T11:18:53Z</time>
            </trkpt>
            <trkpt lon="99.362180" lat="14.012226">
                <ele>152.200000</ele>
                <time>2018-09-29T11:18:57Z</time>
            </trkpt>
            <trkpt lon="99.362147" lat="14.012241">
                <ele>152.400000</ele>
                <time>2018-09-29T11:18:59Z</time>
            </trkpt>
            <trkpt lon="99.362078" lat="14.012243">
                <ele>152.200000</ele>
                <time>2018-09-29T11:20:32Z</time>
            </trkpt>
            <trkpt lon="99.361929" lat="14.012247">
                <ele>152.000000</ele>
                <time>2018-09-29T11:20:38Z</time>
            </trkpt>
            <trkpt lon="99.361778" lat="14.012224">
                <ele>151.800000</ele>
                <time>2018-09-29T11:20:42Z</time>
            </trkpt>
            <trkpt lon="99.361645" lat="14.012208">
                <ele>151.200000</ele>
                <time>2018-09-29T11:20:45Z</time>
            </trkpt>
            <trkpt lon="99.361465" lat="14.012234">
                <ele>150.200000</ele>
                <time>2018-09-29T11:20:50Z</time>
            </trkpt>
            <trkpt lon="99.361448" lat="14.012236">
                <ele>150.200000</ele>
                <time>2018-09-29T11:20:51Z</time>
            </trkpt>
            <trkpt lon="99.361447" lat="14.012257">
                <ele>148.800000</ele>
                <time>2018-09-29T11:20:57Z</time>
            </trkpt>
            <trkpt lon="99.361400" lat="14.012331">
                <ele>148.800000</ele>
                <time>2018-09-29T11:21:06Z</time>
            </trkpt>
            <trkpt lon="99.361387" lat="14.012354">
                <ele>148.800000</ele>
                <time>2018-09-29T11:21:09Z</time>
            </trkpt>
            <trkpt lon="99.361376" lat="14.012365">
                <ele>149.000000</ele>
                <time>2018-09-29T11:21:11Z</time>
            </trkpt>
            <trkpt lon="99.361361" lat="14.012381">
                <ele>149.200000</ele>
                <time>2018-09-29T11:21:13Z</time>
            </trkpt>
            <trkpt lon="99.361330" lat="14.012413">
                <ele>149.200000</ele>
                <time>2018-09-29T11:21:18Z</time>
            </trkpt>
            <trkpt lon="99.361271" lat="14.012462">
                <ele>149.200000</ele>
                <time>2018-09-29T11:21:24Z</time>
            </trkpt>
            <trkpt lon="99.361192" lat="14.012521">
                <ele>148.400000</ele>
                <time>2018-09-29T11:21:34Z</time>
            </trkpt>
            <trkpt lon="99.361174" lat="14.012528">
                <ele>148.400000</ele>
                <time>2018-09-29T11:21:36Z</time>
            </trkpt>
            <trkpt lon="99.361109" lat="14.012571">
                <ele>147.800000</ele>
                <time>2018-09-29T11:21:41Z</time>
            </trkpt>
            <trkpt lon="99.361082" lat="14.012585">
                <ele>147.600000</ele>
                <time>2018-09-29T11:21:43Z</time>
            </trkpt>
            <trkpt lon="99.361020" lat="14.012605">
                <ele>147.200000</ele>
                <time>2018-09-29T11:21:50Z</time>
            </trkpt>
            <trkpt lon="99.361007" lat="14.012619">
                <ele>147.200000</ele>
                <time>2018-09-29T11:21:52Z</time>
            </trkpt>
            <trkpt lon="99.361000" lat="14.012634">
                <ele>147.400000</ele>
                <time>2018-09-29T11:21:54Z</time>
            </trkpt>
            <trkpt lon="99.360925" lat="14.012727">
                <ele>148.000000</ele>
                <time>2018-09-29T11:22:03Z</time>
            </trkpt>
            <trkpt lon="99.360421" lat="14.012935">
                <ele>147.800000</ele>
                <time>2018-09-29T11:22:22Z</time>
            </trkpt>
            <trkpt lon="99.359919" lat="14.013153">
                <ele>148.000000</ele>
                <time>2018-09-29T11:22:37Z</time>
            </trkpt>
            <trkpt lon="99.359520" lat="14.013284">
                <ele>147.600000</ele>
                <time>2018-09-29T11:22:50Z</time>
            </trkpt>
            <trkpt lon="99.359547" lat="14.013401">
                <ele>147.400000</ele>
                <time>2018-09-29T11:22:55Z</time>
            </trkpt>
            <trkpt lon="99.359724" lat="14.013812">
                <ele>148.200000</ele>
                <time>2018-09-29T11:23:10Z</time>
            </trkpt>
            <trkpt lon="99.359592" lat="14.013885">
                <ele>149.200000</ele>
                <time>2018-09-29T11:23:16Z</time>
            </trkpt>
            <trkpt lon="99.359282" lat="14.013993">
                <ele>149.600000</ele>
                <time>2018-09-29T11:23:25Z</time>
            </trkpt>
            <trkpt lon="99.358762" lat="14.014209">
                <ele>148.600000</ele>
                <time>2018-09-29T11:23:38Z</time>
            </trkpt>
            <trkpt lon="99.358245" lat="14.014405">
                <ele>149.000000</ele>
                <time>2018-09-29T11:23:52Z</time>
            </trkpt>
            <trkpt lon="99.357773" lat="14.014659">
                <ele>150.400000</ele>
                <time>2018-09-29T11:24:12Z</time>
            </trkpt>
            <trkpt lon="99.357618" lat="14.014741">
                <ele>150.400000</ele>
                <time>2018-09-29T11:24:17Z</time>
            </trkpt>
            <trkpt lon="99.357569" lat="14.014767">
                <ele>150.200000</ele>
                <time>2018-09-29T11:24:39Z</time>
            </trkpt>
            <trkpt lon="99.357144" lat="14.015069">
                <ele>149.400000</ele>
                <time>2018-09-29T11:24:53Z</time>
            </trkpt>
            <trkpt lon="99.357003" lat="14.015152">
                <ele>148.800000</ele>
                <time>2018-09-29T11:24:57Z</time>
            </trkpt>
            <trkpt lon="99.356965" lat="14.015169">
                <ele>148.600000</ele>
                <time>2018-09-29T11:24:58Z</time>
            </trkpt>
            <trkpt lon="99.356888" lat="14.015203">
                <ele>148.400000</ele>
                <time>2018-09-29T11:25:00Z</time>
            </trkpt>
            <trkpt lon="99.356520" lat="14.015135">
                <ele>147.600000</ele>
                <time>2018-09-29T11:25:11Z</time>
            </trkpt>
            <trkpt lon="99.356485" lat="14.015114">
                <ele>147.600000</ele>
                <time>2018-09-29T11:25:12Z</time>
            </trkpt>
            <trkpt lon="99.356326" lat="14.015084">
                <ele>147.000000</ele>
                <time>2018-09-29T11:25:16Z</time>
            </trkpt>
            <trkpt lon="99.356243" lat="14.015083">
                <ele>146.800000</ele>
                <time>2018-09-29T11:25:18Z</time>
            </trkpt>
            <trkpt lon="99.356156" lat="14.015087">
                <ele>146.400000</ele>
                <time>2018-09-29T11:25:20Z</time>
            </trkpt>
            <trkpt lon="99.356027" lat="14.015075">
                <ele>146.000000</ele>
                <time>2018-09-29T11:25:25Z</time>
            </trkpt>
            <trkpt lon="99.355985" lat="14.015017">
                <ele>145.800000</ele>
                <time>2018-09-29T11:25:28Z</time>
            </trkpt>
            <trkpt lon="99.355973" lat="14.014992">
                <ele>145.600000</ele>
                <time>2018-09-29T11:25:29Z</time>
            </trkpt>
            <trkpt lon="99.355778" lat="14.014461">
                <ele>145.600000</ele>
                <time>2018-09-29T11:25:43Z</time>
            </trkpt>
            <trkpt lon="99.355608" lat="14.013948">
                <ele>144.800000</ele>
                <time>2018-09-29T11:25:58Z</time>
            </trkpt>
            <trkpt lon="99.355587" lat="14.013875">
                <ele>144.600000</ele>
                <time>2018-09-29T11:26:00Z</time>
            </trkpt>
            <trkpt lon="99.355478" lat="14.013554">
                <ele>143.600000</ele>
                <time>2018-09-29T11:26:10Z</time>
            </trkpt>
            <trkpt lon="99.355471" lat="14.013516">
                <ele>143.800000</ele>
                <time>2018-09-29T11:27:36Z</time>
            </trkpt>
            <trkpt lon="99.355310" lat="14.013005">
                <ele>143.000000</ele>
                <time>2018-09-29T11:27:49Z</time>
            </trkpt>
            <trkpt lon="99.355253" lat="14.012821">
                <ele>142.600000</ele>
                <time>2018-09-29T11:27:53Z</time>
            </trkpt>
            <trkpt lon="99.355084" lat="14.012267">
                <ele>142.200000</ele>
                <time>2018-09-29T11:28:05Z</time>
            </trkpt>
            <trkpt lon="99.355078" lat="14.012232">
                <ele>142.200000</ele>
                <time>2018-09-29T11:28:07Z</time>
            </trkpt>
            <trkpt lon="99.355051" lat="14.012290">
                <ele>142.800000</ele>
                <time>2018-09-29T11:29:12Z</time>
            </trkpt>
            <trkpt lon="99.355040" lat="14.012404">
                <ele>142.800000</ele>
                <time>2018-09-29T11:29:19Z</time>
            </trkpt>
            <trkpt lon="99.355215" lat="14.012953">
                <ele>142.600000</ele>
                <time>2018-09-29T11:29:37Z</time>
            </trkpt>
            <trkpt lon="99.355380" lat="14.013476">
                <ele>142.400000</ele>
                <time>2018-09-29T11:29:51Z</time>
            </trkpt>
            <trkpt lon="99.355533" lat="14.013959">
                <ele>143.600000</ele>
                <time>2018-09-29T11:30:05Z</time>
            </trkpt>
            <trkpt lon="99.355692" lat="14.014476">
                <ele>144.000000</ele>
                <time>2018-09-29T11:30:18Z</time>
            </trkpt>
            <trkpt lon="99.355729" lat="14.014590">
                <ele>144.400000</ele>
                <time>2018-09-29T11:30:22Z</time>
            </trkpt>
            <trkpt lon="99.355726" lat="14.014591">
                <ele>144.600000</ele>
                <time>2018-09-29T11:30:23Z</time>
            </trkpt>
            <trkpt lon="99.355727" lat="14.014588">
                <ele>144.600000</ele>
                <time>2018-09-29T11:30:24Z</time>
            </trkpt>
            <trkpt lon="99.355727" lat="14.014583">
                <ele>144.800000</ele>
                <time>2018-09-29T11:30:25Z</time>
            </trkpt>
            <trkpt lon="99.355724" lat="14.014577">
                <ele>145.000000</ele>
                <time>2018-09-29T11:30:26Z</time>
            </trkpt>
            <trkpt lon="99.355679" lat="14.014491">
                <ele>145.800000</ele>
                <time>2018-09-29T11:30:31Z</time>
            </trkpt>
            <trkpt lon="99.355556" lat="14.014489">
                <ele>146.000000</ele>
                <time>2018-09-29T11:30:40Z</time>
            </trkpt>
            <trkpt lon="99.355535" lat="14.014488">
                <ele>146.000000</ele>
                <time>2018-09-29T11:30:42Z</time>
            </trkpt>
            <trkpt lon="99.355529" lat="14.014485">
                <ele>146.000000</ele>
                <time>2018-09-29T11:30:43Z</time>
            </trkpt>
            <trkpt lon="99.355535" lat="14.014486">
                <ele>146.000000</ele>
                <time>2018-09-29T11:30:45Z</time>
            </trkpt>
            <trkpt lon="99.355674" lat="14.014469">
                <ele>146.400000</ele>
                <time>2018-09-29T11:30:53Z</time>
            </trkpt>
            <trkpt lon="99.355858" lat="14.014979">
                <ele>146.000000</ele>
                <time>2018-09-29T11:31:07Z</time>
            </trkpt>
            <trkpt lon="99.356021" lat="14.015512">
                <ele>145.600000</ele>
                <time>2018-09-29T11:31:17Z</time>
            </trkpt>
            <trkpt lon="99.356124" lat="14.015839">
                <ele>144.800000</ele>
                <time>2018-09-29T11:31:22Z</time>
            </trkpt>
            <trkpt lon="99.356236" lat="14.016193">
                <ele>143.800000</ele>
                <time>2018-09-29T11:31:27Z</time>
            </trkpt>
            <trkpt lon="99.356371" lat="14.016623">
                <ele>142.800000</ele>
                <time>2018-09-29T11:31:33Z</time>
            </trkpt>
            <trkpt lon="99.356462" lat="14.016912">
                <ele>141.600000</ele>
                <time>2018-09-29T11:31:37Z</time>
            </trkpt>
            <trkpt lon="99.356682" lat="14.017464">
                <ele>141.200000</ele>
                <time>2018-09-29T11:31:45Z</time>
            </trkpt>
            <trkpt lon="99.356849" lat="14.017779">
                <ele>141.400000</ele>
                <time>2018-09-29T11:31:52Z</time>
            </trkpt>
            <trkpt lon="99.356852" lat="14.017793">
                <ele>142.600000</ele>
                <time>2018-09-29T11:31:59Z</time>
            </trkpt>
            <trkpt lon="99.356855" lat="14.017797">
                <ele>143.000000</ele>
                <time>2018-09-29T11:32:00Z</time>
            </trkpt>
            <trkpt lon="99.357201" lat="14.018237">
                <ele>143.400000</ele>
                <time>2018-09-29T11:32:17Z</time>
            </trkpt>
            <trkpt lon="99.357563" lat="14.018589">
                <ele>144.000000</ele>
                <time>2018-09-29T11:32:27Z</time>
            </trkpt>
            <trkpt lon="99.357970" lat="14.018976">
                <ele>144.800000</ele>
                <time>2018-09-29T11:32:40Z</time>
            </trkpt>
            <trkpt lon="99.357999" lat="14.019003">
                <ele>145.000000</ele>
                <time>2018-09-29T11:32:41Z</time>
            </trkpt>
            <trkpt lon="99.358355" lat="14.019351">
                <ele>146.000000</ele>
                <time>2018-09-29T11:32:55Z</time>
            </trkpt>
            <trkpt lon="99.358604" lat="14.019589">
                <ele>147.200000</ele>
                <time>2018-09-29T11:33:05Z</time>
            </trkpt>
            <trkpt lon="99.358925" lat="14.019896">
                <ele>148.400000</ele>
                <time>2018-09-29T11:33:18Z</time>
            </trkpt>
            <trkpt lon="99.359146" lat="14.020106">
                <ele>149.200000</ele>
                <time>2018-09-29T11:33:27Z</time>
            </trkpt>
            <trkpt lon="99.359346" lat="14.020294">
                <ele>150.400000</ele>
                <time>2018-09-29T11:33:35Z</time>
            </trkpt>
            <trkpt lon="99.359661" lat="14.020593">
                <ele>151.200000</ele>
                <time>2018-09-29T11:33:47Z</time>
            </trkpt>
            <trkpt lon="99.359963" lat="14.020882">
                <ele>152.600000</ele>
                <time>2018-09-29T11:33:58Z</time>
            </trkpt>
            <trkpt lon="99.360348" lat="14.021248">
                <ele>152.800000</ele>
                <time>2018-09-29T11:34:11Z</time>
            </trkpt>
            <trkpt lon="99.360762" lat="14.021639">
                <ele>152.600000</ele>
                <time>2018-09-29T11:34:24Z</time>
            </trkpt>
            <trkpt lon="99.361164" lat="14.022022">
                <ele>152.400000</ele>
                <time>2018-09-29T11:34:35Z</time>
            </trkpt>
            <trkpt lon="99.361538" lat="14.022379">
                <ele>152.600000</ele>
                <time>2018-09-29T11:34:48Z</time>
            </trkpt>
            <trkpt lon="99.361631" lat="14.022470">
                <ele>152.600000</ele>
                <time>2018-09-29T11:34:51Z</time>
            </trkpt>
            <trkpt lon="99.362043" lat="14.022857">
                <ele>152.800000</ele>
                <time>2018-09-29T11:35:07Z</time>
            </trkpt>
            <trkpt lon="99.362129" lat="14.022957">
                <ele>153.200000</ele>
                <time>2018-09-29T11:35:12Z</time>
            </trkpt>
            <trkpt lon="99.361783" lat="14.023366">
                <ele>152.400000</ele>
                <time>2018-09-29T11:35:25Z</time>
            </trkpt>
            <trkpt lon="99.361489" lat="14.023688">
                <ele>151.600000</ele>
                <time>2018-09-29T11:35:34Z</time>
            </trkpt>
            <trkpt lon="99.361119" lat="14.024102">
                <ele>151.200000</ele>
                <time>2018-09-29T11:35:45Z</time>
            </trkpt>
            <trkpt lon="99.360729" lat="14.024542">
                <ele>151.400000</ele>
                <time>2018-09-29T11:35:58Z</time>
            </trkpt>
            <trkpt lon="99.360343" lat="14.024975">
                <ele>151.400000</ele>
                <time>2018-09-29T11:36:10Z</time>
            </trkpt>
            <trkpt lon="99.359971" lat="14.025393">
                <ele>151.200000</ele>
                <time>2018-09-29T11:36:22Z</time>
            </trkpt>
            <trkpt lon="99.359595" lat="14.025820">
                <ele>151.000000</ele>
                <time>2018-09-29T11:36:34Z</time>
            </trkpt>
            <trkpt lon="99.359528" lat="14.025895">
                <ele>150.800000</ele>
                <time>2018-09-29T11:36:36Z</time>
            </trkpt>
            <trkpt lon="99.359465" lat="14.025980">
                <ele>150.600000</ele>
                <time>2018-09-29T11:36:38Z</time>
            </trkpt>
            <trkpt lon="99.359432" lat="14.026021">
                <ele>150.600000</ele>
                <time>2018-09-29T11:36:39Z</time>
            </trkpt>
            <trkpt lon="99.359161" lat="14.026277">
                <ele>150.000000</ele>
                <time>2018-09-29T11:36:46Z</time>
            </trkpt>
            <trkpt lon="99.358913" lat="14.026332">
                <ele>149.600000</ele>
                <time>2018-09-29T11:36:51Z</time>
            </trkpt>
            <trkpt lon="99.358762" lat="14.026290">
                <ele>149.400000</ele>
                <time>2018-09-29T11:36:54Z</time>
            </trkpt>
            <trkpt lon="99.358249" lat="14.026062">
                <ele>148.800000</ele>
                <time>2018-09-29T11:37:04Z</time>
            </trkpt>
            <trkpt lon="99.357731" lat="14.025811">
                <ele>148.800000</ele>
                <time>2018-09-29T11:37:15Z</time>
            </trkpt>
            <trkpt lon="99.357151" lat="14.025735">
                <ele>149.600000</ele>
                <time>2018-09-29T11:37:26Z</time>
            </trkpt>
            <trkpt lon="99.356604" lat="14.025924">
                <ele>149.200000</ele>
                <time>2018-09-29T11:37:37Z</time>
            </trkpt>
            <trkpt lon="99.356073" lat="14.026138">
                <ele>149.800000</ele>
                <time>2018-09-29T11:37:49Z</time>
            </trkpt>
            <trkpt lon="99.355532" lat="14.026333">
                <ele>149.800000</ele>
                <time>2018-09-29T11:38:00Z</time>
            </trkpt>
            <trkpt lon="99.354984" lat="14.026503">
                <ele>149.400000</ele>
                <time>2018-09-29T11:38:12Z</time>
            </trkpt>
            <trkpt lon="99.354396" lat="14.026497">
                <ele>149.000000</ele>
                <time>2018-09-29T11:38:24Z</time>
            </trkpt>
            <trkpt lon="99.354200" lat="14.026493">
                <ele>148.800000</ele>
                <time>2018-09-29T11:38:28Z</time>
            </trkpt>
            <trkpt lon="99.353609" lat="14.026458">
                <ele>148.000000</ele>
                <time>2018-09-29T11:38:39Z</time>
            </trkpt>
            <trkpt lon="99.353499" lat="14.026456">
                <ele>147.800000</ele>
                <time>2018-09-29T11:38:41Z</time>
            </trkpt>
            <trkpt lon="99.353115" lat="14.026441">
                <ele>146.600000</ele>
                <time>2018-09-29T11:38:48Z</time>
            </trkpt>
            <trkpt lon="99.352533" lat="14.026411">
                <ele>145.600000</ele>
                <time>2018-09-29T11:38:58Z</time>
            </trkpt>
            <trkpt lon="99.351945" lat="14.026387">
                <ele>145.000000</ele>
                <time>2018-09-29T11:39:09Z</time>
            </trkpt>
            <trkpt lon="99.351351" lat="14.026364">
                <ele>146.200000</ele>
                <time>2018-09-29T11:39:21Z</time>
            </trkpt>
            <trkpt lon="99.350848" lat="14.026342">
                <ele>147.000000</ele>
                <time>2018-09-29T11:39:32Z</time>
            </trkpt>
            <trkpt lon="99.350554" lat="14.026325">
                <ele>148.200000</ele>
                <time>2018-09-29T11:39:39Z</time>
            </trkpt>
            <trkpt lon="99.349995" lat="14.026308">
                <ele>149.200000</ele>
                <time>2018-09-29T11:39:53Z</time>
            </trkpt>
            <trkpt lon="99.349955" lat="14.026306">
                <ele>149.200000</ele>
                <time>2018-09-29T11:39:54Z</time>
            </trkpt>
            <trkpt lon="99.349392" lat="14.026305">
                <ele>150.000000</ele>
                <time>2018-09-29T11:40:08Z</time>
            </trkpt>
            <trkpt lon="99.348816" lat="14.026303">
                <ele>150.200000</ele>
                <time>2018-09-29T11:40:21Z</time>
            </trkpt>
            <trkpt lon="99.348258" lat="14.026302">
                <ele>150.000000</ele>
                <time>2018-09-29T11:40:39Z</time>
            </trkpt>
            <trkpt lon="99.347675" lat="14.026297">
                <ele>149.200000</ele>
                <time>2018-09-29T11:40:51Z</time>
            </trkpt>
            <trkpt lon="99.347484" lat="14.026292">
                <ele>148.200000</ele>
                <time>2018-09-29T11:40:55Z</time>
            </trkpt>
            <trkpt lon="99.346900" lat="14.026260">
                <ele>148.600000</ele>
                <time>2018-09-29T11:41:09Z</time>
            </trkpt>
            <trkpt lon="99.346754" lat="14.026251">
                <ele>149.400000</ele>
                <time>2018-09-29T11:41:13Z</time>
            </trkpt>
            <trkpt lon="99.346197" lat="14.026209">
                <ele>149.800000</ele>
                <time>2018-09-29T11:41:27Z</time>
            </trkpt>
            <trkpt lon="99.345755" lat="14.026177">
                <ele>150.400000</ele>
                <time>2018-09-29T11:41:39Z</time>
            </trkpt>
            <trkpt lon="99.345186" lat="14.026132">
                <ele>151.400000</ele>
                <time>2018-09-29T11:41:55Z</time>
            </trkpt>
            <trkpt lon="99.345152" lat="14.026131">
                <ele>151.400000</ele>
                <time>2018-09-29T11:41:56Z</time>
            </trkpt>
            <trkpt lon="99.344613" lat="14.026089">
                <ele>151.800000</ele>
                <time>2018-09-29T11:42:11Z</time>
            </trkpt>
            <trkpt lon="99.344054" lat="14.026044">
                <ele>152.000000</ele>
                <time>2018-09-29T11:42:26Z</time>
            </trkpt>
            <trkpt lon="99.343427" lat="14.025992">
                <ele>151.600000</ele>
                <time>2018-09-29T11:42:41Z</time>
            </trkpt>
            <trkpt lon="99.342840" lat="14.025934">
                <ele>150.600000</ele>
                <time>2018-09-29T11:42:54Z</time>
            </trkpt>
            <trkpt lon="99.342285" lat="14.025872">
                <ele>151.600000</ele>
                <time>2018-09-29T11:43:09Z</time>
            </trkpt>
            <trkpt lon="99.342098" lat="14.025849">
                <ele>152.200000</ele>
                <time>2018-09-29T11:43:14Z</time>
            </trkpt>
            <trkpt lon="99.341715" lat="14.025813">
                <ele>153.200000</ele>
                <time>2018-09-29T11:43:25Z</time>
            </trkpt>
            <trkpt lon="99.341609" lat="14.025845">
                <ele>154.000000</ele>
                <time>2018-09-29T11:43:29Z</time>
            </trkpt>
            <trkpt lon="99.341581" lat="14.025900">
                <ele>154.200000</ele>
                <time>2018-09-29T11:43:31Z</time>
            </trkpt>
            <trkpt lon="99.341521" lat="14.026128">
                <ele>155.200000</ele>
                <time>2018-09-29T11:43:39Z</time>
            </trkpt>
            <trkpt lon="99.341530" lat="14.026661">
                <ele>155.800000</ele>
                <time>2018-09-29T11:43:59Z</time>
            </trkpt>
            <trkpt lon="99.341527" lat="14.027202">
                <ele>155.800000</ele>
                <time>2018-09-29T11:44:20Z</time>
            </trkpt>
            <trkpt lon="99.341500" lat="14.027278">
                <ele>155.800000</ele>
                <time>2018-09-29T11:44:25Z</time>
            </trkpt>
            <trkpt lon="99.341451" lat="14.027298">
                <ele>155.600000</ele>
                <time>2018-09-29T11:44:29Z</time>
            </trkpt>
        </trkseg>
    </trk>
</gpx>